<?xml version="1.0" encoding="UTF-8" standalone="no" ?>
<gpx xmlns="http://www.topografix.com/GPX/1/1" xmlns:xsi="http://www.w3.org/2001/XMLSchema-instance" xsi:schemaLocation="http://www.topografix.com/GPX/1/1 http://www.topografix.com/GPX/1/1/gpx.xsd" version="1.1" creator="VisuGPX - https://www.visugpx.com">
  <metadata>
    <name>08-AOU-21 16:25:01</name>
    <desc><![CDATA[Meyrueis - l'Aigoual
]]></desc>
  </metadata>
  <trk>
    <name><![CDATA[08-AOU-21 16:25:01]]></name>
    <trkseg>
      <trkpt lat="44.17962" lon="3.43664">
        <ele>722.09</ele>
        <time>2021-08-08T09:32:53Z</time>
      </trkpt>
      <trkpt lat="44.17961" lon="3.43664">
        <ele>721.61</ele>
        <time>2021-08-08T09:33:11Z</time>
      </trkpt>
      <trkpt lat="44.17963" lon="3.43664">
        <ele>721.61</ele>
        <time>2021-08-08T09:33:31Z</time>
      </trkpt>
      <trkpt lat="44.17964" lon="3.43664">
        <ele>721.13</ele>
        <time>2021-08-08T09:34:09Z</time>
      </trkpt>
      <trkpt lat="44.17965" lon="3.43663">
        <ele>721.61</ele>
        <time>2021-08-08T09:34:37Z</time>
      </trkpt>
      <trkpt lat="44.17965" lon="3.43663">
        <ele>721.61</ele>
        <time>2021-08-08T09:35:09Z</time>
      </trkpt>
      <trkpt lat="44.17965" lon="3.43663">
        <ele>721.13</ele>
        <time>2021-08-08T09:35:45Z</time>
      </trkpt>
      <trkpt lat="44.17965" lon="3.43664">
        <ele>721.13</ele>
        <time>2021-08-08T09:36:04Z</time>
      </trkpt>
      <trkpt lat="44.17965" lon="3.43664">
        <ele>721.13</ele>
        <time>2021-08-08T09:36:26Z</time>
      </trkpt>
      <trkpt lat="44.17966" lon="3.43664">
        <ele>722.57</ele>
        <time>2021-08-08T09:36:44Z</time>
      </trkpt>
      <trkpt lat="44.17965" lon="3.43664">
        <ele>722.09</ele>
        <time>2021-08-08T09:36:55Z</time>
      </trkpt>
      <trkpt lat="44.17965" lon="3.43663">
        <ele>722.09</ele>
        <time>2021-08-08T09:37:13Z</time>
      </trkpt>
      <trkpt lat="44.17965" lon="3.43663">
        <ele>722.09</ele>
        <time>2021-08-08T09:37:48Z</time>
      </trkpt>
      <trkpt lat="44.17965" lon="3.43663">
        <ele>721.61</ele>
        <time>2021-08-08T09:37:50Z</time>
      </trkpt>
      <trkpt lat="44.17967" lon="3.43665">
        <ele>722.09</ele>
        <time>2021-08-08T09:37:53Z</time>
      </trkpt>
      <trkpt lat="44.17968" lon="3.43673">
        <ele>722.09</ele>
        <time>2021-08-08T09:37:57Z</time>
      </trkpt>
      <trkpt lat="44.17946" lon="3.43702">
        <ele>723.05</ele>
        <time>2021-08-08T09:38:10Z</time>
      </trkpt>
      <trkpt lat="44.17909" lon="3.43738">
        <ele>724.01</ele>
        <time>2021-08-08T09:38:27Z</time>
      </trkpt>
      <trkpt lat="44.17884" lon="3.43758">
        <ele>724.01</ele>
        <time>2021-08-08T09:38:38Z</time>
      </trkpt>
      <trkpt lat="44.17847" lon="3.43805">
        <ele>724.97</ele>
        <time>2021-08-08T09:38:55Z</time>
      </trkpt>
      <trkpt lat="44.1782" lon="3.43851">
        <ele>725.45</ele>
        <time>2021-08-08T09:39:09Z</time>
      </trkpt>
      <trkpt lat="44.17798" lon="3.43888">
        <ele>726.41</ele>
        <time>2021-08-08T09:39:21Z</time>
      </trkpt>
      <trkpt lat="44.17779" lon="3.43927">
        <ele>727.37</ele>
        <time>2021-08-08T09:39:32Z</time>
      </trkpt>
      <trkpt lat="44.17771" lon="3.43984">
        <ele>727.86</ele>
        <time>2021-08-08T09:39:45Z</time>
      </trkpt>
      <trkpt lat="44.17782" lon="3.44032">
        <ele>728.82</ele>
        <time>2021-08-08T09:39:57Z</time>
      </trkpt>
      <trkpt lat="44.1779" lon="3.44087">
        <ele>729.3</ele>
        <time>2021-08-08T09:40:10Z</time>
      </trkpt>
      <trkpt lat="44.17776" lon="3.44141">
        <ele>730.74</ele>
        <time>2021-08-08T09:40:23Z</time>
      </trkpt>
      <trkpt lat="44.17744" lon="3.44173">
        <ele>732.18</ele>
        <time>2021-08-08T09:40:37Z</time>
      </trkpt>
      <trkpt lat="44.17703" lon="3.44197">
        <ele>733.62</ele>
        <time>2021-08-08T09:40:53Z</time>
      </trkpt>
      <trkpt lat="44.17665" lon="3.44216">
        <ele>735.07</ele>
        <time>2021-08-08T09:41:07Z</time>
      </trkpt>
      <trkpt lat="44.17622" lon="3.44243">
        <ele>736.99</ele>
        <time>2021-08-08T09:41:24Z</time>
      </trkpt>
      <trkpt lat="44.17581" lon="3.44258">
        <ele>737.95</ele>
        <time>2021-08-08T09:41:39Z</time>
      </trkpt>
      <trkpt lat="44.17544" lon="3.4426">
        <ele>738.91</ele>
        <time>2021-08-08T09:41:52Z</time>
      </trkpt>
      <trkpt lat="44.17497" lon="3.44261">
        <ele>739.87</ele>
        <time>2021-08-08T09:42:07Z</time>
      </trkpt>
      <trkpt lat="44.17447" lon="3.44278">
        <ele>740.35</ele>
        <time>2021-08-08T09:42:23Z</time>
      </trkpt>
      <trkpt lat="44.17399" lon="3.44312">
        <ele>741.79</ele>
        <time>2021-08-08T09:42:40Z</time>
      </trkpt>
      <trkpt lat="44.17359" lon="3.44309">
        <ele>743.72</ele>
        <time>2021-08-08T09:42:53Z</time>
      </trkpt>
      <trkpt lat="44.17318" lon="3.44292">
        <ele>745.64</ele>
        <time>2021-08-08T09:43:08Z</time>
      </trkpt>
      <trkpt lat="44.17285" lon="3.44257">
        <ele>747.08</ele>
        <time>2021-08-08T09:43:21Z</time>
      </trkpt>
      <trkpt lat="44.17256" lon="3.44218">
        <ele>748.52</ele>
        <time>2021-08-08T09:43:33Z</time>
      </trkpt>
      <trkpt lat="44.1722" lon="3.44196">
        <ele>749.49</ele>
        <time>2021-08-08T09:43:45Z</time>
      </trkpt>
      <trkpt lat="44.17192" lon="3.44203">
        <ele>749.49</ele>
        <time>2021-08-08T09:43:53Z</time>
      </trkpt>
      <trkpt lat="44.17185" lon="3.44223">
        <ele>749.49</ele>
        <time>2021-08-08T09:43:57Z</time>
      </trkpt>
      <trkpt lat="44.17161" lon="3.44301">
        <ele>749.49</ele>
        <time>2021-08-08T09:44:11Z</time>
      </trkpt>
      <trkpt lat="44.17167" lon="3.44341">
        <ele>749.49</ele>
        <time>2021-08-08T09:44:18Z</time>
      </trkpt>
      <trkpt lat="44.17178" lon="3.44357">
        <ele>749.49</ele>
        <time>2021-08-08T09:44:21Z</time>
      </trkpt>
      <trkpt lat="44.17188" lon="3.44373">
        <ele>749.97</ele>
        <time>2021-08-08T09:44:24Z</time>
      </trkpt>
      <trkpt lat="44.17196" lon="3.44401">
        <ele>749.97</ele>
        <time>2021-08-08T09:44:28Z</time>
      </trkpt>
      <trkpt lat="44.1719" lon="3.44478">
        <ele>750.45</ele>
        <time>2021-08-08T09:44:39Z</time>
      </trkpt>
      <trkpt lat="44.17186" lon="3.44497">
        <ele>750.45</ele>
        <time>2021-08-08T09:44:42Z</time>
      </trkpt>
      <trkpt lat="44.17174" lon="3.4452">
        <ele>750.45</ele>
        <time>2021-08-08T09:44:46Z</time>
      </trkpt>
      <trkpt lat="44.17162" lon="3.44534">
        <ele>750.45</ele>
        <time>2021-08-08T09:44:49Z</time>
      </trkpt>
      <trkpt lat="44.17128" lon="3.44602">
        <ele>750.93</ele>
        <time>2021-08-08T09:45:01Z</time>
      </trkpt>
      <trkpt lat="44.17097" lon="3.44673">
        <ele>751.89</ele>
        <time>2021-08-08T09:45:15Z</time>
      </trkpt>
      <trkpt lat="44.17093" lon="3.44684">
        <ele>752.37</ele>
        <time>2021-08-08T09:45:17Z</time>
      </trkpt>
      <trkpt lat="44.17073" lon="3.44765">
        <ele>753.33</ele>
        <time>2021-08-08T09:45:32Z</time>
      </trkpt>
      <trkpt lat="44.1703" lon="3.4484">
        <ele>754.29</ele>
        <time>2021-08-08T09:45:49Z</time>
      </trkpt>
      <trkpt lat="44.16989" lon="3.44877">
        <ele>755.25</ele>
        <time>2021-08-08T09:46:02Z</time>
      </trkpt>
      <trkpt lat="44.1695" lon="3.44887">
        <ele>756.21</ele>
        <time>2021-08-08T09:46:14Z</time>
      </trkpt>
      <trkpt lat="44.16917" lon="3.4488">
        <ele>757.18</ele>
        <time>2021-08-08T09:46:26Z</time>
      </trkpt>
      <trkpt lat="44.1688" lon="3.44869">
        <ele>758.62</ele>
        <time>2021-08-08T09:46:38Z</time>
      </trkpt>
      <trkpt lat="44.16844" lon="3.44859">
        <ele>759.1</ele>
        <time>2021-08-08T09:46:50Z</time>
      </trkpt>
      <trkpt lat="44.16823" lon="3.44889">
        <ele>760.54</ele>
        <time>2021-08-08T09:47:00Z</time>
      </trkpt>
      <trkpt lat="44.16813" lon="3.44955">
        <ele>761.02</ele>
        <time>2021-08-08T09:47:15Z</time>
      </trkpt>
      <trkpt lat="44.16778" lon="3.45006">
        <ele>761.5</ele>
        <time>2021-08-08T09:47:29Z</time>
      </trkpt>
      <trkpt lat="44.16754" lon="3.45061">
        <ele>762.94</ele>
        <time>2021-08-08T09:47:44Z</time>
      </trkpt>
      <trkpt lat="44.16781" lon="3.45095">
        <ele>763.42</ele>
        <time>2021-08-08T09:47:55Z</time>
      </trkpt>
      <trkpt lat="44.16817" lon="3.45108">
        <ele>763.42</ele>
        <time>2021-08-08T09:48:06Z</time>
      </trkpt>
      <trkpt lat="44.1683" lon="3.45118">
        <ele>763.9</ele>
        <time>2021-08-08T09:48:10Z</time>
      </trkpt>
      <trkpt lat="44.16833" lon="3.45165">
        <ele>765.83</ele>
        <time>2021-08-08T09:48:22Z</time>
      </trkpt>
      <trkpt lat="44.16799" lon="3.45174">
        <ele>766.31</ele>
        <time>2021-08-08T09:48:34Z</time>
      </trkpt>
      <trkpt lat="44.16769" lon="3.45181">
        <ele>768.23</ele>
        <time>2021-08-08T09:48:47Z</time>
      </trkpt>
      <trkpt lat="44.16744" lon="3.45209">
        <ele>769.67</ele>
        <time>2021-08-08T09:49:01Z</time>
      </trkpt>
      <trkpt lat="44.16747" lon="3.45258">
        <ele>771.6</ele>
        <time>2021-08-08T09:49:16Z</time>
      </trkpt>
      <trkpt lat="44.16746" lon="3.45322">
        <ele>773.04</ele>
        <time>2021-08-08T09:49:33Z</time>
      </trkpt>
      <trkpt lat="44.16733" lon="3.45397">
        <ele>773.04</ele>
        <time>2021-08-08T09:49:49Z</time>
      </trkpt>
      <trkpt lat="44.16711" lon="3.45467">
        <ele>773.52</ele>
        <time>2021-08-08T09:50:03Z</time>
      </trkpt>
      <trkpt lat="44.16692" lon="3.45503">
        <ele>773.52</ele>
        <time>2021-08-08T09:50:10Z</time>
      </trkpt>
      <trkpt lat="44.16645" lon="3.45596">
        <ele>774</ele>
        <time>2021-08-08T09:50:27Z</time>
      </trkpt>
      <trkpt lat="44.16608" lon="3.45671">
        <ele>774</ele>
        <time>2021-08-08T09:50:41Z</time>
      </trkpt>
      <trkpt lat="44.16584" lon="3.45718">
        <ele>774.48</ele>
        <time>2021-08-08T09:50:50Z</time>
      </trkpt>
      <trkpt lat="44.16537" lon="3.45811">
        <ele>774.48</ele>
        <time>2021-08-08T09:51:07Z</time>
      </trkpt>
      <trkpt lat="44.16531" lon="3.45822">
        <ele>774.96</ele>
        <time>2021-08-08T09:51:09Z</time>
      </trkpt>
      <trkpt lat="44.16519" lon="3.45848">
        <ele>775.44</ele>
        <time>2021-08-08T09:51:14Z</time>
      </trkpt>
      <trkpt lat="44.1652" lon="3.45903">
        <ele>775.44</ele>
        <time>2021-08-08T09:51:23Z</time>
      </trkpt>
      <trkpt lat="44.165" lon="3.45926">
        <ele>775.92</ele>
        <time>2021-08-08T09:51:29Z</time>
      </trkpt>
      <trkpt lat="44.16481" lon="3.45928">
        <ele>775.44</ele>
        <time>2021-08-08T09:51:33Z</time>
      </trkpt>
      <trkpt lat="44.16465" lon="3.45942">
        <ele>775.92</ele>
        <time>2021-08-08T09:51:37Z</time>
      </trkpt>
      <trkpt lat="44.16454" lon="3.45961">
        <ele>775.92</ele>
        <time>2021-08-08T09:51:41Z</time>
      </trkpt>
      <trkpt lat="44.16449" lon="3.45998">
        <ele>776.4</ele>
        <time>2021-08-08T09:51:47Z</time>
      </trkpt>
      <trkpt lat="44.16444" lon="3.46044">
        <ele>776.4</ele>
        <time>2021-08-08T09:51:54Z</time>
      </trkpt>
      <trkpt lat="44.16429" lon="3.4608">
        <ele>776.4</ele>
        <time>2021-08-08T09:52:01Z</time>
      </trkpt>
      <trkpt lat="44.16415" lon="3.46104">
        <ele>776.88</ele>
        <time>2021-08-08T09:52:06Z</time>
      </trkpt>
      <trkpt lat="44.1637" lon="3.46134">
        <ele>777.36</ele>
        <time>2021-08-08T09:52:17Z</time>
      </trkpt>
      <trkpt lat="44.16354" lon="3.46145">
        <ele>777.36</ele>
        <time>2021-08-08T09:52:21Z</time>
      </trkpt>
      <trkpt lat="44.16342" lon="3.46152">
        <ele>776.88</ele>
        <time>2021-08-08T09:52:24Z</time>
      </trkpt>
      <trkpt lat="44.16291" lon="3.46182">
        <ele>776.88</ele>
        <time>2021-08-08T09:52:36Z</time>
      </trkpt>
      <trkpt lat="44.16283" lon="3.46188">
        <ele>777.36</ele>
        <time>2021-08-08T09:52:38Z</time>
      </trkpt>
      <trkpt lat="44.1627" lon="3.46206">
        <ele>777.84</ele>
        <time>2021-08-08T09:52:42Z</time>
      </trkpt>
      <trkpt lat="44.16256" lon="3.46232">
        <ele>777.84</ele>
        <time>2021-08-08T09:52:48Z</time>
      </trkpt>
      <trkpt lat="44.16242" lon="3.46279">
        <ele>779.77</ele>
        <time>2021-08-08T09:52:59Z</time>
      </trkpt>
      <trkpt lat="44.16236" lon="3.46326">
        <ele>779.77</ele>
        <time>2021-08-08T09:53:10Z</time>
      </trkpt>
      <trkpt lat="44.16219" lon="3.46371">
        <ele>782.17</ele>
        <time>2021-08-08T09:53:23Z</time>
      </trkpt>
      <trkpt lat="44.16196" lon="3.46416">
        <ele>783.61</ele>
        <time>2021-08-08T09:53:37Z</time>
      </trkpt>
      <trkpt lat="44.16173" lon="3.46471">
        <ele>785.05</ele>
        <time>2021-08-08T09:53:54Z</time>
      </trkpt>
      <trkpt lat="44.16172" lon="3.46526">
        <ele>786.02</ele>
        <time>2021-08-08T09:54:07Z</time>
      </trkpt>
      <trkpt lat="44.16157" lon="3.46575">
        <ele>786.5</ele>
        <time>2021-08-08T09:54:19Z</time>
      </trkpt>
      <trkpt lat="44.16121" lon="3.46612">
        <ele>786.98</ele>
        <time>2021-08-08T09:54:31Z</time>
      </trkpt>
      <trkpt lat="44.1608" lon="3.4665">
        <ele>786.5</ele>
        <time>2021-08-08T09:54:43Z</time>
      </trkpt>
      <trkpt lat="44.1604" lon="3.46698">
        <ele>786.98</ele>
        <time>2021-08-08T09:54:55Z</time>
      </trkpt>
      <trkpt lat="44.16029" lon="3.46716">
        <ele>788.42</ele>
        <time>2021-08-08T09:54:59Z</time>
      </trkpt>
      <trkpt lat="44.15991" lon="3.46768">
        <ele>787.94</ele>
        <time>2021-08-08T09:55:11Z</time>
      </trkpt>
      <trkpt lat="44.15978" lon="3.46785">
        <ele>788.42</ele>
        <time>2021-08-08T09:55:15Z</time>
      </trkpt>
      <trkpt lat="44.15966" lon="3.46803">
        <ele>788.42</ele>
        <time>2021-08-08T09:55:19Z</time>
      </trkpt>
      <trkpt lat="44.15926" lon="3.46827">
        <ele>789.38</ele>
        <time>2021-08-08T09:55:29Z</time>
      </trkpt>
      <trkpt lat="44.15845" lon="3.46856">
        <ele>789.86</ele>
        <time>2021-08-08T09:55:48Z</time>
      </trkpt>
      <trkpt lat="44.15826" lon="3.46866">
        <ele>790.34</ele>
        <time>2021-08-08T09:55:53Z</time>
      </trkpt>
      <trkpt lat="44.15817" lon="3.46896">
        <ele>790.34</ele>
        <time>2021-08-08T09:55:59Z</time>
      </trkpt>
      <trkpt lat="44.15835" lon="3.4698">
        <ele>792.26</ele>
        <time>2021-08-08T09:56:14Z</time>
      </trkpt>
      <trkpt lat="44.15844" lon="3.47049">
        <ele>793.22</ele>
        <time>2021-08-08T09:56:27Z</time>
      </trkpt>
      <trkpt lat="44.15842" lon="3.47093">
        <ele>794.19</ele>
        <time>2021-08-08T09:56:37Z</time>
      </trkpt>
      <trkpt lat="44.1583" lon="3.47146">
        <ele>795.15</ele>
        <time>2021-08-08T09:56:48Z</time>
      </trkpt>
      <trkpt lat="44.15806" lon="3.47199">
        <ele>796.59</ele>
        <time>2021-08-08T09:57:02Z</time>
      </trkpt>
      <trkpt lat="44.15785" lon="3.47251">
        <ele>797.55</ele>
        <time>2021-08-08T09:57:16Z</time>
      </trkpt>
      <trkpt lat="44.15761" lon="3.47288">
        <ele>797.55</ele>
        <time>2021-08-08T09:57:29Z</time>
      </trkpt>
      <trkpt lat="44.15724" lon="3.47317">
        <ele>798.51</ele>
        <time>2021-08-08T09:57:44Z</time>
      </trkpt>
      <trkpt lat="44.15688" lon="3.47337">
        <ele>799.95</ele>
        <time>2021-08-08T09:57:58Z</time>
      </trkpt>
      <trkpt lat="44.15647" lon="3.47363">
        <ele>802.84</ele>
        <time>2021-08-08T09:58:15Z</time>
      </trkpt>
      <trkpt lat="44.15624" lon="3.47403">
        <ele>804.76</ele>
        <time>2021-08-08T09:58:28Z</time>
      </trkpt>
      <trkpt lat="44.15607" lon="3.47448">
        <ele>805.72</ele>
        <time>2021-08-08T09:58:42Z</time>
      </trkpt>
      <trkpt lat="44.15582" lon="3.47497">
        <ele>806.68</ele>
        <time>2021-08-08T09:58:57Z</time>
      </trkpt>
      <trkpt lat="44.15551" lon="3.4754">
        <ele>807.64</ele>
        <time>2021-08-08T09:59:12Z</time>
      </trkpt>
      <trkpt lat="44.15558" lon="3.47587">
        <ele>808.13</ele>
        <time>2021-08-08T09:59:24Z</time>
      </trkpt>
      <trkpt lat="44.15591" lon="3.47638">
        <ele>809.57</ele>
        <time>2021-08-08T09:59:40Z</time>
      </trkpt>
      <trkpt lat="44.15633" lon="3.47686">
        <ele>810.53</ele>
        <time>2021-08-08T09:59:56Z</time>
      </trkpt>
      <trkpt lat="44.15655" lon="3.47741">
        <ele>811.97</ele>
        <time>2021-08-08T10:00:10Z</time>
      </trkpt>
      <trkpt lat="44.1567" lon="3.47799">
        <ele>813.41</ele>
        <time>2021-08-08T10:00:24Z</time>
      </trkpt>
      <trkpt lat="44.15678" lon="3.47868">
        <ele>814.37</ele>
        <time>2021-08-08T10:00:40Z</time>
      </trkpt>
      <trkpt lat="44.15674" lon="3.4794">
        <ele>814.85</ele>
        <time>2021-08-08T10:00:56Z</time>
      </trkpt>
      <trkpt lat="44.1567" lon="3.47996">
        <ele>814.37</ele>
        <time>2021-08-08T10:01:08Z</time>
      </trkpt>
      <trkpt lat="44.15644" lon="3.4807">
        <ele>816.78</ele>
        <time>2021-08-08T10:01:25Z</time>
      </trkpt>
      <trkpt lat="44.15635" lon="3.48139">
        <ele>817.26</ele>
        <time>2021-08-08T10:01:40Z</time>
      </trkpt>
      <trkpt lat="44.15638" lon="3.48204">
        <ele>818.22</ele>
        <time>2021-08-08T10:01:55Z</time>
      </trkpt>
      <trkpt lat="44.15647" lon="3.48269">
        <ele>819.18</ele>
        <time>2021-08-08T10:02:10Z</time>
      </trkpt>
      <trkpt lat="44.15674" lon="3.48313">
        <ele>820.14</ele>
        <time>2021-08-08T10:02:24Z</time>
      </trkpt>
      <trkpt lat="44.15723" lon="3.48326">
        <ele>821.58</ele>
        <time>2021-08-08T10:02:38Z</time>
      </trkpt>
      <trkpt lat="44.15764" lon="3.48363">
        <ele>822.55</ele>
        <time>2021-08-08T10:02:52Z</time>
      </trkpt>
      <trkpt lat="44.15801" lon="3.48416">
        <ele>823.99</ele>
        <time>2021-08-08T10:03:09Z</time>
      </trkpt>
      <trkpt lat="44.15804" lon="3.48423">
        <ele>823.99</ele>
        <time>2021-08-08T10:03:19Z</time>
      </trkpt>
      <trkpt lat="44.15804" lon="3.48422">
        <ele>823.03</ele>
        <time>2021-08-08T10:03:33Z</time>
      </trkpt>
      <trkpt lat="44.15805" lon="3.48422">
        <ele>823.99</ele>
        <time>2021-08-08T10:03:50Z</time>
      </trkpt>
      <trkpt lat="44.15803" lon="3.48416">
        <ele>823.51</ele>
        <time>2021-08-08T10:04:01Z</time>
      </trkpt>
      <trkpt lat="44.15804" lon="3.48416">
        <ele>823.51</ele>
        <time>2021-08-08T10:04:32Z</time>
      </trkpt>
      <trkpt lat="44.15803" lon="3.48421">
        <ele>823.51</ele>
        <time>2021-08-08T10:04:49Z</time>
      </trkpt>
      <trkpt lat="44.15803" lon="3.48422">
        <ele>823.03</ele>
        <time>2021-08-08T10:05:04Z</time>
      </trkpt>
      <trkpt lat="44.15805" lon="3.48423">
        <ele>823.03</ele>
        <time>2021-08-08T10:05:13Z</time>
      </trkpt>
      <trkpt lat="44.15827" lon="3.48448">
        <ele>823.03</ele>
        <time>2021-08-08T10:05:25Z</time>
      </trkpt>
      <trkpt lat="44.15867" lon="3.48499">
        <ele>822.55</ele>
        <time>2021-08-08T10:05:41Z</time>
      </trkpt>
      <trkpt lat="44.15892" lon="3.48559">
        <ele>822.55</ele>
        <time>2021-08-08T10:05:55Z</time>
      </trkpt>
      <trkpt lat="44.15885" lon="3.48609">
        <ele>822.55</ele>
        <time>2021-08-08T10:06:06Z</time>
      </trkpt>
      <trkpt lat="44.15874" lon="3.48664">
        <ele>823.03</ele>
        <time>2021-08-08T10:06:18Z</time>
      </trkpt>
      <trkpt lat="44.15877" lon="3.4872">
        <ele>824.47</ele>
        <time>2021-08-08T10:06:33Z</time>
      </trkpt>
      <trkpt lat="44.15879" lon="3.48775">
        <ele>825.91</ele>
        <time>2021-08-08T10:06:49Z</time>
      </trkpt>
      <trkpt lat="44.15892" lon="3.4883">
        <ele>827.83</ele>
        <time>2021-08-08T10:07:08Z</time>
      </trkpt>
      <trkpt lat="44.15908" lon="3.48872">
        <ele>829.76</ele>
        <time>2021-08-08T10:07:22Z</time>
      </trkpt>
      <trkpt lat="44.15912" lon="3.4891">
        <ele>831.2</ele>
        <time>2021-08-08T10:07:34Z</time>
      </trkpt>
      <trkpt lat="44.15903" lon="3.48952">
        <ele>833.12</ele>
        <time>2021-08-08T10:07:48Z</time>
      </trkpt>
      <trkpt lat="44.15873" lon="3.48986">
        <ele>834.56</ele>
        <time>2021-08-08T10:08:04Z</time>
      </trkpt>
      <trkpt lat="44.15844" lon="3.49023">
        <ele>835.52</ele>
        <time>2021-08-08T10:08:20Z</time>
      </trkpt>
      <trkpt lat="44.15825" lon="3.49069">
        <ele>836.96</ele>
        <time>2021-08-08T10:08:37Z</time>
      </trkpt>
      <trkpt lat="44.15818" lon="3.49129">
        <ele>838.89</ele>
        <time>2021-08-08T10:08:55Z</time>
      </trkpt>
      <trkpt lat="44.15831" lon="3.4918">
        <ele>839.85</ele>
        <time>2021-08-08T10:09:10Z</time>
      </trkpt>
      <trkpt lat="44.15831" lon="3.4924">
        <ele>840.81</ele>
        <time>2021-08-08T10:09:24Z</time>
      </trkpt>
      <trkpt lat="44.15814" lon="3.4929">
        <ele>841.29</ele>
        <time>2021-08-08T10:09:36Z</time>
      </trkpt>
      <trkpt lat="44.15777" lon="3.49351">
        <ele>842.25</ele>
        <time>2021-08-08T10:09:53Z</time>
      </trkpt>
      <trkpt lat="44.15747" lon="3.49409">
        <ele>843.21</ele>
        <time>2021-08-08T10:10:08Z</time>
      </trkpt>
      <trkpt lat="44.15728" lon="3.49471">
        <ele>843.69</ele>
        <time>2021-08-08T10:10:23Z</time>
      </trkpt>
      <trkpt lat="44.15741" lon="3.49551">
        <ele>845.14</ele>
        <time>2021-08-08T10:10:40Z</time>
      </trkpt>
      <trkpt lat="44.15755" lon="3.49636">
        <ele>845.14</ele>
        <time>2021-08-08T10:10:58Z</time>
      </trkpt>
      <trkpt lat="44.15772" lon="3.49708">
        <ele>846.1</ele>
        <time>2021-08-08T10:11:15Z</time>
      </trkpt>
      <trkpt lat="44.1578" lon="3.49769">
        <ele>847.54</ele>
        <time>2021-08-08T10:11:30Z</time>
      </trkpt>
      <trkpt lat="44.15759" lon="3.49799">
        <ele>848.98</ele>
        <time>2021-08-08T10:11:41Z</time>
      </trkpt>
      <trkpt lat="44.15747" lon="3.49835">
        <ele>850.9</ele>
        <time>2021-08-08T10:11:54Z</time>
      </trkpt>
      <trkpt lat="44.15737" lon="3.49867">
        <ele>852.83</ele>
        <time>2021-08-08T10:12:06Z</time>
      </trkpt>
      <trkpt lat="44.15728" lon="3.49902">
        <ele>854.75</ele>
        <time>2021-08-08T10:12:20Z</time>
      </trkpt>
      <trkpt lat="44.15731" lon="3.49942">
        <ele>856.67</ele>
        <time>2021-08-08T10:12:34Z</time>
      </trkpt>
      <trkpt lat="44.15749" lon="3.49978">
        <ele>858.11</ele>
        <time>2021-08-08T10:12:50Z</time>
      </trkpt>
      <trkpt lat="44.15766" lon="3.5002">
        <ele>860.04</ele>
        <time>2021-08-08T10:13:07Z</time>
      </trkpt>
      <trkpt lat="44.15772" lon="3.50066">
        <ele>862.44</ele>
        <time>2021-08-08T10:13:24Z</time>
      </trkpt>
      <trkpt lat="44.15764" lon="3.50104">
        <ele>863.88</ele>
        <time>2021-08-08T10:13:38Z</time>
      </trkpt>
      <trkpt lat="44.15742" lon="3.50136">
        <ele>865.32</ele>
        <time>2021-08-08T10:13:53Z</time>
      </trkpt>
      <trkpt lat="44.15716" lon="3.50168">
        <ele>866.77</ele>
        <time>2021-08-08T10:14:07Z</time>
      </trkpt>
      <trkpt lat="44.15691" lon="3.5022">
        <ele>869.65</ele>
        <time>2021-08-08T10:14:24Z</time>
      </trkpt>
      <trkpt lat="44.15701" lon="3.50272">
        <ele>871.57</ele>
        <time>2021-08-08T10:14:39Z</time>
      </trkpt>
      <trkpt lat="44.15714" lon="3.5033">
        <ele>873.5</ele>
        <time>2021-08-08T10:14:56Z</time>
      </trkpt>
      <trkpt lat="44.15701" lon="3.50381">
        <ele>874.94</ele>
        <time>2021-08-08T10:15:11Z</time>
      </trkpt>
      <trkpt lat="44.15681" lon="3.5042">
        <ele>875.9</ele>
        <time>2021-08-08T10:15:24Z</time>
      </trkpt>
      <trkpt lat="44.15658" lon="3.50467">
        <ele>877.34</ele>
        <time>2021-08-08T10:15:39Z</time>
      </trkpt>
      <trkpt lat="44.1564" lon="3.50503">
        <ele>878.78</ele>
        <time>2021-08-08T10:15:51Z</time>
      </trkpt>
      <trkpt lat="44.15607" lon="3.50553">
        <ele>880.71</ele>
        <time>2021-08-08T10:16:09Z</time>
      </trkpt>
      <trkpt lat="44.15586" lon="3.50599">
        <ele>882.63</ele>
        <time>2021-08-08T10:16:24Z</time>
      </trkpt>
      <trkpt lat="44.15561" lon="3.50612">
        <ele>884.07</ele>
        <time>2021-08-08T10:16:34Z</time>
      </trkpt>
      <trkpt lat="44.15532" lon="3.50645">
        <ele>885.51</ele>
        <time>2021-08-08T10:16:48Z</time>
      </trkpt>
      <trkpt lat="44.1552" lon="3.50693">
        <ele>887.91</ele>
        <time>2021-08-08T10:17:02Z</time>
      </trkpt>
      <trkpt lat="44.15514" lon="3.5073">
        <ele>887.91</ele>
        <time>2021-08-08T10:17:13Z</time>
      </trkpt>
      <trkpt lat="44.1549" lon="3.50771">
        <ele>888.88</ele>
        <time>2021-08-08T10:17:25Z</time>
      </trkpt>
      <trkpt lat="44.15452" lon="3.50812">
        <ele>889.36</ele>
        <time>2021-08-08T10:17:40Z</time>
      </trkpt>
      <trkpt lat="44.15444" lon="3.50862">
        <ele>890.8</ele>
        <time>2021-08-08T10:17:52Z</time>
      </trkpt>
      <trkpt lat="44.15451" lon="3.50928">
        <ele>892.24</ele>
        <time>2021-08-08T10:18:08Z</time>
      </trkpt>
      <trkpt lat="44.15442" lon="3.50986">
        <ele>894.16</ele>
        <time>2021-08-08T10:18:22Z</time>
      </trkpt>
      <trkpt lat="44.1545" lon="3.51031">
        <ele>895.12</ele>
        <time>2021-08-08T10:18:35Z</time>
      </trkpt>
      <trkpt lat="44.15459" lon="3.51067">
        <ele>896.57</ele>
        <time>2021-08-08T10:18:46Z</time>
      </trkpt>
      <trkpt lat="44.15455" lon="3.5111">
        <ele>898.49</ele>
        <time>2021-08-08T10:18:59Z</time>
      </trkpt>
      <trkpt lat="44.15452" lon="3.51153">
        <ele>899.93</ele>
        <time>2021-08-08T10:19:12Z</time>
      </trkpt>
      <trkpt lat="44.15447" lon="3.51166">
        <ele>900.89</ele>
        <time>2021-08-08T10:19:17Z</time>
      </trkpt>
      <trkpt lat="44.15429" lon="3.51194">
        <ele>902.82</ele>
        <time>2021-08-08T10:19:30Z</time>
      </trkpt>
      <trkpt lat="44.15411" lon="3.51216">
        <ele>904.26</ele>
        <time>2021-08-08T10:19:41Z</time>
      </trkpt>
      <trkpt lat="44.15391" lon="3.51238">
        <ele>906.18</ele>
        <time>2021-08-08T10:19:54Z</time>
      </trkpt>
      <trkpt lat="44.15362" lon="3.51277">
        <ele>908.1</ele>
        <time>2021-08-08T10:20:10Z</time>
      </trkpt>
      <trkpt lat="44.15341" lon="3.51306">
        <ele>910.03</ele>
        <time>2021-08-08T10:20:22Z</time>
      </trkpt>
      <trkpt lat="44.15308" lon="3.51328">
        <ele>912.43</ele>
        <time>2021-08-08T10:20:36Z</time>
      </trkpt>
      <trkpt lat="44.15283" lon="3.51357">
        <ele>914.83</ele>
        <time>2021-08-08T10:20:50Z</time>
      </trkpt>
      <trkpt lat="44.15273" lon="3.514">
        <ele>916.75</ele>
        <time>2021-08-08T10:21:03Z</time>
      </trkpt>
      <trkpt lat="44.15267" lon="3.51453">
        <ele>918.68</ele>
        <time>2021-08-08T10:21:19Z</time>
      </trkpt>
      <trkpt lat="44.15278" lon="3.51497">
        <ele>920.12</ele>
        <time>2021-08-08T10:21:33Z</time>
      </trkpt>
      <trkpt lat="44.15277" lon="3.51543">
        <ele>921.56</ele>
        <time>2021-08-08T10:21:48Z</time>
      </trkpt>
      <trkpt lat="44.15274" lon="3.51578">
        <ele>923.48</ele>
        <time>2021-08-08T10:22:00Z</time>
      </trkpt>
      <trkpt lat="44.15263" lon="3.51619">
        <ele>924.93</ele>
        <time>2021-08-08T10:22:14Z</time>
      </trkpt>
      <trkpt lat="44.15261" lon="3.51663">
        <ele>927.33</ele>
        <time>2021-08-08T10:22:28Z</time>
      </trkpt>
      <trkpt lat="44.15265" lon="3.51705">
        <ele>929.25</ele>
        <time>2021-08-08T10:22:42Z</time>
      </trkpt>
      <trkpt lat="44.15291" lon="3.51738">
        <ele>931.17</ele>
        <time>2021-08-08T10:22:58Z</time>
      </trkpt>
      <trkpt lat="44.15315" lon="3.51766">
        <ele>932.62</ele>
        <time>2021-08-08T10:23:12Z</time>
      </trkpt>
      <trkpt lat="44.15344" lon="3.51791">
        <ele>934.54</ele>
        <time>2021-08-08T10:23:28Z</time>
      </trkpt>
      <trkpt lat="44.15371" lon="3.5182">
        <ele>936.46</ele>
        <time>2021-08-08T10:23:44Z</time>
      </trkpt>
      <trkpt lat="44.1539" lon="3.51856">
        <ele>937.42</ele>
        <time>2021-08-08T10:23:58Z</time>
      </trkpt>
      <trkpt lat="44.15416" lon="3.51884">
        <ele>939.35</ele>
        <time>2021-08-08T10:24:13Z</time>
      </trkpt>
      <trkpt lat="44.15424" lon="3.51896">
        <ele>939.35</ele>
        <time>2021-08-08T10:24:19Z</time>
      </trkpt>
      <trkpt lat="44.15426" lon="3.5191">
        <ele>940.79</ele>
        <time>2021-08-08T10:24:24Z</time>
      </trkpt>
      <trkpt lat="44.15419" lon="3.51931">
        <ele>939.35</ele>
        <time>2021-08-08T10:24:39Z</time>
      </trkpt>
      <trkpt lat="44.15418" lon="3.51939">
        <ele>938.86</ele>
        <time>2021-08-08T10:24:50Z</time>
      </trkpt>
      <trkpt lat="44.15418" lon="3.51942">
        <ele>939.83</ele>
        <time>2021-08-08T10:25:03Z</time>
      </trkpt>
      <trkpt lat="44.15418" lon="3.5194">
        <ele>939.35</ele>
        <time>2021-08-08T10:25:29Z</time>
      </trkpt>
      <trkpt lat="44.15418" lon="3.51937">
        <ele>939.35</ele>
        <time>2021-08-08T10:25:44Z</time>
      </trkpt>
      <trkpt lat="44.15417" lon="3.51931">
        <ele>939.83</ele>
        <time>2021-08-08T10:25:56Z</time>
      </trkpt>
      <trkpt lat="44.15416" lon="3.51931">
        <ele>939.83</ele>
        <time>2021-08-08T10:26:09Z</time>
      </trkpt>
      <trkpt lat="44.15418" lon="3.51933">
        <ele>939.83</ele>
        <time>2021-08-08T10:26:23Z</time>
      </trkpt>
      <trkpt lat="44.15417" lon="3.5193">
        <ele>940.31</ele>
        <time>2021-08-08T10:26:29Z</time>
      </trkpt>
      <trkpt lat="44.15413" lon="3.51931">
        <ele>940.79</ele>
        <time>2021-08-08T10:26:33Z</time>
      </trkpt>
      <trkpt lat="44.1539" lon="3.5191">
        <ele>943.19</ele>
        <time>2021-08-08T10:26:48Z</time>
      </trkpt>
      <trkpt lat="44.15366" lon="3.51897">
        <ele>944.15</ele>
        <time>2021-08-08T10:27:01Z</time>
      </trkpt>
      <trkpt lat="44.15344" lon="3.51881">
        <ele>945.59</ele>
        <time>2021-08-08T10:27:13Z</time>
      </trkpt>
      <trkpt lat="44.15318" lon="3.51857">
        <ele>946.07</ele>
        <time>2021-08-08T10:27:26Z</time>
      </trkpt>
      <trkpt lat="44.15302" lon="3.51872">
        <ele>946.56</ele>
        <time>2021-08-08T10:27:36Z</time>
      </trkpt>
      <trkpt lat="44.15294" lon="3.5193">
        <ele>948</ele>
        <time>2021-08-08T10:27:55Z</time>
      </trkpt>
      <trkpt lat="44.15282" lon="3.51977">
        <ele>950.4</ele>
        <time>2021-08-08T10:28:11Z</time>
      </trkpt>
      <trkpt lat="44.1528" lon="3.52027">
        <ele>952.32</ele>
        <time>2021-08-08T10:28:28Z</time>
      </trkpt>
      <trkpt lat="44.15274" lon="3.52074">
        <ele>954.25</ele>
        <time>2021-08-08T10:28:43Z</time>
      </trkpt>
      <trkpt lat="44.15257" lon="3.52121">
        <ele>956.17</ele>
        <time>2021-08-08T10:29:00Z</time>
      </trkpt>
      <trkpt lat="44.15227" lon="3.52162">
        <ele>959.05</ele>
        <time>2021-08-08T10:29:19Z</time>
      </trkpt>
      <trkpt lat="44.15211" lon="3.52198">
        <ele>960.98</ele>
        <time>2021-08-08T10:29:33Z</time>
      </trkpt>
      <trkpt lat="44.15188" lon="3.52221">
        <ele>961.94</ele>
        <time>2021-08-08T10:29:46Z</time>
      </trkpt>
      <trkpt lat="44.15157" lon="3.52215">
        <ele>964.34</ele>
        <time>2021-08-08T10:30:01Z</time>
      </trkpt>
      <trkpt lat="44.15121" lon="3.52199">
        <ele>966.26</ele>
        <time>2021-08-08T10:30:18Z</time>
      </trkpt>
      <trkpt lat="44.15086" lon="3.52208">
        <ele>969.15</ele>
        <time>2021-08-08T10:30:33Z</time>
      </trkpt>
      <trkpt lat="44.15061" lon="3.52248">
        <ele>970.59</ele>
        <time>2021-08-08T10:30:49Z</time>
      </trkpt>
      <trkpt lat="44.15055" lon="3.52294">
        <ele>973.95</ele>
        <time>2021-08-08T10:31:03Z</time>
      </trkpt>
      <trkpt lat="44.15052" lon="3.52346">
        <ele>974.91</ele>
        <time>2021-08-08T10:31:19Z</time>
      </trkpt>
      <trkpt lat="44.15052" lon="3.52397">
        <ele>977.32</ele>
        <time>2021-08-08T10:31:34Z</time>
      </trkpt>
      <trkpt lat="44.15033" lon="3.52437">
        <ele>979.24</ele>
        <time>2021-08-08T10:31:47Z</time>
      </trkpt>
      <trkpt lat="44.15024" lon="3.52483">
        <ele>980.68</ele>
        <time>2021-08-08T10:32:01Z</time>
      </trkpt>
      <trkpt lat="44.15015" lon="3.52534">
        <ele>982.12</ele>
        <time>2021-08-08T10:32:17Z</time>
      </trkpt>
      <trkpt lat="44.15004" lon="3.52593">
        <ele>985.01</ele>
        <time>2021-08-08T10:32:35Z</time>
      </trkpt>
      <trkpt lat="44.14996" lon="3.52633">
        <ele>986.93</ele>
        <time>2021-08-08T10:32:50Z</time>
      </trkpt>
      <trkpt lat="44.14976" lon="3.52663">
        <ele>988.37</ele>
        <time>2021-08-08T10:33:04Z</time>
      </trkpt>
      <trkpt lat="44.14964" lon="3.52701">
        <ele>989.33</ele>
        <time>2021-08-08T10:33:18Z</time>
      </trkpt>
      <trkpt lat="44.14939" lon="3.52697">
        <ele>990.3</ele>
        <time>2021-08-08T10:33:30Z</time>
      </trkpt>
      <trkpt lat="44.14911" lon="3.52695">
        <ele>989.81</ele>
        <time>2021-08-08T10:33:43Z</time>
      </trkpt>
      <trkpt lat="44.14892" lon="3.52726">
        <ele>991.74</ele>
        <time>2021-08-08T10:33:57Z</time>
      </trkpt>
      <trkpt lat="44.14878" lon="3.52761">
        <ele>993.18</ele>
        <time>2021-08-08T10:34:11Z</time>
      </trkpt>
      <trkpt lat="44.14862" lon="3.52811">
        <ele>995.1</ele>
        <time>2021-08-08T10:34:29Z</time>
      </trkpt>
      <trkpt lat="44.14845" lon="3.52846">
        <ele>996.54</ele>
        <time>2021-08-08T10:34:43Z</time>
      </trkpt>
      <trkpt lat="44.1482" lon="3.52836">
        <ele>997.51</ele>
        <time>2021-08-08T10:34:55Z</time>
      </trkpt>
      <trkpt lat="44.14794" lon="3.52807">
        <ele>998.47</ele>
        <time>2021-08-08T10:35:09Z</time>
      </trkpt>
      <trkpt lat="44.14787" lon="3.52763">
        <ele>1000.39</ele>
        <time>2021-08-08T10:35:25Z</time>
      </trkpt>
      <trkpt lat="44.14783" lon="3.52719">
        <ele>1000.87</ele>
        <time>2021-08-08T10:35:41Z</time>
      </trkpt>
      <trkpt lat="44.14776" lon="3.52675">
        <ele>1002.31</ele>
        <time>2021-08-08T10:35:58Z</time>
      </trkpt>
      <trkpt lat="44.14759" lon="3.52638">
        <ele>1003.27</ele>
        <time>2021-08-08T10:36:14Z</time>
      </trkpt>
      <trkpt lat="44.14734" lon="3.52626">
        <ele>1005.2</ele>
        <time>2021-08-08T10:36:28Z</time>
      </trkpt>
      <trkpt lat="44.14718" lon="3.52642">
        <ele>1007.12</ele>
        <time>2021-08-08T10:36:40Z</time>
      </trkpt>
      <trkpt lat="44.14699" lon="3.52663">
        <ele>1007.12</ele>
        <time>2021-08-08T10:36:53Z</time>
      </trkpt>
      <trkpt lat="44.14688" lon="3.52677">
        <ele>1007.12</ele>
        <time>2021-08-08T10:37:01Z</time>
      </trkpt>
      <trkpt lat="44.1466" lon="3.52686">
        <ele>1008.56</ele>
        <time>2021-08-08T10:37:14Z</time>
      </trkpt>
      <trkpt lat="44.14629" lon="3.52693">
        <ele>1009.04</ele>
        <time>2021-08-08T10:37:29Z</time>
      </trkpt>
      <trkpt lat="44.14592" lon="3.52685">
        <ele>1010.48</ele>
        <time>2021-08-08T10:37:46Z</time>
      </trkpt>
      <trkpt lat="44.14564" lon="3.52654">
        <ele>1012.89</ele>
        <time>2021-08-08T10:38:02Z</time>
      </trkpt>
      <trkpt lat="44.14543" lon="3.5261">
        <ele>1013.37</ele>
        <time>2021-08-08T10:38:18Z</time>
      </trkpt>
      <trkpt lat="44.14521" lon="3.52592">
        <ele>1015.77</ele>
        <time>2021-08-08T10:38:31Z</time>
      </trkpt>
      <trkpt lat="44.14516" lon="3.52626">
        <ele>1016.73</ele>
        <time>2021-08-08T10:38:43Z</time>
      </trkpt>
      <trkpt lat="44.14507" lon="3.52674">
        <ele>1017.21</ele>
        <time>2021-08-08T10:39:00Z</time>
      </trkpt>
      <trkpt lat="44.14491" lon="3.5272">
        <ele>1019.13</ele>
        <time>2021-08-08T10:39:18Z</time>
      </trkpt>
      <trkpt lat="44.14474" lon="3.52762">
        <ele>1020.58</ele>
        <time>2021-08-08T10:39:34Z</time>
      </trkpt>
      <trkpt lat="44.14466" lon="3.52804">
        <ele>1021.54</ele>
        <time>2021-08-08T10:39:49Z</time>
      </trkpt>
      <trkpt lat="44.14452" lon="3.52826">
        <ele>1021.54</ele>
        <time>2021-08-08T10:40:02Z</time>
      </trkpt>
      <trkpt lat="44.14426" lon="3.52823">
        <ele>1021.54</ele>
        <time>2021-08-08T10:40:15Z</time>
      </trkpt>
      <trkpt lat="44.14393" lon="3.52839">
        <ele>1022.5</ele>
        <time>2021-08-08T10:40:31Z</time>
      </trkpt>
      <trkpt lat="44.14369" lon="3.52867">
        <ele>1024.42</ele>
        <time>2021-08-08T10:40:45Z</time>
      </trkpt>
      <trkpt lat="44.14358" lon="3.52917">
        <ele>1025.86</ele>
        <time>2021-08-08T10:41:01Z</time>
      </trkpt>
      <trkpt lat="44.14352" lon="3.5295">
        <ele>1026.83</ele>
        <time>2021-08-08T10:41:13Z</time>
      </trkpt>
      <trkpt lat="44.14339" lon="3.52973">
        <ele>1027.79</ele>
        <time>2021-08-08T10:41:26Z</time>
      </trkpt>
      <trkpt lat="44.14334" lon="3.53004">
        <ele>1028.75</ele>
        <time>2021-08-08T10:41:38Z</time>
      </trkpt>
      <trkpt lat="44.14336" lon="3.53041">
        <ele>1028.75</ele>
        <time>2021-08-08T10:41:51Z</time>
      </trkpt>
      <trkpt lat="44.14338" lon="3.5308">
        <ele>1030.67</ele>
        <time>2021-08-08T10:42:05Z</time>
      </trkpt>
      <trkpt lat="44.14332" lon="3.53109">
        <ele>1031.63</ele>
        <time>2021-08-08T10:42:18Z</time>
      </trkpt>
      <trkpt lat="44.14328" lon="3.5311">
        <ele>1031.63</ele>
        <time>2021-08-08T10:42:21Z</time>
      </trkpt>
      <trkpt lat="44.14305" lon="3.53091">
        <ele>1032.11</ele>
        <time>2021-08-08T10:42:36Z</time>
      </trkpt>
      <trkpt lat="44.14302" lon="3.53087">
        <ele>1031.15</ele>
        <time>2021-08-08T10:42:47Z</time>
      </trkpt>
      <trkpt lat="44.14301" lon="3.53086">
        <ele>1030.67</ele>
        <time>2021-08-08T10:42:50Z</time>
      </trkpt>
      <trkpt lat="44.143" lon="3.53085">
        <ele>1030.67</ele>
        <time>2021-08-08T10:42:52Z</time>
      </trkpt>
      <trkpt lat="44.14275" lon="3.53073">
        <ele>1032.11</ele>
        <time>2021-08-08T10:43:06Z</time>
      </trkpt>
      <trkpt lat="44.14243" lon="3.53053">
        <ele>1033.55</ele>
        <time>2021-08-08T10:43:22Z</time>
      </trkpt>
      <trkpt lat="44.14213" lon="3.53046">
        <ele>1036.44</ele>
        <time>2021-08-08T10:43:36Z</time>
      </trkpt>
      <trkpt lat="44.14192" lon="3.53076">
        <ele>1037.88</ele>
        <time>2021-08-08T10:43:51Z</time>
      </trkpt>
      <trkpt lat="44.14198" lon="3.53121">
        <ele>1038.84</ele>
        <time>2021-08-08T10:44:06Z</time>
      </trkpt>
      <trkpt lat="44.14197" lon="3.53169">
        <ele>1039.8</ele>
        <time>2021-08-08T10:44:21Z</time>
      </trkpt>
      <trkpt lat="44.14192" lon="3.5322">
        <ele>1040.28</ele>
        <time>2021-08-08T10:44:35Z</time>
      </trkpt>
      <trkpt lat="44.14168" lon="3.53271">
        <ele>1040.28</ele>
        <time>2021-08-08T10:44:51Z</time>
      </trkpt>
      <trkpt lat="44.14138" lon="3.53328">
        <ele>1041.73</ele>
        <time>2021-08-08T10:45:10Z</time>
      </trkpt>
      <trkpt lat="44.14136" lon="3.53366">
        <ele>1042.21</ele>
        <time>2021-08-08T10:45:21Z</time>
      </trkpt>
      <trkpt lat="44.14112" lon="3.53374">
        <ele>1042.69</ele>
        <time>2021-08-08T10:45:31Z</time>
      </trkpt>
      <trkpt lat="44.14093" lon="3.53409">
        <ele>1042.69</ele>
        <time>2021-08-08T10:45:43Z</time>
      </trkpt>
      <trkpt lat="44.14094" lon="3.53471">
        <ele>1043.17</ele>
        <time>2021-08-08T10:46:00Z</time>
      </trkpt>
      <trkpt lat="44.14095" lon="3.53514">
        <ele>1043.65</ele>
        <time>2021-08-08T10:46:13Z</time>
      </trkpt>
      <trkpt lat="44.1409" lon="3.53523">
        <ele>1044.13</ele>
        <time>2021-08-08T10:46:26Z</time>
      </trkpt>
      <trkpt lat="44.14091" lon="3.53526">
        <ele>1044.13</ele>
        <time>2021-08-08T10:46:30Z</time>
      </trkpt>
      <trkpt lat="44.14091" lon="3.5353">
        <ele>1044.13</ele>
        <time>2021-08-08T10:46:32Z</time>
      </trkpt>
      <trkpt lat="44.1409" lon="3.53545">
        <ele>1044.61</ele>
        <time>2021-08-08T10:46:38Z</time>
      </trkpt>
      <trkpt lat="44.14072" lon="3.53555">
        <ele>1046.05</ele>
        <time>2021-08-08T10:46:51Z</time>
      </trkpt>
      <trkpt lat="44.14071" lon="3.53554">
        <ele>1046.05</ele>
        <time>2021-08-08T10:46:52Z</time>
      </trkpt>
      <trkpt lat="44.14063" lon="3.53529">
        <ele>1047.01</ele>
        <time>2021-08-08T10:47:01Z</time>
      </trkpt>
      <trkpt lat="44.14038" lon="3.53499">
        <ele>1048.45</ele>
        <time>2021-08-08T10:47:15Z</time>
      </trkpt>
      <trkpt lat="44.14009" lon="3.53495">
        <ele>1049.9</ele>
        <time>2021-08-08T10:47:27Z</time>
      </trkpt>
      <trkpt lat="44.13986" lon="3.5352">
        <ele>1051.34</ele>
        <time>2021-08-08T10:47:41Z</time>
      </trkpt>
      <trkpt lat="44.13962" lon="3.53539">
        <ele>1052.78</ele>
        <time>2021-08-08T10:47:55Z</time>
      </trkpt>
      <trkpt lat="44.1394" lon="3.5355">
        <ele>1054.7</ele>
        <time>2021-08-08T10:48:06Z</time>
      </trkpt>
      <trkpt lat="44.13914" lon="3.53572">
        <ele>1055.67</ele>
        <time>2021-08-08T10:48:20Z</time>
      </trkpt>
      <trkpt lat="44.13913" lon="3.53574">
        <ele>1055.67</ele>
        <time>2021-08-08T10:48:21Z</time>
      </trkpt>
      <trkpt lat="44.13899" lon="3.53608">
        <ele>1058.07</ele>
        <time>2021-08-08T10:48:34Z</time>
      </trkpt>
      <trkpt lat="44.13897" lon="3.53611">
        <ele>1058.07</ele>
        <time>2021-08-08T10:48:35Z</time>
      </trkpt>
      <trkpt lat="44.13894" lon="3.53643">
        <ele>1059.03</ele>
        <time>2021-08-08T10:48:47Z</time>
      </trkpt>
      <trkpt lat="44.1389" lon="3.53651">
        <ele>1059.51</ele>
        <time>2021-08-08T10:48:51Z</time>
      </trkpt>
      <trkpt lat="44.13886" lon="3.53667">
        <ele>1060.47</ele>
        <time>2021-08-08T10:48:57Z</time>
      </trkpt>
      <trkpt lat="44.13879" lon="3.53704">
        <ele>1061.91</ele>
        <time>2021-08-08T10:49:10Z</time>
      </trkpt>
      <trkpt lat="44.13861" lon="3.53736">
        <ele>1063.36</ele>
        <time>2021-08-08T10:49:23Z</time>
      </trkpt>
      <trkpt lat="44.13845" lon="3.53761">
        <ele>1064.32</ele>
        <time>2021-08-08T10:49:35Z</time>
      </trkpt>
      <trkpt lat="44.13825" lon="3.53789">
        <ele>1066.24</ele>
        <time>2021-08-08T10:49:49Z</time>
      </trkpt>
      <trkpt lat="44.13796" lon="3.53801">
        <ele>1067.68</ele>
        <time>2021-08-08T10:50:01Z</time>
      </trkpt>
      <trkpt lat="44.13774" lon="3.53819">
        <ele>1068.64</ele>
        <time>2021-08-08T10:50:13Z</time>
      </trkpt>
      <trkpt lat="44.13772" lon="3.53822">
        <ele>1069.12</ele>
        <time>2021-08-08T10:50:15Z</time>
      </trkpt>
      <trkpt lat="44.13749" lon="3.53842">
        <ele>1070.57</ele>
        <time>2021-08-08T10:50:28Z</time>
      </trkpt>
      <trkpt lat="44.13726" lon="3.53859">
        <ele>1071.53</ele>
        <time>2021-08-08T10:50:41Z</time>
      </trkpt>
      <trkpt lat="44.13698" lon="3.53875">
        <ele>1072.97</ele>
        <time>2021-08-08T10:50:53Z</time>
      </trkpt>
      <trkpt lat="44.13688" lon="3.53877">
        <ele>1073.45</ele>
        <time>2021-08-08T10:50:58Z</time>
      </trkpt>
      <trkpt lat="44.1368" lon="3.53881">
        <ele>1073.93</ele>
        <time>2021-08-08T10:51:02Z</time>
      </trkpt>
      <trkpt lat="44.13673" lon="3.53884">
        <ele>1075.37</ele>
        <time>2021-08-08T10:51:05Z</time>
      </trkpt>
      <trkpt lat="44.13664" lon="3.53895">
        <ele>1075.37</ele>
        <time>2021-08-08T10:51:11Z</time>
      </trkpt>
      <trkpt lat="44.13634" lon="3.53911">
        <ele>1076.81</ele>
        <time>2021-08-08T10:51:26Z</time>
      </trkpt>
      <trkpt lat="44.13601" lon="3.53914">
        <ele>1078.26</ele>
        <time>2021-08-08T10:51:38Z</time>
      </trkpt>
      <trkpt lat="44.13573" lon="3.53921">
        <ele>1079.7</ele>
        <time>2021-08-08T10:51:51Z</time>
      </trkpt>
      <trkpt lat="44.13545" lon="3.53926">
        <ele>1081.62</ele>
        <time>2021-08-08T10:52:05Z</time>
      </trkpt>
      <trkpt lat="44.13531" lon="3.53929">
        <ele>1082.1</ele>
        <time>2021-08-08T10:52:11Z</time>
      </trkpt>
      <trkpt lat="44.13502" lon="3.53938">
        <ele>1083.54</ele>
        <time>2021-08-08T10:52:26Z</time>
      </trkpt>
      <trkpt lat="44.13471" lon="3.53936">
        <ele>1084.99</ele>
        <time>2021-08-08T10:52:39Z</time>
      </trkpt>
      <trkpt lat="44.13448" lon="3.53951">
        <ele>1086.43</ele>
        <time>2021-08-08T10:52:51Z</time>
      </trkpt>
      <trkpt lat="44.13442" lon="3.5396">
        <ele>1086.91</ele>
        <time>2021-08-08T10:52:56Z</time>
      </trkpt>
      <trkpt lat="44.13419" lon="3.53986">
        <ele>1088.35</ele>
        <time>2021-08-08T10:53:10Z</time>
      </trkpt>
      <trkpt lat="44.13402" lon="3.54014">
        <ele>1090.27</ele>
        <time>2021-08-08T10:53:23Z</time>
      </trkpt>
      <trkpt lat="44.13385" lon="3.54033">
        <ele>1091.71</ele>
        <time>2021-08-08T10:53:34Z</time>
      </trkpt>
      <trkpt lat="44.13367" lon="3.54047">
        <ele>1092.68</ele>
        <time>2021-08-08T10:53:44Z</time>
      </trkpt>
      <trkpt lat="44.13358" lon="3.54052">
        <ele>1093.16</ele>
        <time>2021-08-08T10:53:48Z</time>
      </trkpt>
      <trkpt lat="44.13345" lon="3.54059">
        <ele>1093.64</ele>
        <time>2021-08-08T10:53:55Z</time>
      </trkpt>
      <trkpt lat="44.13315" lon="3.54071">
        <ele>1095.56</ele>
        <time>2021-08-08T10:54:08Z</time>
      </trkpt>
      <trkpt lat="44.13291" lon="3.54089">
        <ele>1096.04</ele>
        <time>2021-08-08T10:54:19Z</time>
      </trkpt>
      <trkpt lat="44.13288" lon="3.54094">
        <ele>1096.52</ele>
        <time>2021-08-08T10:54:21Z</time>
      </trkpt>
      <trkpt lat="44.1326" lon="3.54128">
        <ele>1097.96</ele>
        <time>2021-08-08T10:54:38Z</time>
      </trkpt>
      <trkpt lat="44.13248" lon="3.54141">
        <ele>1098.44</ele>
        <time>2021-08-08T10:54:45Z</time>
      </trkpt>
      <trkpt lat="44.13242" lon="3.54146">
        <ele>1098.92</ele>
        <time>2021-08-08T10:54:49Z</time>
      </trkpt>
      <trkpt lat="44.13213" lon="3.54159">
        <ele>1101.33</ele>
        <time>2021-08-08T10:55:05Z</time>
      </trkpt>
      <trkpt lat="44.13189" lon="3.54161">
        <ele>1102.29</ele>
        <time>2021-08-08T10:55:16Z</time>
      </trkpt>
      <trkpt lat="44.13178" lon="3.54162">
        <ele>1103.25</ele>
        <time>2021-08-08T10:55:21Z</time>
      </trkpt>
      <trkpt lat="44.13171" lon="3.54163">
        <ele>1103.73</ele>
        <time>2021-08-08T10:55:25Z</time>
      </trkpt>
      <trkpt lat="44.13147" lon="3.5416">
        <ele>1105.17</ele>
        <time>2021-08-08T10:55:38Z</time>
      </trkpt>
      <trkpt lat="44.1313" lon="3.54161">
        <ele>1105.65</ele>
        <time>2021-08-08T10:55:44Z</time>
      </trkpt>
      <trkpt lat="44.13104" lon="3.54174">
        <ele>1107.1</ele>
        <time>2021-08-08T10:55:56Z</time>
      </trkpt>
      <trkpt lat="44.13072" lon="3.54177">
        <ele>1109.02</ele>
        <time>2021-08-08T10:56:10Z</time>
      </trkpt>
      <trkpt lat="44.1305" lon="3.54191">
        <ele>1110.94</ele>
        <time>2021-08-08T10:56:21Z</time>
      </trkpt>
      <trkpt lat="44.13039" lon="3.54211">
        <ele>1111.9</ele>
        <time>2021-08-08T10:56:30Z</time>
      </trkpt>
      <trkpt lat="44.13011" lon="3.54223">
        <ele>1113.82</ele>
        <time>2021-08-08T10:56:44Z</time>
      </trkpt>
      <trkpt lat="44.12986" lon="3.54232">
        <ele>1114.79</ele>
        <time>2021-08-08T10:56:55Z</time>
      </trkpt>
      <trkpt lat="44.1297" lon="3.54247">
        <ele>1116.23</ele>
        <time>2021-08-08T10:57:05Z</time>
      </trkpt>
      <trkpt lat="44.12951" lon="3.54278">
        <ele>1117.67</ele>
        <time>2021-08-08T10:57:18Z</time>
      </trkpt>
      <trkpt lat="44.12937" lon="3.54312">
        <ele>1119.11</ele>
        <time>2021-08-08T10:57:30Z</time>
      </trkpt>
      <trkpt lat="44.1292" lon="3.54345">
        <ele>1121.03</ele>
        <time>2021-08-08T10:57:43Z</time>
      </trkpt>
      <trkpt lat="44.12918" lon="3.54351">
        <ele>1121.52</ele>
        <time>2021-08-08T10:57:45Z</time>
      </trkpt>
      <trkpt lat="44.12906" lon="3.54377">
        <ele>1122.48</ele>
        <time>2021-08-08T10:57:57Z</time>
      </trkpt>
      <trkpt lat="44.12902" lon="3.54388">
        <ele>1122.96</ele>
        <time>2021-08-08T10:58:01Z</time>
      </trkpt>
      <trkpt lat="44.12893" lon="3.54409">
        <ele>1123.92</ele>
        <time>2021-08-08T10:58:10Z</time>
      </trkpt>
      <trkpt lat="44.12882" lon="3.54416">
        <ele>1124.4</ele>
        <time>2021-08-08T10:58:15Z</time>
      </trkpt>
      <trkpt lat="44.12857" lon="3.54428">
        <ele>1125.36</ele>
        <time>2021-08-08T10:58:27Z</time>
      </trkpt>
      <trkpt lat="44.12844" lon="3.54434">
        <ele>1125.84</ele>
        <time>2021-08-08T10:58:32Z</time>
      </trkpt>
      <trkpt lat="44.1284" lon="3.54435">
        <ele>1126.32</ele>
        <time>2021-08-08T10:58:34Z</time>
      </trkpt>
      <trkpt lat="44.12835" lon="3.54437">
        <ele>1125.84</ele>
        <time>2021-08-08T10:58:38Z</time>
      </trkpt>
      <trkpt lat="44.12821" lon="3.5444">
        <ele>1125.84</ele>
        <time>2021-08-08T10:58:51Z</time>
      </trkpt>
      <trkpt lat="44.12821" lon="3.54439">
        <ele>1125.36</ele>
        <time>2021-08-08T10:59:10Z</time>
      </trkpt>
      <trkpt lat="44.12822" lon="3.5444">
        <ele>1125.84</ele>
        <time>2021-08-08T10:59:24Z</time>
      </trkpt>
      <trkpt lat="44.12821" lon="3.5444">
        <ele>1125.84</ele>
        <time>2021-08-08T10:59:37Z</time>
      </trkpt>
      <trkpt lat="44.12822" lon="3.5444">
        <ele>1125.84</ele>
        <time>2021-08-08T11:00:06Z</time>
      </trkpt>
      <trkpt lat="44.12821" lon="3.5444">
        <ele>1125.36</ele>
        <time>2021-08-08T11:00:34Z</time>
      </trkpt>
      <trkpt lat="44.1282" lon="3.54439">
        <ele>1125.84</ele>
        <time>2021-08-08T11:01:02Z</time>
      </trkpt>
      <trkpt lat="44.1282" lon="3.54439">
        <ele>1125.84</ele>
        <time>2021-08-08T11:01:19Z</time>
      </trkpt>
      <trkpt lat="44.1282" lon="3.54439">
        <ele>1125.84</ele>
        <time>2021-08-08T11:01:31Z</time>
      </trkpt>
      <trkpt lat="44.1282" lon="3.54439">
        <ele>1126.32</ele>
        <time>2021-08-08T11:01:50Z</time>
      </trkpt>
      <trkpt lat="44.12819" lon="3.54439">
        <ele>1126.8</ele>
        <time>2021-08-08T11:02:14Z</time>
      </trkpt>
      <trkpt lat="44.12818" lon="3.54438">
        <ele>1125.84</ele>
        <time>2021-08-08T11:02:32Z</time>
      </trkpt>
      <trkpt lat="44.12819" lon="3.54439">
        <ele>1126.32</ele>
        <time>2021-08-08T11:02:53Z</time>
      </trkpt>
      <trkpt lat="44.12819" lon="3.54438">
        <ele>1126.8</ele>
        <time>2021-08-08T11:03:05Z</time>
      </trkpt>
      <trkpt lat="44.12819" lon="3.54433">
        <ele>1126.8</ele>
        <time>2021-08-08T11:03:12Z</time>
      </trkpt>
      <trkpt lat="44.1284" lon="3.54435">
        <ele>1127.28</ele>
        <time>2021-08-08T11:03:21Z</time>
      </trkpt>
      <trkpt lat="44.12866" lon="3.54416">
        <ele>1129.21</ele>
        <time>2021-08-08T11:03:35Z</time>
      </trkpt>
      <trkpt lat="44.12868" lon="3.54363">
        <ele>1129.69</ele>
        <time>2021-08-08T11:03:47Z</time>
      </trkpt>
      <trkpt lat="44.12872" lon="3.54324">
        <ele>1131.13</ele>
        <time>2021-08-08T11:03:59Z</time>
      </trkpt>
      <trkpt lat="44.12873" lon="3.5427">
        <ele>1132.09</ele>
        <time>2021-08-08T11:04:13Z</time>
      </trkpt>
      <trkpt lat="44.1289" lon="3.54234">
        <ele>1133.05</ele>
        <time>2021-08-08T11:04:26Z</time>
      </trkpt>
      <trkpt lat="44.12894" lon="3.54228">
        <ele>1133.53</ele>
        <time>2021-08-08T11:04:29Z</time>
      </trkpt>
      <trkpt lat="44.12913" lon="3.54207">
        <ele>1134.49</ele>
        <time>2021-08-08T11:04:40Z</time>
      </trkpt>
      <trkpt lat="44.1293" lon="3.54182">
        <ele>1136.42</ele>
        <time>2021-08-08T11:04:51Z</time>
      </trkpt>
      <trkpt lat="44.12946" lon="3.54157">
        <ele>1137.38</ele>
        <time>2021-08-08T11:05:02Z</time>
      </trkpt>
      <trkpt lat="44.12962" lon="3.54129">
        <ele>1137.86</ele>
        <time>2021-08-08T11:05:14Z</time>
      </trkpt>
      <trkpt lat="44.12964" lon="3.54124">
        <ele>1138.34</ele>
        <time>2021-08-08T11:05:16Z</time>
      </trkpt>
      <trkpt lat="44.12983" lon="3.54091">
        <ele>1139.3</ele>
        <time>2021-08-08T11:05:29Z</time>
      </trkpt>
      <trkpt lat="44.12985" lon="3.54088">
        <ele>1139.78</ele>
        <time>2021-08-08T11:05:30Z</time>
      </trkpt>
      <trkpt lat="44.13012" lon="3.54046">
        <ele>1141.7</ele>
        <time>2021-08-08T11:05:46Z</time>
      </trkpt>
      <trkpt lat="44.13035" lon="3.54024">
        <ele>1143.14</ele>
        <time>2021-08-08T11:05:57Z</time>
      </trkpt>
      <trkpt lat="44.13075" lon="3.54001">
        <ele>1145.07</ele>
        <time>2021-08-08T11:06:11Z</time>
      </trkpt>
      <trkpt lat="44.13096" lon="3.53969">
        <ele>1146.99</ele>
        <time>2021-08-08T11:06:23Z</time>
      </trkpt>
      <trkpt lat="44.13114" lon="3.53934">
        <ele>1147.47</ele>
        <time>2021-08-08T11:06:35Z</time>
      </trkpt>
      <trkpt lat="44.13137" lon="3.53902">
        <ele>1149.39</ele>
        <time>2021-08-08T11:06:48Z</time>
      </trkpt>
      <trkpt lat="44.1316" lon="3.53864">
        <ele>1150.84</ele>
        <time>2021-08-08T11:07:00Z</time>
      </trkpt>
      <trkpt lat="44.13178" lon="3.53852">
        <ele>1151.8</ele>
        <time>2021-08-08T11:07:06Z</time>
      </trkpt>
      <trkpt lat="44.13193" lon="3.5387">
        <ele>1152.76</ele>
        <time>2021-08-08T11:07:13Z</time>
      </trkpt>
      <trkpt lat="44.13211" lon="3.53893">
        <ele>1154.68</ele>
        <time>2021-08-08T11:07:23Z</time>
      </trkpt>
      <trkpt lat="44.13232" lon="3.53883">
        <ele>1155.64</ele>
        <time>2021-08-08T11:07:32Z</time>
      </trkpt>
      <trkpt lat="44.13256" lon="3.53849">
        <ele>1157.08</ele>
        <time>2021-08-08T11:07:46Z</time>
      </trkpt>
      <trkpt lat="44.13276" lon="3.53812">
        <ele>1158.05</ele>
        <time>2021-08-08T11:07:59Z</time>
      </trkpt>
      <trkpt lat="44.13294" lon="3.53772">
        <ele>1159.01</ele>
        <time>2021-08-08T11:08:12Z</time>
      </trkpt>
      <trkpt lat="44.13317" lon="3.53731">
        <ele>1160.45</ele>
        <time>2021-08-08T11:08:26Z</time>
      </trkpt>
      <trkpt lat="44.13331" lon="3.53686">
        <ele>1162.37</ele>
        <time>2021-08-08T11:08:40Z</time>
      </trkpt>
      <trkpt lat="44.13351" lon="3.53661">
        <ele>1163.33</ele>
        <time>2021-08-08T11:08:51Z</time>
      </trkpt>
      <trkpt lat="44.13381" lon="3.53645">
        <ele>1164.77</ele>
        <time>2021-08-08T11:09:03Z</time>
      </trkpt>
      <trkpt lat="44.13415" lon="3.53629">
        <ele>1166.7</ele>
        <time>2021-08-08T11:09:16Z</time>
      </trkpt>
      <trkpt lat="44.1345" lon="3.53625">
        <ele>1168.62</ele>
        <time>2021-08-08T11:09:30Z</time>
      </trkpt>
      <trkpt lat="44.13487" lon="3.53623">
        <ele>1170.06</ele>
        <time>2021-08-08T11:09:44Z</time>
      </trkpt>
      <trkpt lat="44.13517" lon="3.53614">
        <ele>1171.5</ele>
        <time>2021-08-08T11:09:56Z</time>
      </trkpt>
      <trkpt lat="44.13546" lon="3.53599">
        <ele>1172.95</ele>
        <time>2021-08-08T11:10:08Z</time>
      </trkpt>
      <trkpt lat="44.13578" lon="3.53564">
        <ele>1174.39</ele>
        <time>2021-08-08T11:10:22Z</time>
      </trkpt>
      <trkpt lat="44.13603" lon="3.53523">
        <ele>1175.83</ele>
        <time>2021-08-08T11:10:36Z</time>
      </trkpt>
      <trkpt lat="44.13606" lon="3.53487">
        <ele>1176.31</ele>
        <time>2021-08-08T11:10:46Z</time>
      </trkpt>
      <trkpt lat="44.1359" lon="3.53447">
        <ele>1177.75</ele>
        <time>2021-08-08T11:10:59Z</time>
      </trkpt>
      <trkpt lat="44.13586" lon="3.53442">
        <ele>1177.75</ele>
        <time>2021-08-08T11:11:01Z</time>
      </trkpt>
      <trkpt lat="44.13571" lon="3.53399">
        <ele>1179.67</ele>
        <time>2021-08-08T11:11:14Z</time>
      </trkpt>
      <trkpt lat="44.13568" lon="3.53372">
        <ele>1180.16</ele>
        <time>2021-08-08T11:11:21Z</time>
      </trkpt>
      <trkpt lat="44.13574" lon="3.53355">
        <ele>1180.64</ele>
        <time>2021-08-08T11:11:26Z</time>
      </trkpt>
      <trkpt lat="44.13592" lon="3.53319">
        <ele>1183.04</ele>
        <time>2021-08-08T11:11:39Z</time>
      </trkpt>
      <trkpt lat="44.13614" lon="3.53297">
        <ele>1184.48</ele>
        <time>2021-08-08T11:11:50Z</time>
      </trkpt>
      <trkpt lat="44.1364" lon="3.5327">
        <ele>1185.92</ele>
        <time>2021-08-08T11:12:03Z</time>
      </trkpt>
      <trkpt lat="44.13661" lon="3.53236">
        <ele>1187.85</ele>
        <time>2021-08-08T11:12:16Z</time>
      </trkpt>
      <trkpt lat="44.13685" lon="3.53191">
        <ele>1189.29</ele>
        <time>2021-08-08T11:12:30Z</time>
      </trkpt>
      <trkpt lat="44.13687" lon="3.53157">
        <ele>1190.25</ele>
        <time>2021-08-08T11:12:39Z</time>
      </trkpt>
      <trkpt lat="44.13682" lon="3.53145">
        <ele>1190.73</ele>
        <time>2021-08-08T11:12:43Z</time>
      </trkpt>
      <trkpt lat="44.13668" lon="3.53103">
        <ele>1191.69</ele>
        <time>2021-08-08T11:12:56Z</time>
      </trkpt>
      <trkpt lat="44.13645" lon="3.53063">
        <ele>1193.61</ele>
        <time>2021-08-08T11:13:10Z</time>
      </trkpt>
      <trkpt lat="44.1362" lon="3.5303">
        <ele>1195.06</ele>
        <time>2021-08-08T11:13:23Z</time>
      </trkpt>
      <trkpt lat="44.13599" lon="3.52999">
        <ele>1196.5</ele>
        <time>2021-08-08T11:13:35Z</time>
      </trkpt>
      <trkpt lat="44.13582" lon="3.52971">
        <ele>1197.94</ele>
        <time>2021-08-08T11:13:46Z</time>
      </trkpt>
      <trkpt lat="44.13558" lon="3.5293">
        <ele>1199.86</ele>
        <time>2021-08-08T11:14:00Z</time>
      </trkpt>
      <trkpt lat="44.13553" lon="3.5292">
        <ele>1200.34</ele>
        <time>2021-08-08T11:14:03Z</time>
      </trkpt>
      <trkpt lat="44.13548" lon="3.52905">
        <ele>1200.82</ele>
        <time>2021-08-08T11:14:08Z</time>
      </trkpt>
      <trkpt lat="44.13534" lon="3.52865">
        <ele>1201.79</ele>
        <time>2021-08-08T11:14:20Z</time>
      </trkpt>
      <trkpt lat="44.13517" lon="3.52829">
        <ele>1203.23</ele>
        <time>2021-08-08T11:14:32Z</time>
      </trkpt>
      <trkpt lat="44.13506" lon="3.52797">
        <ele>1204.67</ele>
        <time>2021-08-08T11:14:43Z</time>
      </trkpt>
      <trkpt lat="44.13498" lon="3.52796">
        <ele>1204.67</ele>
        <time>2021-08-08T11:14:55Z</time>
      </trkpt>
      <trkpt lat="44.13497" lon="3.52797">
        <ele>1205.15</ele>
        <time>2021-08-08T11:15:08Z</time>
      </trkpt>
      <trkpt lat="44.13497" lon="3.52795">
        <ele>1205.63</ele>
        <time>2021-08-08T11:15:26Z</time>
      </trkpt>
      <trkpt lat="44.13497" lon="3.52794">
        <ele>1204.67</ele>
        <time>2021-08-08T11:15:38Z</time>
      </trkpt>
      <trkpt lat="44.13498" lon="3.52793">
        <ele>1204.67</ele>
        <time>2021-08-08T11:15:59Z</time>
      </trkpt>
      <trkpt lat="44.13499" lon="3.52792">
        <ele>1204.67</ele>
        <time>2021-08-08T11:16:27Z</time>
      </trkpt>
      <trkpt lat="44.13499" lon="3.52792">
        <ele>1205.15</ele>
        <time>2021-08-08T11:16:59Z</time>
      </trkpt>
      <trkpt lat="44.13499" lon="3.52791">
        <ele>1205.15</ele>
        <time>2021-08-08T11:17:27Z</time>
      </trkpt>
      <trkpt lat="44.135" lon="3.52791">
        <ele>1205.63</ele>
        <time>2021-08-08T11:17:46Z</time>
      </trkpt>
      <trkpt lat="44.135" lon="3.5279">
        <ele>1206.11</ele>
        <time>2021-08-08T11:18:09Z</time>
      </trkpt>
      <trkpt lat="44.13499" lon="3.5279">
        <ele>1206.11</ele>
        <time>2021-08-08T11:18:21Z</time>
      </trkpt>
      <trkpt lat="44.13497" lon="3.52792">
        <ele>1206.59</ele>
        <time>2021-08-08T11:18:41Z</time>
      </trkpt>
      <trkpt lat="44.13497" lon="3.52799">
        <ele>1206.59</ele>
        <time>2021-08-08T11:18:49Z</time>
      </trkpt>
      <trkpt lat="44.135" lon="3.52811">
        <ele>1207.55</ele>
        <time>2021-08-08T11:18:55Z</time>
      </trkpt>
      <trkpt lat="44.13505" lon="3.52824">
        <ele>1209</ele>
        <time>2021-08-08T11:19:08Z</time>
      </trkpt>
      <trkpt lat="44.13506" lon="3.52824">
        <ele>1208.51</ele>
        <time>2021-08-08T11:19:12Z</time>
      </trkpt>
      <trkpt lat="44.13507" lon="3.52826">
        <ele>1208.51</ele>
        <time>2021-08-08T11:19:14Z</time>
      </trkpt>
      <trkpt lat="44.13512" lon="3.52836">
        <ele>1209</ele>
        <time>2021-08-08T11:19:19Z</time>
      </trkpt>
      <trkpt lat="44.13518" lon="3.5286">
        <ele>1210.44</ele>
        <time>2021-08-08T11:19:29Z</time>
      </trkpt>
      <trkpt lat="44.13524" lon="3.52894">
        <ele>1211.88</ele>
        <time>2021-08-08T11:19:39Z</time>
      </trkpt>
      <trkpt lat="44.1353" lon="3.52914">
        <ele>1212.84</ele>
        <time>2021-08-08T11:19:46Z</time>
      </trkpt>
      <trkpt lat="44.13549" lon="3.52956">
        <ele>1214.76</ele>
        <time>2021-08-08T11:20:00Z</time>
      </trkpt>
      <trkpt lat="44.13561" lon="3.52989">
        <ele>1215.72</ele>
        <time>2021-08-08T11:20:11Z</time>
      </trkpt>
      <trkpt lat="44.13566" lon="3.53">
        <ele>1216.69</ele>
        <time>2021-08-08T11:20:15Z</time>
      </trkpt>
      <trkpt lat="44.13574" lon="3.53016">
        <ele>1217.65</ele>
        <time>2021-08-08T11:20:20Z</time>
      </trkpt>
      <trkpt lat="44.13589" lon="3.53055">
        <ele>1219.57</ele>
        <time>2021-08-08T11:20:33Z</time>
      </trkpt>
      <trkpt lat="44.13601" lon="3.53086">
        <ele>1221.01</ele>
        <time>2021-08-08T11:20:42Z</time>
      </trkpt>
      <trkpt lat="44.13608" lon="3.53133">
        <ele>1222.93</ele>
        <time>2021-08-08T11:20:55Z</time>
      </trkpt>
      <trkpt lat="44.136" lon="3.53185">
        <ele>1226.78</ele>
        <time>2021-08-08T11:21:09Z</time>
      </trkpt>
      <trkpt lat="44.13584" lon="3.53212">
        <ele>1228.22</ele>
        <time>2021-08-08T11:21:21Z</time>
      </trkpt>
      <trkpt lat="44.13559" lon="3.53226">
        <ele>1229.18</ele>
        <time>2021-08-08T11:21:33Z</time>
      </trkpt>
      <trkpt lat="44.13539" lon="3.53237">
        <ele>1230.62</ele>
        <time>2021-08-08T11:21:44Z</time>
      </trkpt>
      <trkpt lat="44.13537" lon="3.53239">
        <ele>1230.62</ele>
        <time>2021-08-08T11:21:45Z</time>
      </trkpt>
      <trkpt lat="44.13509" lon="3.53255">
        <ele>1233.03</ele>
        <time>2021-08-08T11:21:58Z</time>
      </trkpt>
      <trkpt lat="44.13486" lon="3.53285">
        <ele>1234.95</ele>
        <time>2021-08-08T11:22:11Z</time>
      </trkpt>
      <trkpt lat="44.13485" lon="3.53287">
        <ele>1234.95</ele>
        <time>2021-08-08T11:22:12Z</time>
      </trkpt>
      <trkpt lat="44.13478" lon="3.53295">
        <ele>1235.91</ele>
        <time>2021-08-08T11:22:17Z</time>
      </trkpt>
      <trkpt lat="44.13465" lon="3.53338">
        <ele>1237.83</ele>
        <time>2021-08-08T11:22:32Z</time>
      </trkpt>
      <trkpt lat="44.13461" lon="3.53375">
        <ele>1239.28</ele>
        <time>2021-08-08T11:22:44Z</time>
      </trkpt>
      <trkpt lat="44.13461" lon="3.53384">
        <ele>1239.76</ele>
        <time>2021-08-08T11:22:47Z</time>
      </trkpt>
      <trkpt lat="44.13455" lon="3.53407">
        <ele>1240.72</ele>
        <time>2021-08-08T11:22:55Z</time>
      </trkpt>
      <trkpt lat="44.13433" lon="3.53444">
        <ele>1243.12</ele>
        <time>2021-08-08T11:23:11Z</time>
      </trkpt>
      <trkpt lat="44.13416" lon="3.53453">
        <ele>1244.08</ele>
        <time>2021-08-08T11:23:19Z</time>
      </trkpt>
      <trkpt lat="44.13386" lon="3.5346">
        <ele>1246.01</ele>
        <time>2021-08-08T11:23:32Z</time>
      </trkpt>
      <trkpt lat="44.13359" lon="3.5346">
        <ele>1248.89</ele>
        <time>2021-08-08T11:23:44Z</time>
      </trkpt>
      <trkpt lat="44.13333" lon="3.53452">
        <ele>1249.85</ele>
        <time>2021-08-08T11:23:57Z</time>
      </trkpt>
      <trkpt lat="44.13322" lon="3.53449">
        <ele>1250.81</ele>
        <time>2021-08-08T11:24:03Z</time>
      </trkpt>
      <trkpt lat="44.13314" lon="3.53447">
        <ele>1250.81</ele>
        <time>2021-08-08T11:24:06Z</time>
      </trkpt>
      <trkpt lat="44.13288" lon="3.53455">
        <ele>1253.22</ele>
        <time>2021-08-08T11:24:19Z</time>
      </trkpt>
      <trkpt lat="44.13263" lon="3.53467">
        <ele>1255.14</ele>
        <time>2021-08-08T11:24:31Z</time>
      </trkpt>
      <trkpt lat="44.13233" lon="3.53484">
        <ele>1256.58</ele>
        <time>2021-08-08T11:24:45Z</time>
      </trkpt>
      <trkpt lat="44.13205" lon="3.53502">
        <ele>1258.02</ele>
        <time>2021-08-08T11:24:58Z</time>
      </trkpt>
      <trkpt lat="44.13178" lon="3.53511">
        <ele>1259.46</ele>
        <time>2021-08-08T11:25:10Z</time>
      </trkpt>
      <trkpt lat="44.13153" lon="3.53507">
        <ele>1260.91</ele>
        <time>2021-08-08T11:25:21Z</time>
      </trkpt>
      <trkpt lat="44.13125" lon="3.535">
        <ele>1262.35</ele>
        <time>2021-08-08T11:25:33Z</time>
      </trkpt>
      <trkpt lat="44.13099" lon="3.53489">
        <ele>1264.27</ele>
        <time>2021-08-08T11:25:44Z</time>
      </trkpt>
      <trkpt lat="44.13074" lon="3.53485">
        <ele>1265.71</ele>
        <time>2021-08-08T11:25:56Z</time>
      </trkpt>
      <trkpt lat="44.13048" lon="3.53492">
        <ele>1267.16</ele>
        <time>2021-08-08T11:26:08Z</time>
      </trkpt>
      <trkpt lat="44.13026" lon="3.53498">
        <ele>1269.08</ele>
        <time>2021-08-08T11:26:19Z</time>
      </trkpt>
      <trkpt lat="44.12996" lon="3.53498">
        <ele>1271</ele>
        <time>2021-08-08T11:26:32Z</time>
      </trkpt>
      <trkpt lat="44.12965" lon="3.53501">
        <ele>1272.92</ele>
        <time>2021-08-08T11:26:45Z</time>
      </trkpt>
      <trkpt lat="44.12933" lon="3.53494">
        <ele>1274.36</ele>
        <time>2021-08-08T11:26:58Z</time>
      </trkpt>
      <trkpt lat="44.12931" lon="3.53493">
        <ele>1274.85</ele>
        <time>2021-08-08T11:26:59Z</time>
      </trkpt>
      <trkpt lat="44.12924" lon="3.53491">
        <ele>1275.33</ele>
        <time>2021-08-08T11:27:03Z</time>
      </trkpt>
      <trkpt lat="44.12898" lon="3.5348">
        <ele>1277.25</ele>
        <time>2021-08-08T11:27:15Z</time>
      </trkpt>
      <trkpt lat="44.12873" lon="3.53468">
        <ele>1278.21</ele>
        <time>2021-08-08T11:27:25Z</time>
      </trkpt>
      <trkpt lat="44.12841" lon="3.5346">
        <ele>1279.65</ele>
        <time>2021-08-08T11:27:37Z</time>
      </trkpt>
      <trkpt lat="44.12824" lon="3.53472">
        <ele>1280.61</ele>
        <time>2021-08-08T11:27:47Z</time>
      </trkpt>
      <trkpt lat="44.12828" lon="3.5351">
        <ele>1280.61</ele>
        <time>2021-08-08T11:27:59Z</time>
      </trkpt>
      <trkpt lat="44.12841" lon="3.53532">
        <ele>1281.57</ele>
        <time>2021-08-08T11:28:08Z</time>
      </trkpt>
      <trkpt lat="44.12845" lon="3.53547">
        <ele>1282.06</ele>
        <time>2021-08-08T11:28:14Z</time>
      </trkpt>
      <trkpt lat="44.12853" lon="3.53578">
        <ele>1283.5</ele>
        <time>2021-08-08T11:28:27Z</time>
      </trkpt>
      <trkpt lat="44.12858" lon="3.53593">
        <ele>1284.46</ele>
        <time>2021-08-08T11:28:33Z</time>
      </trkpt>
      <trkpt lat="44.12861" lon="3.53601">
        <ele>1284.94</ele>
        <time>2021-08-08T11:28:36Z</time>
      </trkpt>
      <trkpt lat="44.12886" lon="3.5364">
        <ele>1286.38</ele>
        <time>2021-08-08T11:28:51Z</time>
      </trkpt>
      <trkpt lat="44.12898" lon="3.53676">
        <ele>1288.3</ele>
        <time>2021-08-08T11:29:03Z</time>
      </trkpt>
      <trkpt lat="44.12898" lon="3.5371">
        <ele>1290.23</ele>
        <time>2021-08-08T11:29:12Z</time>
      </trkpt>
      <trkpt lat="44.12879" lon="3.53746">
        <ele>1292.15</ele>
        <time>2021-08-08T11:29:26Z</time>
      </trkpt>
      <trkpt lat="44.12854" lon="3.53774">
        <ele>1293.59</ele>
        <time>2021-08-08T11:29:40Z</time>
      </trkpt>
      <trkpt lat="44.12827" lon="3.53809">
        <ele>1294.55</ele>
        <time>2021-08-08T11:29:54Z</time>
      </trkpt>
      <trkpt lat="44.12805" lon="3.53839">
        <ele>1295.99</ele>
        <time>2021-08-08T11:30:06Z</time>
      </trkpt>
      <trkpt lat="44.12776" lon="3.53872">
        <ele>1298.4</ele>
        <time>2021-08-08T11:30:20Z</time>
      </trkpt>
      <trkpt lat="44.12769" lon="3.53877">
        <ele>1298.88</ele>
        <time>2021-08-08T11:30:23Z</time>
      </trkpt>
      <trkpt lat="44.12743" lon="3.53894">
        <ele>1300.32</ele>
        <time>2021-08-08T11:30:35Z</time>
      </trkpt>
      <trkpt lat="44.12718" lon="3.53915">
        <ele>1302.24</ele>
        <time>2021-08-08T11:30:48Z</time>
      </trkpt>
      <trkpt lat="44.12694" lon="3.53929">
        <ele>1304.17</ele>
        <time>2021-08-08T11:31:01Z</time>
      </trkpt>
      <trkpt lat="44.12681" lon="3.5394">
        <ele>1305.13</ele>
        <time>2021-08-08T11:31:09Z</time>
      </trkpt>
      <trkpt lat="44.12653" lon="3.53963">
        <ele>1306.57</ele>
        <time>2021-08-08T11:31:25Z</time>
      </trkpt>
      <trkpt lat="44.1263" lon="3.53991">
        <ele>1308.01</ele>
        <time>2021-08-08T11:31:38Z</time>
      </trkpt>
      <trkpt lat="44.12625" lon="3.54004">
        <ele>1308.97</ele>
        <time>2021-08-08T11:31:43Z</time>
      </trkpt>
      <trkpt lat="44.12622" lon="3.54051">
        <ele>1310.41</ele>
        <time>2021-08-08T11:31:59Z</time>
      </trkpt>
      <trkpt lat="44.12605" lon="3.54085">
        <ele>1312.34</ele>
        <time>2021-08-08T11:32:11Z</time>
      </trkpt>
      <trkpt lat="44.12575" lon="3.54114">
        <ele>1314.26</ele>
        <time>2021-08-08T11:32:25Z</time>
      </trkpt>
      <trkpt lat="44.12558" lon="3.54124">
        <ele>1314.26</ele>
        <time>2021-08-08T11:32:32Z</time>
      </trkpt>
      <trkpt lat="44.12528" lon="3.5414">
        <ele>1315.7</ele>
        <time>2021-08-08T11:32:45Z</time>
      </trkpt>
      <trkpt lat="44.12523" lon="3.54142">
        <ele>1316.18</ele>
        <time>2021-08-08T11:32:48Z</time>
      </trkpt>
      <trkpt lat="44.12512" lon="3.54144">
        <ele>1317.62</ele>
        <time>2021-08-08T11:32:52Z</time>
      </trkpt>
      <trkpt lat="44.12477" lon="3.54139">
        <ele>1318.59</ele>
        <time>2021-08-08T11:33:05Z</time>
      </trkpt>
      <trkpt lat="44.12438" lon="3.54102">
        <ele>1318.59</ele>
        <time>2021-08-08T11:33:18Z</time>
      </trkpt>
      <trkpt lat="44.12425" lon="3.54104">
        <ele>1319.07</ele>
        <time>2021-08-08T11:33:22Z</time>
      </trkpt>
      <trkpt lat="44.12418" lon="3.54122">
        <ele>1320.03</ele>
        <time>2021-08-08T11:33:29Z</time>
      </trkpt>
      <trkpt lat="44.12413" lon="3.54159">
        <ele>1320.51</ele>
        <time>2021-08-08T11:33:41Z</time>
      </trkpt>
      <trkpt lat="44.12406" lon="3.54193">
        <ele>1322.43</ele>
        <time>2021-08-08T11:33:52Z</time>
      </trkpt>
      <trkpt lat="44.12389" lon="3.54237">
        <ele>1324.35</ele>
        <time>2021-08-08T11:34:06Z</time>
      </trkpt>
      <trkpt lat="44.12365" lon="3.54275">
        <ele>1325.8</ele>
        <time>2021-08-08T11:34:21Z</time>
      </trkpt>
      <trkpt lat="44.12336" lon="3.54303">
        <ele>1327.72</ele>
        <time>2021-08-08T11:34:36Z</time>
      </trkpt>
      <trkpt lat="44.12314" lon="3.54314">
        <ele>1329.16</ele>
        <time>2021-08-08T11:34:47Z</time>
      </trkpt>
      <trkpt lat="44.12302" lon="3.54328">
        <ele>1330.12</ele>
        <time>2021-08-08T11:34:55Z</time>
      </trkpt>
      <trkpt lat="44.12292" lon="3.54371">
        <ele>1333.01</ele>
        <time>2021-08-08T11:35:10Z</time>
      </trkpt>
      <trkpt lat="44.12278" lon="3.54408">
        <ele>1333.97</ele>
        <time>2021-08-08T11:35:23Z</time>
      </trkpt>
      <trkpt lat="44.12256" lon="3.54446">
        <ele>1335.89</ele>
        <time>2021-08-08T11:35:37Z</time>
      </trkpt>
      <trkpt lat="44.12234" lon="3.54466">
        <ele>1337.33</ele>
        <time>2021-08-08T11:35:48Z</time>
      </trkpt>
      <trkpt lat="44.12206" lon="3.54479">
        <ele>1339.25</ele>
        <time>2021-08-08T11:36:01Z</time>
      </trkpt>
      <trkpt lat="44.12176" lon="3.54483">
        <ele>1341.18</ele>
        <time>2021-08-08T11:36:14Z</time>
      </trkpt>
      <trkpt lat="44.1215" lon="3.54488">
        <ele>1342.62</ele>
        <time>2021-08-08T11:36:25Z</time>
      </trkpt>
      <trkpt lat="44.1212" lon="3.5449">
        <ele>1344.06</ele>
        <time>2021-08-08T11:36:38Z</time>
      </trkpt>
      <trkpt lat="44.12091" lon="3.54469">
        <ele>1345.5</ele>
        <time>2021-08-08T11:36:52Z</time>
      </trkpt>
      <trkpt lat="44.12089" lon="3.54468">
        <ele>1345.5</ele>
        <time>2021-08-08T11:36:53Z</time>
      </trkpt>
      <trkpt lat="44.12066" lon="3.54451">
        <ele>1346.94</ele>
        <time>2021-08-08T11:37:05Z</time>
      </trkpt>
      <trkpt lat="44.12047" lon="3.54454">
        <ele>1348.39</ele>
        <time>2021-08-08T11:37:14Z</time>
      </trkpt>
      <trkpt lat="44.12039" lon="3.54483">
        <ele>1350.31</ele>
        <time>2021-08-08T11:37:27Z</time>
      </trkpt>
      <trkpt lat="44.12041" lon="3.54522">
        <ele>1352.23</ele>
        <time>2021-08-08T11:37:42Z</time>
      </trkpt>
      <trkpt lat="44.1204" lon="3.54526">
        <ele>1352.71</ele>
        <time>2021-08-08T11:37:44Z</time>
      </trkpt>
      <trkpt lat="44.12039" lon="3.5454">
        <ele>1353.19</ele>
        <time>2021-08-08T11:37:50Z</time>
      </trkpt>
      <trkpt lat="44.12029" lon="3.54585">
        <ele>1354.15</ele>
        <time>2021-08-08T11:38:05Z</time>
      </trkpt>
      <trkpt lat="44.12028" lon="3.54619">
        <ele>1355.12</ele>
        <time>2021-08-08T11:38:16Z</time>
      </trkpt>
      <trkpt lat="44.12036" lon="3.54659">
        <ele>1355.6</ele>
        <time>2021-08-08T11:38:28Z</time>
      </trkpt>
      <trkpt lat="44.12038" lon="3.54671">
        <ele>1356.56</ele>
        <time>2021-08-08T11:38:32Z</time>
      </trkpt>
      <trkpt lat="44.12039" lon="3.54689">
        <ele>1357.52</ele>
        <time>2021-08-08T11:38:38Z</time>
      </trkpt>
      <trkpt lat="44.12038" lon="3.54727">
        <ele>1359.92</ele>
        <time>2021-08-08T11:38:51Z</time>
      </trkpt>
      <trkpt lat="44.12036" lon="3.54736">
        <ele>1360.4</ele>
        <time>2021-08-08T11:39:01Z</time>
      </trkpt>
      <trkpt lat="44.1203" lon="3.54747">
        <ele>1360.88</ele>
        <time>2021-08-08T11:39:15Z</time>
      </trkpt>
      <trkpt lat="44.12026" lon="3.54758">
        <ele>1361.84</ele>
        <time>2021-08-08T11:39:28Z</time>
      </trkpt>
      <trkpt lat="44.12028" lon="3.54756">
        <ele>1361.36</ele>
        <time>2021-08-08T11:39:41Z</time>
      </trkpt>
      <trkpt lat="44.12029" lon="3.54756">
        <ele>1360.88</ele>
        <time>2021-08-08T11:40:06Z</time>
      </trkpt>
      <trkpt lat="44.12028" lon="3.54757">
        <ele>1361.36</ele>
        <time>2021-08-08T11:40:30Z</time>
      </trkpt>
      <trkpt lat="44.12028" lon="3.54757">
        <ele>1361.36</ele>
        <time>2021-08-08T11:40:44Z</time>
      </trkpt>
      <trkpt lat="44.12028" lon="3.54758">
        <ele>1361.84</ele>
        <time>2021-08-08T11:40:51Z</time>
      </trkpt>
      <trkpt lat="44.12026" lon="3.54759">
        <ele>1361.84</ele>
        <time>2021-08-08T11:40:54Z</time>
      </trkpt>
      <trkpt lat="44.12013" lon="3.54778">
        <ele>1363.29</ele>
        <time>2021-08-08T11:41:06Z</time>
      </trkpt>
      <trkpt lat="44.12012" lon="3.5478">
        <ele>1363.77</ele>
        <time>2021-08-08T11:41:07Z</time>
      </trkpt>
      <trkpt lat="44.12005" lon="3.54792">
        <ele>1364.25</ele>
        <time>2021-08-08T11:41:13Z</time>
      </trkpt>
      <trkpt lat="44.11993" lon="3.5481">
        <ele>1365.21</ele>
        <time>2021-08-08T11:41:22Z</time>
      </trkpt>
      <trkpt lat="44.11965" lon="3.5484">
        <ele>1367.61</ele>
        <time>2021-08-08T11:41:38Z</time>
      </trkpt>
      <trkpt lat="44.11938" lon="3.54864">
        <ele>1369.54</ele>
        <time>2021-08-08T11:41:54Z</time>
      </trkpt>
      <trkpt lat="44.11908" lon="3.54875">
        <ele>1371.94</ele>
        <time>2021-08-08T11:42:09Z</time>
      </trkpt>
      <trkpt lat="44.11881" lon="3.54875">
        <ele>1374.34</ele>
        <time>2021-08-08T11:42:23Z</time>
      </trkpt>
      <trkpt lat="44.11865" lon="3.54892">
        <ele>1375.3</ele>
        <time>2021-08-08T11:42:34Z</time>
      </trkpt>
      <trkpt lat="44.11863" lon="3.5491">
        <ele>1376.26</ele>
        <time>2021-08-08T11:42:42Z</time>
      </trkpt>
      <trkpt lat="44.11864" lon="3.54914">
        <ele>1376.26</ele>
        <time>2021-08-08T11:42:44Z</time>
      </trkpt>
      <trkpt lat="44.11864" lon="3.54918">
        <ele>1376.75</ele>
        <time>2021-08-08T11:42:47Z</time>
      </trkpt>
      <trkpt lat="44.11865" lon="3.54949">
        <ele>1377.71</ele>
        <time>2021-08-08T11:43:01Z</time>
      </trkpt>
      <trkpt lat="44.11868" lon="3.54978">
        <ele>1379.63</ele>
        <time>2021-08-08T11:43:13Z</time>
      </trkpt>
      <trkpt lat="44.11881" lon="3.55016">
        <ele>1382.03</ele>
        <time>2021-08-08T11:43:26Z</time>
      </trkpt>
      <trkpt lat="44.11895" lon="3.55056">
        <ele>1382.99</ele>
        <time>2021-08-08T11:43:39Z</time>
      </trkpt>
      <trkpt lat="44.11899" lon="3.55105">
        <ele>1385.4</ele>
        <time>2021-08-08T11:43:54Z</time>
      </trkpt>
      <trkpt lat="44.11895" lon="3.55129">
        <ele>1386.36</ele>
        <time>2021-08-08T11:44:04Z</time>
      </trkpt>
      <trkpt lat="44.11886" lon="3.55165">
        <ele>1387.8</ele>
        <time>2021-08-08T11:44:17Z</time>
      </trkpt>
      <trkpt lat="44.11865" lon="3.55196">
        <ele>1390.2</ele>
        <time>2021-08-08T11:44:30Z</time>
      </trkpt>
      <trkpt lat="44.11839" lon="3.5522">
        <ele>1392.61</ele>
        <time>2021-08-08T11:44:46Z</time>
      </trkpt>
      <trkpt lat="44.11814" lon="3.55236">
        <ele>1394.05</ele>
        <time>2021-08-08T11:45:02Z</time>
      </trkpt>
      <trkpt lat="44.11792" lon="3.5525">
        <ele>1395.97</ele>
        <time>2021-08-08T11:45:17Z</time>
      </trkpt>
      <trkpt lat="44.11785" lon="3.55258">
        <ele>1396.45</ele>
        <time>2021-08-08T11:45:22Z</time>
      </trkpt>
      <trkpt lat="44.11765" lon="3.55287">
        <ele>1397.89</ele>
        <time>2021-08-08T11:45:38Z</time>
      </trkpt>
      <trkpt lat="44.11765" lon="3.55289">
        <ele>1397.89</ele>
        <time>2021-08-08T11:45:39Z</time>
      </trkpt>
      <trkpt lat="44.11773" lon="3.55323">
        <ele>1399.34</ele>
        <time>2021-08-08T11:45:53Z</time>
      </trkpt>
      <trkpt lat="44.11783" lon="3.55352">
        <ele>1401.26</ele>
        <time>2021-08-08T11:46:04Z</time>
      </trkpt>
      <trkpt lat="44.11795" lon="3.55379">
        <ele>1402.22</ele>
        <time>2021-08-08T11:46:14Z</time>
      </trkpt>
      <trkpt lat="44.11781" lon="3.55386">
        <ele>1404.14</ele>
        <time>2021-08-08T11:46:23Z</time>
      </trkpt>
      <trkpt lat="44.11759" lon="3.5536">
        <ele>1405.58</ele>
        <time>2021-08-08T11:46:38Z</time>
      </trkpt>
      <trkpt lat="44.1174" lon="3.55331">
        <ele>1408.47</ele>
        <time>2021-08-08T11:46:51Z</time>
      </trkpt>
      <trkpt lat="44.11723" lon="3.55291">
        <ele>1409.91</ele>
        <time>2021-08-08T11:47:05Z</time>
      </trkpt>
      <trkpt lat="44.11719" lon="3.55267">
        <ele>1410.87</ele>
        <time>2021-08-08T11:47:13Z</time>
      </trkpt>
      <trkpt lat="44.11721" lon="3.55232">
        <ele>1412.31</ele>
        <time>2021-08-08T11:47:24Z</time>
      </trkpt>
      <trkpt lat="44.11722" lon="3.5519">
        <ele>1414.72</ele>
        <time>2021-08-08T11:47:37Z</time>
      </trkpt>
      <trkpt lat="44.11719" lon="3.55178">
        <ele>1415.68</ele>
        <time>2021-08-08T11:47:41Z</time>
      </trkpt>
      <trkpt lat="44.11694" lon="3.55172">
        <ele>1418.08</ele>
        <time>2021-08-08T11:47:52Z</time>
      </trkpt>
      <trkpt lat="44.11668" lon="3.55181">
        <ele>1417.6</ele>
        <time>2021-08-08T11:48:08Z</time>
      </trkpt>
      <trkpt lat="44.11662" lon="3.5517">
        <ele>1417.12</ele>
        <time>2021-08-08T11:48:15Z</time>
      </trkpt>
      <trkpt lat="44.11653" lon="3.55169">
        <ele>1417.12</ele>
        <time>2021-08-08T11:48:27Z</time>
      </trkpt>
      <trkpt lat="44.11654" lon="3.55168">
        <ele>1416.64</ele>
        <time>2021-08-08T11:48:46Z</time>
      </trkpt>
      <trkpt lat="44.11652" lon="3.55167">
        <ele>1417.12</ele>
        <time>2021-08-08T11:49:01Z</time>
      </trkpt>
      <trkpt lat="44.11652" lon="3.55166">
        <ele>1418.08</ele>
        <time>2021-08-08T11:49:12Z</time>
      </trkpt>
      <trkpt lat="44.11651" lon="3.55166">
        <ele>1416.64</ele>
        <time>2021-08-08T11:49:27Z</time>
      </trkpt>
      <trkpt lat="44.11651" lon="3.55166">
        <ele>1415.68</ele>
        <time>2021-08-08T11:49:52Z</time>
      </trkpt>
      <trkpt lat="44.11652" lon="3.55167">
        <ele>1416.16</ele>
        <time>2021-08-08T11:50:09Z</time>
      </trkpt>
      <trkpt lat="44.11652" lon="3.55166">
        <ele>1415.68</ele>
        <time>2021-08-08T11:50:46Z</time>
      </trkpt>
      <trkpt lat="44.11652" lon="3.55167">
        <ele>1416.64</ele>
        <time>2021-08-08T11:51:01Z</time>
      </trkpt>
      <trkpt lat="44.11652" lon="3.55168">
        <ele>1416.16</ele>
        <time>2021-08-08T11:51:24Z</time>
      </trkpt>
      <trkpt lat="44.11652" lon="3.55164">
        <ele>1416.16</ele>
        <time>2021-08-08T11:51:34Z</time>
      </trkpt>
      <trkpt lat="44.11658" lon="3.55168">
        <ele>1418.08</ele>
        <time>2021-08-08T11:51:39Z</time>
      </trkpt>
      <trkpt lat="44.11661" lon="3.5518">
        <ele>1418.08</ele>
        <time>2021-08-08T11:51:44Z</time>
      </trkpt>
      <trkpt lat="44.11668" lon="3.55227">
        <ele>1417.12</ele>
        <time>2021-08-08T11:51:57Z</time>
      </trkpt>
      <trkpt lat="44.11685" lon="3.55327">
        <ele>1414.24</ele>
        <time>2021-08-08T11:52:10Z</time>
      </trkpt>
      <trkpt lat="44.11721" lon="3.55421">
        <ele>1413.76</ele>
        <time>2021-08-08T11:52:24Z</time>
      </trkpt>
      <trkpt lat="44.11737" lon="3.55468">
        <ele>1416.16</ele>
        <time>2021-08-08T11:52:37Z</time>
      </trkpt>
      <trkpt lat="44.1176" lon="3.55515">
        <ele>1417.12</ele>
        <time>2021-08-08T11:52:53Z</time>
      </trkpt>
      <trkpt lat="44.11786" lon="3.55588">
        <ele>1419.04</ele>
        <time>2021-08-08T11:53:12Z</time>
      </trkpt>
      <trkpt lat="44.1179" lon="3.556">
        <ele>1417.6</ele>
        <time>2021-08-08T11:53:15Z</time>
      </trkpt>
      <trkpt lat="44.11815" lon="3.55654">
        <ele>1419.52</ele>
        <time>2021-08-08T11:53:31Z</time>
      </trkpt>
      <trkpt lat="44.11844" lon="3.55709">
        <ele>1420.97</ele>
        <time>2021-08-08T11:53:48Z</time>
      </trkpt>
      <trkpt lat="44.11873" lon="3.55762">
        <ele>1422.89</ele>
        <time>2021-08-08T11:54:05Z</time>
      </trkpt>
      <trkpt lat="44.11902" lon="3.55814">
        <ele>1424.33</ele>
        <time>2021-08-08T11:54:23Z</time>
      </trkpt>
      <trkpt lat="44.11919" lon="3.55838">
        <ele>1427.7</ele>
        <time>2021-08-08T11:54:34Z</time>
      </trkpt>
      <trkpt lat="44.11952" lon="3.55869">
        <ele>1428.18</ele>
        <time>2021-08-08T11:54:53Z</time>
      </trkpt>
      <trkpt lat="44.11973" lon="3.55889">
        <ele>1430.1</ele>
        <time>2021-08-08T11:55:06Z</time>
      </trkpt>
      <trkpt lat="44.12" lon="3.55913">
        <ele>1431.54</ele>
        <time>2021-08-08T11:55:21Z</time>
      </trkpt>
      <trkpt lat="44.12027" lon="3.55933">
        <ele>1434.42</ele>
        <time>2021-08-08T11:55:36Z</time>
      </trkpt>
      <trkpt lat="44.12038" lon="3.5594">
        <ele>1435.39</ele>
        <time>2021-08-08T11:55:42Z</time>
      </trkpt>
      <trkpt lat="44.12066" lon="3.55957">
        <ele>1436.83</ele>
        <time>2021-08-08T11:55:56Z</time>
      </trkpt>
      <trkpt lat="44.12093" lon="3.55958">
        <ele>1439.23</ele>
        <time>2021-08-08T11:56:11Z</time>
      </trkpt>
      <trkpt lat="44.12124" lon="3.55955">
        <ele>1440.67</ele>
        <time>2021-08-08T11:56:26Z</time>
      </trkpt>
      <trkpt lat="44.12161" lon="3.55957">
        <ele>1444.04</ele>
        <time>2021-08-08T11:56:43Z</time>
      </trkpt>
      <trkpt lat="44.12195" lon="3.5599">
        <ele>1446.44</ele>
        <time>2021-08-08T11:57:02Z</time>
      </trkpt>
      <trkpt lat="44.12223" lon="3.56027">
        <ele>1449.32</ele>
        <time>2021-08-08T11:57:20Z</time>
      </trkpt>
      <trkpt lat="44.12254" lon="3.56044">
        <ele>1451.25</ele>
        <time>2021-08-08T11:57:36Z</time>
      </trkpt>
      <trkpt lat="44.1229" lon="3.56059">
        <ele>1453.65</ele>
        <time>2021-08-08T11:57:53Z</time>
      </trkpt>
      <trkpt lat="44.12329" lon="3.56074">
        <ele>1456.05</ele>
        <time>2021-08-08T11:58:12Z</time>
      </trkpt>
      <trkpt lat="44.12362" lon="3.56076">
        <ele>1457.98</ele>
        <time>2021-08-08T11:58:28Z</time>
      </trkpt>
      <trkpt lat="44.12398" lon="3.56074">
        <ele>1460.38</ele>
        <time>2021-08-08T11:58:45Z</time>
      </trkpt>
      <trkpt lat="44.12437" lon="3.5608">
        <ele>1462.3</ele>
        <time>2021-08-08T11:59:03Z</time>
      </trkpt>
      <trkpt lat="44.12442" lon="3.56082">
        <ele>1464.23</ele>
        <time>2021-08-08T11:59:05Z</time>
      </trkpt>
      <trkpt lat="44.1247" lon="3.56112">
        <ele>1465.19</ele>
        <time>2021-08-08T11:59:21Z</time>
      </trkpt>
      <trkpt lat="44.12479" lon="3.56155">
        <ele>1467.11</ele>
        <time>2021-08-08T11:59:36Z</time>
      </trkpt>
      <trkpt lat="44.12483" lon="3.56196">
        <ele>1469.51</ele>
        <time>2021-08-08T11:59:50Z</time>
      </trkpt>
      <trkpt lat="44.1248" lon="3.5624">
        <ele>1471.44</ele>
        <time>2021-08-08T12:00:05Z</time>
      </trkpt>
      <trkpt lat="44.12475" lon="3.56276">
        <ele>1473.36</ele>
        <time>2021-08-08T12:00:18Z</time>
      </trkpt>
      <trkpt lat="44.12468" lon="3.56324">
        <ele>1475.76</ele>
        <time>2021-08-08T12:00:34Z</time>
      </trkpt>
      <trkpt lat="44.12463" lon="3.56357">
        <ele>1478.16</ele>
        <time>2021-08-08T12:00:45Z</time>
      </trkpt>
      <trkpt lat="44.12462" lon="3.56416">
        <ele>1480.09</ele>
        <time>2021-08-08T12:01:03Z</time>
      </trkpt>
      <trkpt lat="44.12461" lon="3.56463">
        <ele>1482.49</ele>
        <time>2021-08-08T12:01:19Z</time>
      </trkpt>
      <trkpt lat="44.12458" lon="3.56509">
        <ele>1484.41</ele>
        <time>2021-08-08T12:01:34Z</time>
      </trkpt>
      <trkpt lat="44.1245" lon="3.56555">
        <ele>1487.3</ele>
        <time>2021-08-08T12:01:49Z</time>
      </trkpt>
      <trkpt lat="44.12441" lon="3.56602">
        <ele>1489.22</ele>
        <time>2021-08-08T12:02:05Z</time>
      </trkpt>
      <trkpt lat="44.12433" lon="3.56642">
        <ele>1491.14</ele>
        <time>2021-08-08T12:02:19Z</time>
      </trkpt>
      <trkpt lat="44.12427" lon="3.56691">
        <ele>1493.06</ele>
        <time>2021-08-08T12:02:35Z</time>
      </trkpt>
      <trkpt lat="44.12418" lon="3.5674">
        <ele>1495.47</ele>
        <time>2021-08-08T12:02:51Z</time>
      </trkpt>
      <trkpt lat="44.1241" lon="3.5677">
        <ele>1498.35</ele>
        <time>2021-08-08T12:03:03Z</time>
      </trkpt>
      <trkpt lat="44.12402" lon="3.5679">
        <ele>1499.31</ele>
        <time>2021-08-08T12:03:10Z</time>
      </trkpt>
      <trkpt lat="44.12397" lon="3.56833">
        <ele>1501.24</ele>
        <time>2021-08-08T12:03:28Z</time>
      </trkpt>
      <trkpt lat="44.12399" lon="3.56846">
        <ele>1501.72</ele>
        <time>2021-08-08T12:03:41Z</time>
      </trkpt>
      <trkpt lat="44.12398" lon="3.56847">
        <ele>1501.72</ele>
        <time>2021-08-08T12:04:03Z</time>
      </trkpt>
      <trkpt lat="44.12398" lon="3.56847">
        <ele>1501.72</ele>
        <time>2021-08-08T12:04:18Z</time>
      </trkpt>
      <trkpt lat="44.12399" lon="3.56847">
        <ele>1501.72</ele>
        <time>2021-08-08T12:04:26Z</time>
      </trkpt>
      <trkpt lat="44.12403" lon="3.56846">
        <ele>1502.2</ele>
        <time>2021-08-08T12:04:30Z</time>
      </trkpt>
      <trkpt lat="44.12435" lon="3.56839">
        <ele>1503.16</ele>
        <time>2021-08-08T12:04:46Z</time>
      </trkpt>
      <trkpt lat="44.12468" lon="3.56832">
        <ele>1506.04</ele>
        <time>2021-08-08T12:05:02Z</time>
      </trkpt>
      <trkpt lat="44.12499" lon="3.56836">
        <ele>1508.45</ele>
        <time>2021-08-08T12:05:17Z</time>
      </trkpt>
      <trkpt lat="44.12542" lon="3.56845">
        <ele>1510.85</ele>
        <time>2021-08-08T12:05:37Z</time>
      </trkpt>
      <trkpt lat="44.12579" lon="3.56857">
        <ele>1513.25</ele>
        <time>2021-08-08T12:05:55Z</time>
      </trkpt>
      <trkpt lat="44.12614" lon="3.56877">
        <ele>1515.18</ele>
        <time>2021-08-08T12:06:13Z</time>
      </trkpt>
      <trkpt lat="44.1264" lon="3.56907">
        <ele>1518.06</ele>
        <time>2021-08-08T12:06:32Z</time>
      </trkpt>
      <trkpt lat="44.12641" lon="3.56911">
        <ele>1517.58</ele>
        <time>2021-08-08T12:06:34Z</time>
      </trkpt>
      <trkpt lat="44.1264" lon="3.5692">
        <ele>1517.58</ele>
        <time>2021-08-08T12:06:39Z</time>
      </trkpt>
      <trkpt lat="44.12632" lon="3.56923">
        <ele>1518.06</ele>
        <time>2021-08-08T12:06:44Z</time>
      </trkpt>
      <trkpt lat="44.12593" lon="3.56931">
        <ele>1521.42</ele>
        <time>2021-08-08T12:07:03Z</time>
      </trkpt>
      <trkpt lat="44.12559" lon="3.56944">
        <ele>1523.83</ele>
        <time>2021-08-08T12:07:20Z</time>
      </trkpt>
      <trkpt lat="44.12536" lon="3.56953">
        <ele>1526.71</ele>
        <time>2021-08-08T12:07:32Z</time>
      </trkpt>
      <trkpt lat="44.12525" lon="3.56957">
        <ele>1526.23</ele>
        <time>2021-08-08T12:07:40Z</time>
      </trkpt>
      <trkpt lat="44.1253" lon="3.56959">
        <ele>1526.23</ele>
        <time>2021-08-08T12:07:45Z</time>
      </trkpt>
      <trkpt lat="44.12579" lon="3.5694">
        <ele>1523.83</ele>
        <time>2021-08-08T12:07:58Z</time>
      </trkpt>
      <trkpt lat="44.12598" lon="3.56934">
        <ele>1522.39</ele>
        <time>2021-08-08T12:08:02Z</time>
      </trkpt>
      <trkpt lat="44.12607" lon="3.56932">
        <ele>1520.94</ele>
        <time>2021-08-08T12:08:04Z</time>
      </trkpt>
      <trkpt lat="44.12628" lon="3.5693">
        <ele>1519.5</ele>
        <time>2021-08-08T12:08:08Z</time>
      </trkpt>
      <trkpt lat="44.12638" lon="3.5693">
        <ele>1518.06</ele>
        <time>2021-08-08T12:08:10Z</time>
      </trkpt>
      <trkpt lat="44.12689" lon="3.5695">
        <ele>1516.14</ele>
        <time>2021-08-08T12:08:20Z</time>
      </trkpt>
      <trkpt lat="44.12731" lon="3.56974">
        <ele>1513.25</ele>
        <time>2021-08-08T12:08:28Z</time>
      </trkpt>
      <trkpt lat="44.12778" lon="3.5698">
        <ele>1509.89</ele>
        <time>2021-08-08T12:08:37Z</time>
      </trkpt>
      <trkpt lat="44.12862" lon="3.56975">
        <ele>1506.52</ele>
        <time>2021-08-08T12:08:52Z</time>
      </trkpt>
      <trkpt lat="44.12897" lon="3.56954">
        <ele>1505.56</ele>
        <time>2021-08-08T12:08:59Z</time>
      </trkpt>
      <trkpt lat="44.12928" lon="3.56936">
        <ele>1502.2</ele>
        <time>2021-08-08T12:09:05Z</time>
      </trkpt>
      <trkpt lat="44.1299" lon="3.56908">
        <ele>1501.72</ele>
        <time>2021-08-08T12:09:18Z</time>
      </trkpt>
      <trkpt lat="44.13028" lon="3.56884">
        <ele>1500.76</ele>
        <time>2021-08-08T12:09:29Z</time>
      </trkpt>
      <trkpt lat="44.13039" lon="3.56866">
        <ele>1501.72</ele>
        <time>2021-08-08T12:09:33Z</time>
      </trkpt>
      <trkpt lat="44.13053" lon="3.56764">
        <ele>1501.24</ele>
        <time>2021-08-08T12:09:50Z</time>
      </trkpt>
      <trkpt lat="44.13054" lon="3.56758">
        <ele>1501.24</ele>
        <time>2021-08-08T12:09:51Z</time>
      </trkpt>
      <trkpt lat="44.13085" lon="3.56651">
        <ele>1500.27</ele>
        <time>2021-08-08T12:10:11Z</time>
      </trkpt>
      <trkpt lat="44.13087" lon="3.56646">
        <ele>1500.27</ele>
        <time>2021-08-08T12:10:12Z</time>
      </trkpt>
      <trkpt lat="44.1314" lon="3.56538">
        <ele>1499.79</ele>
        <time>2021-08-08T12:10:33Z</time>
      </trkpt>
      <trkpt lat="44.13195" lon="3.56454">
        <ele>1499.31</ele>
        <time>2021-08-08T12:10:52Z</time>
      </trkpt>
      <trkpt lat="44.13211" lon="3.56442">
        <ele>1498.35</ele>
        <time>2021-08-08T12:10:56Z</time>
      </trkpt>
      <trkpt lat="44.13276" lon="3.56445">
        <ele>1498.35</ele>
        <time>2021-08-08T12:11:11Z</time>
      </trkpt>
      <trkpt lat="44.13351" lon="3.56454">
        <ele>1498.35</ele>
        <time>2021-08-08T12:11:28Z</time>
      </trkpt>
      <trkpt lat="44.13392" lon="3.56447">
        <ele>1498.83</ele>
        <time>2021-08-08T12:11:38Z</time>
      </trkpt>
      <trkpt lat="44.13427" lon="3.5641">
        <ele>1497.39</ele>
        <time>2021-08-08T12:11:52Z</time>
      </trkpt>
      <trkpt lat="44.13427" lon="3.5641">
        <ele>1497.39</ele>
        <time>2021-08-08T12:11:56Z</time>
      </trkpt>
      <trkpt lat="44.13422" lon="3.56408">
        <ele>1496.91</ele>
        <time>2021-08-08T12:12:02Z</time>
      </trkpt>
      <trkpt lat="44.13411" lon="3.56415">
        <ele>1496.91</ele>
        <time>2021-08-08T12:12:13Z</time>
      </trkpt>
      <trkpt lat="44.13404" lon="3.56419">
        <ele>1495.95</ele>
        <time>2021-08-08T12:12:26Z</time>
      </trkpt>
      <trkpt lat="44.13398" lon="3.56421">
        <ele>1495.47</ele>
        <time>2021-08-08T12:12:32Z</time>
      </trkpt>
      <trkpt lat="44.13389" lon="3.56419">
        <ele>1492.58</ele>
        <time>2021-08-08T12:12:45Z</time>
      </trkpt>
      <trkpt lat="44.13389" lon="3.56421">
        <ele>1492.1</ele>
        <time>2021-08-08T12:13:00Z</time>
      </trkpt>
      <trkpt lat="44.13389" lon="3.56421">
        <ele>1490.66</ele>
        <time>2021-08-08T12:13:21Z</time>
      </trkpt>
      <trkpt lat="44.13388" lon="3.56421">
        <ele>1491.14</ele>
        <time>2021-08-08T12:13:54Z</time>
      </trkpt>
      <trkpt lat="44.13387" lon="3.56423">
        <ele>1490.66</ele>
        <time>2021-08-08T12:14:24Z</time>
      </trkpt>
      <trkpt lat="44.13387" lon="3.56425">
        <ele>1490.18</ele>
        <time>2021-08-08T12:14:37Z</time>
      </trkpt>
      <trkpt lat="44.13388" lon="3.56418">
        <ele>1491.62</ele>
        <time>2021-08-08T12:14:49Z</time>
      </trkpt>
      <trkpt lat="44.13389" lon="3.56419">
        <ele>1491.62</ele>
        <time>2021-08-08T12:15:15Z</time>
      </trkpt>
      <trkpt lat="44.13389" lon="3.56418">
        <ele>1492.1</ele>
        <time>2021-08-08T12:15:28Z</time>
      </trkpt>
      <trkpt lat="44.13386" lon="3.56418">
        <ele>1491.62</ele>
        <time>2021-08-08T12:15:41Z</time>
      </trkpt>
      <trkpt lat="44.13386" lon="3.56418">
        <ele>1490.66</ele>
        <time>2021-08-08T12:15:56Z</time>
      </trkpt>
      <trkpt lat="44.13385" lon="3.56418">
        <ele>1490.18</ele>
        <time>2021-08-08T12:16:24Z</time>
      </trkpt>
      <trkpt lat="44.13385" lon="3.56418">
        <ele>1490.66</ele>
        <time>2021-08-08T12:16:58Z</time>
      </trkpt>
      <trkpt lat="44.13385" lon="3.56418">
        <ele>1489.7</ele>
        <time>2021-08-08T12:17:28Z</time>
      </trkpt>
      <trkpt lat="44.13385" lon="3.56418">
        <ele>1490.18</ele>
        <time>2021-08-08T12:17:48Z</time>
      </trkpt>
      <trkpt lat="44.13385" lon="3.56417">
        <ele>1490.18</ele>
        <time>2021-08-08T12:18:22Z</time>
      </trkpt>
      <trkpt lat="44.13384" lon="3.56416">
        <ele>1490.66</ele>
        <time>2021-08-08T12:18:50Z</time>
      </trkpt>
      <trkpt lat="44.13385" lon="3.56416">
        <ele>1490.18</ele>
        <time>2021-08-08T12:19:12Z</time>
      </trkpt>
      <trkpt lat="44.13385" lon="3.56416">
        <ele>1489.7</ele>
        <time>2021-08-08T12:19:42Z</time>
      </trkpt>
      <trkpt lat="44.13385" lon="3.56415">
        <ele>1490.18</ele>
        <time>2021-08-08T12:20:07Z</time>
      </trkpt>
      <trkpt lat="44.13386" lon="3.56415">
        <ele>1491.14</ele>
        <time>2021-08-08T12:20:50Z</time>
      </trkpt>
      <trkpt lat="44.13386" lon="3.56415">
        <ele>1490.66</ele>
        <time>2021-08-08T12:21:30Z</time>
      </trkpt>
      <trkpt lat="44.13386" lon="3.56416">
        <ele>1491.62</ele>
        <time>2021-08-08T12:22:17Z</time>
      </trkpt>
      <trkpt lat="44.13386" lon="3.56416">
        <ele>1491.14</ele>
        <time>2021-08-08T12:22:59Z</time>
      </trkpt>
      <trkpt lat="44.13386" lon="3.56417">
        <ele>1491.14</ele>
        <time>2021-08-08T12:23:39Z</time>
      </trkpt>
      <trkpt lat="44.13386" lon="3.56417">
        <ele>1491.14</ele>
        <time>2021-08-08T12:24:25Z</time>
      </trkpt>
      <trkpt lat="44.13386" lon="3.56416">
        <ele>1491.14</ele>
        <time>2021-08-08T12:25:06Z</time>
      </trkpt>
      <trkpt lat="44.13386" lon="3.56416">
        <ele>1491.14</ele>
        <time>2021-08-08T12:25:52Z</time>
      </trkpt>
      <trkpt lat="44.13386" lon="3.56416">
        <ele>1491.62</ele>
        <time>2021-08-08T12:26:38Z</time>
      </trkpt>
      <trkpt lat="44.13386" lon="3.56417">
        <ele>1491.14</ele>
        <time>2021-08-08T12:27:23Z</time>
      </trkpt>
      <trkpt lat="44.13386" lon="3.56417">
        <ele>1490.66</ele>
        <time>2021-08-08T12:28:08Z</time>
      </trkpt>
      <trkpt lat="44.13385" lon="3.56416">
        <ele>1490.66</ele>
        <time>2021-08-08T12:28:36Z</time>
      </trkpt>
      <trkpt lat="44.13384" lon="3.56416">
        <ele>1491.62</ele>
        <time>2021-08-08T12:29:00Z</time>
      </trkpt>
      <trkpt lat="44.13385" lon="3.56416">
        <ele>1490.66</ele>
        <time>2021-08-08T12:29:30Z</time>
      </trkpt>
      <trkpt lat="44.13385" lon="3.56416">
        <ele>1491.14</ele>
        <time>2021-08-08T12:29:55Z</time>
      </trkpt>
      <trkpt lat="44.13385" lon="3.56416">
        <ele>1491.14</ele>
        <time>2021-08-08T12:30:17Z</time>
      </trkpt>
      <trkpt lat="44.13385" lon="3.56416">
        <ele>1491.14</ele>
        <time>2021-08-08T12:30:54Z</time>
      </trkpt>
      <trkpt lat="44.13385" lon="3.56416">
        <ele>1490.66</ele>
        <time>2021-08-08T12:31:33Z</time>
      </trkpt>
      <trkpt lat="44.13385" lon="3.56416">
        <ele>1490.66</ele>
        <time>2021-08-08T12:32:11Z</time>
      </trkpt>
      <trkpt lat="44.13385" lon="3.56418">
        <ele>1491.14</ele>
        <time>2021-08-08T12:32:36Z</time>
      </trkpt>
      <trkpt lat="44.13384" lon="3.56418">
        <ele>1491.14</ele>
        <time>2021-08-08T12:32:58Z</time>
      </trkpt>
      <trkpt lat="44.13387" lon="3.56418">
        <ele>1492.1</ele>
        <time>2021-08-08T12:33:16Z</time>
      </trkpt>
      <trkpt lat="44.1339" lon="3.56419">
        <ele>1492.58</ele>
        <time>2021-08-08T12:33:33Z</time>
      </trkpt>
      <trkpt lat="44.13397" lon="3.56423">
        <ele>1494.03</ele>
        <time>2021-08-08T12:33:46Z</time>
      </trkpt>
      <trkpt lat="44.134" lon="3.56423">
        <ele>1494.99</ele>
        <time>2021-08-08T12:33:55Z</time>
      </trkpt>
      <trkpt lat="44.13408" lon="3.56417">
        <ele>1496.43</ele>
        <time>2021-08-08T12:34:07Z</time>
      </trkpt>
      <trkpt lat="44.1341" lon="3.56417">
        <ele>1496.43</ele>
        <time>2021-08-08T12:34:10Z</time>
      </trkpt>
      <trkpt lat="44.13416" lon="3.56419">
        <ele>1496.91</ele>
        <time>2021-08-08T12:34:18Z</time>
      </trkpt>
      <trkpt lat="44.13422" lon="3.56416">
        <ele>1496.91</ele>
        <time>2021-08-08T12:34:23Z</time>
      </trkpt>
      <trkpt lat="44.1343" lon="3.56405">
        <ele>1498.35</ele>
        <time>2021-08-08T12:34:28Z</time>
      </trkpt>
      <trkpt lat="44.1346" lon="3.5635">
        <ele>1497.39</ele>
        <time>2021-08-08T12:34:47Z</time>
      </trkpt>
      <trkpt lat="44.13476" lon="3.56286">
        <ele>1497.87</ele>
        <time>2021-08-08T12:35:05Z</time>
      </trkpt>
      <trkpt lat="44.13484" lon="3.56253">
        <ele>1500.27</ele>
        <time>2021-08-08T12:35:15Z</time>
      </trkpt>
      <trkpt lat="44.13511" lon="3.56195">
        <ele>1500.76</ele>
        <time>2021-08-08T12:35:33Z</time>
      </trkpt>
      <trkpt lat="44.13564" lon="3.56141">
        <ele>1499.31</ele>
        <time>2021-08-08T12:35:53Z</time>
      </trkpt>
      <trkpt lat="44.13568" lon="3.56139">
        <ele>1498.83</ele>
        <time>2021-08-08T12:35:54Z</time>
      </trkpt>
      <trkpt lat="44.13583" lon="3.56135">
        <ele>1498.83</ele>
        <time>2021-08-08T12:35:58Z</time>
      </trkpt>
      <trkpt lat="44.13615" lon="3.56172">
        <ele>1494.99</ele>
        <time>2021-08-08T12:36:07Z</time>
      </trkpt>
      <trkpt lat="44.13617" lon="3.56212">
        <ele>1492.58</ele>
        <time>2021-08-08T12:36:12Z</time>
      </trkpt>
      <trkpt lat="44.13615" lon="3.56238">
        <ele>1490.66</ele>
        <time>2021-08-08T12:36:15Z</time>
      </trkpt>
      <trkpt lat="44.13607" lon="3.56281">
        <ele>1488.74</ele>
        <time>2021-08-08T12:36:20Z</time>
      </trkpt>
      <trkpt lat="44.13605" lon="3.56318">
        <ele>1487.3</ele>
        <time>2021-08-08T12:36:24Z</time>
      </trkpt>
      <trkpt lat="44.13624" lon="3.5637">
        <ele>1485.85</ele>
        <time>2021-08-08T12:36:30Z</time>
      </trkpt>
      <trkpt lat="44.13691" lon="3.56426">
        <ele>1481.05</ele>
        <time>2021-08-08T12:36:42Z</time>
      </trkpt>
      <trkpt lat="44.13702" lon="3.56434">
        <ele>1480.09</ele>
        <time>2021-08-08T12:36:44Z</time>
      </trkpt>
      <trkpt lat="44.13713" lon="3.56442">
        <ele>1478.65</ele>
        <time>2021-08-08T12:36:46Z</time>
      </trkpt>
      <trkpt lat="44.13725" lon="3.56447">
        <ele>1477.68</ele>
        <time>2021-08-08T12:36:48Z</time>
      </trkpt>
      <trkpt lat="44.13764" lon="3.56448">
        <ele>1473.36</ele>
        <time>2021-08-08T12:36:54Z</time>
      </trkpt>
      <trkpt lat="44.13807" lon="3.56448">
        <ele>1470.95</ele>
        <time>2021-08-08T12:36:59Z</time>
      </trkpt>
      <trkpt lat="44.13855" lon="3.56448">
        <ele>1467.11</ele>
        <time>2021-08-08T12:37:04Z</time>
      </trkpt>
      <trkpt lat="44.13882" lon="3.56449">
        <ele>1464.23</ele>
        <time>2021-08-08T12:37:07Z</time>
      </trkpt>
      <trkpt lat="44.13919" lon="3.5646">
        <ele>1461.34</ele>
        <time>2021-08-08T12:37:11Z</time>
      </trkpt>
      <trkpt lat="44.1396" lon="3.56477">
        <ele>1457.98</ele>
        <time>2021-08-08T12:37:16Z</time>
      </trkpt>
      <trkpt lat="44.13968" lon="3.56479">
        <ele>1457.5</ele>
        <time>2021-08-08T12:37:17Z</time>
      </trkpt>
      <trkpt lat="44.14001" lon="3.56477">
        <ele>1453.17</ele>
        <time>2021-08-08T12:37:21Z</time>
      </trkpt>
      <trkpt lat="44.14042" lon="3.56468">
        <ele>1449.32</ele>
        <time>2021-08-08T12:37:26Z</time>
      </trkpt>
      <trkpt lat="44.1405" lon="3.56467">
        <ele>1449.32</ele>
        <time>2021-08-08T12:37:27Z</time>
      </trkpt>
      <trkpt lat="44.14075" lon="3.56467">
        <ele>1445</ele>
        <time>2021-08-08T12:37:30Z</time>
      </trkpt>
      <trkpt lat="44.14109" lon="3.56469">
        <ele>1441.63</ele>
        <time>2021-08-08T12:37:34Z</time>
      </trkpt>
      <trkpt lat="44.14118" lon="3.56469">
        <ele>1441.15</ele>
        <time>2021-08-08T12:37:35Z</time>
      </trkpt>
      <trkpt lat="44.1417" lon="3.56458">
        <ele>1437.31</ele>
        <time>2021-08-08T12:37:41Z</time>
      </trkpt>
      <trkpt lat="44.14195" lon="3.5645">
        <ele>1434.42</ele>
        <time>2021-08-08T12:37:44Z</time>
      </trkpt>
      <trkpt lat="44.14232" lon="3.56436">
        <ele>1431.06</ele>
        <time>2021-08-08T12:37:48Z</time>
      </trkpt>
      <trkpt lat="44.14267" lon="3.56422">
        <ele>1427.7</ele>
        <time>2021-08-08T12:37:52Z</time>
      </trkpt>
      <trkpt lat="44.14298" lon="3.56409">
        <ele>1425.77</ele>
        <time>2021-08-08T12:37:56Z</time>
      </trkpt>
      <trkpt lat="44.1434" lon="3.5639">
        <ele>1421.45</ele>
        <time>2021-08-08T12:38:01Z</time>
      </trkpt>
      <trkpt lat="44.14348" lon="3.56385">
        <ele>1421.45</ele>
        <time>2021-08-08T12:38:02Z</time>
      </trkpt>
      <trkpt lat="44.14395" lon="3.56351">
        <ele>1418.08</ele>
        <time>2021-08-08T12:38:08Z</time>
      </trkpt>
      <trkpt lat="44.14423" lon="3.56329">
        <ele>1414.72</ele>
        <time>2021-08-08T12:38:12Z</time>
      </trkpt>
      <trkpt lat="44.14509" lon="3.56275">
        <ele>1410.39</ele>
        <time>2021-08-08T12:38:24Z</time>
      </trkpt>
      <trkpt lat="44.14521" lon="3.56266">
        <ele>1409.43</ele>
        <time>2021-08-08T12:38:26Z</time>
      </trkpt>
      <trkpt lat="44.14537" lon="3.5625">
        <ele>1408.95</ele>
        <time>2021-08-08T12:38:29Z</time>
      </trkpt>
      <trkpt lat="44.14578" lon="3.56163">
        <ele>1406.07</ele>
        <time>2021-08-08T12:38:40Z</time>
      </trkpt>
      <trkpt lat="44.14609" lon="3.56095">
        <ele>1402.7</ele>
        <time>2021-08-08T12:38:48Z</time>
      </trkpt>
      <trkpt lat="44.14633" lon="3.56045">
        <ele>1400.3</ele>
        <time>2021-08-08T12:38:54Z</time>
      </trkpt>
      <trkpt lat="44.14646" lon="3.56022">
        <ele>1398.86</ele>
        <time>2021-08-08T12:38:57Z</time>
      </trkpt>
      <trkpt lat="44.14662" lon="3.56001">
        <ele>1397.41</ele>
        <time>2021-08-08T12:39:00Z</time>
      </trkpt>
      <trkpt lat="44.1469" lon="3.55942">
        <ele>1394.05</ele>
        <time>2021-08-08T12:39:07Z</time>
      </trkpt>
      <trkpt lat="44.14694" lon="3.55921">
        <ele>1393.57</ele>
        <time>2021-08-08T12:39:09Z</time>
      </trkpt>
      <trkpt lat="44.14711" lon="3.55855">
        <ele>1390.2</ele>
        <time>2021-08-08T12:39:16Z</time>
      </trkpt>
      <trkpt lat="44.14715" lon="3.55846">
        <ele>1390.68</ele>
        <time>2021-08-08T12:39:17Z</time>
      </trkpt>
      <trkpt lat="44.14749" lon="3.55798">
        <ele>1388.76</ele>
        <time>2021-08-08T12:39:23Z</time>
      </trkpt>
      <trkpt lat="44.1479" lon="3.55771">
        <ele>1383.96</ele>
        <time>2021-08-08T12:39:29Z</time>
      </trkpt>
      <trkpt lat="44.14804" lon="3.55766">
        <ele>1383.47</ele>
        <time>2021-08-08T12:39:31Z</time>
      </trkpt>
      <trkpt lat="44.14818" lon="3.5576">
        <ele>1382.51</ele>
        <time>2021-08-08T12:39:33Z</time>
      </trkpt>
      <trkpt lat="44.14841" lon="3.55737">
        <ele>1380.59</ele>
        <time>2021-08-08T12:39:37Z</time>
      </trkpt>
      <trkpt lat="44.14879" lon="3.55683">
        <ele>1377.71</ele>
        <time>2021-08-08T12:39:44Z</time>
      </trkpt>
      <trkpt lat="44.14919" lon="3.5565">
        <ele>1374.34</ele>
        <time>2021-08-08T12:39:50Z</time>
      </trkpt>
      <trkpt lat="44.14927" lon="3.55647">
        <ele>1374.34</ele>
        <time>2021-08-08T12:39:51Z</time>
      </trkpt>
      <trkpt lat="44.14934" lon="3.55644">
        <ele>1373.38</ele>
        <time>2021-08-08T12:39:52Z</time>
      </trkpt>
      <trkpt lat="44.14986" lon="3.55641">
        <ele>1369.05</ele>
        <time>2021-08-08T12:39:59Z</time>
      </trkpt>
      <trkpt lat="44.15023" lon="3.55601">
        <ele>1366.65</ele>
        <time>2021-08-08T12:40:07Z</time>
      </trkpt>
      <trkpt lat="44.15026" lon="3.55512">
        <ele>1362.33</ele>
        <time>2021-08-08T12:40:15Z</time>
      </trkpt>
      <trkpt lat="44.15026" lon="3.5549">
        <ele>1362.81</ele>
        <time>2021-08-08T12:40:17Z</time>
      </trkpt>
      <trkpt lat="44.1503" lon="3.55457">
        <ele>1360.4</ele>
        <time>2021-08-08T12:40:20Z</time>
      </trkpt>
      <trkpt lat="44.15062" lon="3.55415">
        <ele>1356.56</ele>
        <time>2021-08-08T12:40:26Z</time>
      </trkpt>
      <trkpt lat="44.151" lon="3.55413">
        <ele>1353.67</ele>
        <time>2021-08-08T12:40:31Z</time>
      </trkpt>
      <trkpt lat="44.15108" lon="3.55417">
        <ele>1352.71</ele>
        <time>2021-08-08T12:40:32Z</time>
      </trkpt>
      <trkpt lat="44.15123" lon="3.55426">
        <ele>1351.27</ele>
        <time>2021-08-08T12:40:34Z</time>
      </trkpt>
      <trkpt lat="44.15152" lon="3.55446">
        <ele>1348.87</ele>
        <time>2021-08-08T12:40:38Z</time>
      </trkpt>
      <trkpt lat="44.15185" lon="3.5545">
        <ele>1346.94</ele>
        <time>2021-08-08T12:40:43Z</time>
      </trkpt>
      <trkpt lat="44.15204" lon="3.55393">
        <ele>1346.46</ele>
        <time>2021-08-08T12:40:49Z</time>
      </trkpt>
      <trkpt lat="44.15204" lon="3.55381">
        <ele>1345.5</ele>
        <time>2021-08-08T12:40:50Z</time>
      </trkpt>
      <trkpt lat="44.152" lon="3.55316">
        <ele>1342.14</ele>
        <time>2021-08-08T12:40:56Z</time>
      </trkpt>
      <trkpt lat="44.15197" lon="3.55284">
        <ele>1341.18</ele>
        <time>2021-08-08T12:40:59Z</time>
      </trkpt>
      <trkpt lat="44.15188" lon="3.55254">
        <ele>1340.22</ele>
        <time>2021-08-08T12:41:02Z</time>
      </trkpt>
      <trkpt lat="44.15175" lon="3.55228">
        <ele>1338.77</ele>
        <time>2021-08-08T12:41:05Z</time>
      </trkpt>
      <trkpt lat="44.15163" lon="3.55204">
        <ele>1337.33</ele>
        <time>2021-08-08T12:41:08Z</time>
      </trkpt>
      <trkpt lat="44.15147" lon="3.55169">
        <ele>1335.41</ele>
        <time>2021-08-08T12:41:12Z</time>
      </trkpt>
      <trkpt lat="44.1514" lon="3.55104">
        <ele>1331.56</ele>
        <time>2021-08-08T12:41:18Z</time>
      </trkpt>
      <trkpt lat="44.15141" lon="3.55092">
        <ele>1331.08</ele>
        <time>2021-08-08T12:41:19Z</time>
      </trkpt>
      <trkpt lat="44.15146" lon="3.5507">
        <ele>1330.6</ele>
        <time>2021-08-08T12:41:21Z</time>
      </trkpt>
      <trkpt lat="44.15171" lon="3.55002">
        <ele>1326.76</ele>
        <time>2021-08-08T12:41:28Z</time>
      </trkpt>
      <trkpt lat="44.15193" lon="3.54961">
        <ele>1322.91</ele>
        <time>2021-08-08T12:41:33Z</time>
      </trkpt>
      <trkpt lat="44.15197" lon="3.54953">
        <ele>1322.91</ele>
        <time>2021-08-08T12:41:34Z</time>
      </trkpt>
      <trkpt lat="44.15202" lon="3.54946">
        <ele>1322.91</ele>
        <time>2021-08-08T12:41:35Z</time>
      </trkpt>
      <trkpt lat="44.15246" lon="3.54906">
        <ele>1319.55</ele>
        <time>2021-08-08T12:41:42Z</time>
      </trkpt>
      <trkpt lat="44.15273" lon="3.54887">
        <ele>1316.18</ele>
        <time>2021-08-08T12:41:46Z</time>
      </trkpt>
      <trkpt lat="44.15304" lon="3.54871">
        <ele>1313.78</ele>
        <time>2021-08-08T12:41:50Z</time>
      </trkpt>
      <trkpt lat="44.15341" lon="3.54869">
        <ele>1312.34</ele>
        <time>2021-08-08T12:41:54Z</time>
      </trkpt>
      <trkpt lat="44.15381" lon="3.54877">
        <ele>1308.01</ele>
        <time>2021-08-08T12:41:59Z</time>
      </trkpt>
      <trkpt lat="44.15426" lon="3.54881">
        <ele>1305.61</ele>
        <time>2021-08-08T12:42:05Z</time>
      </trkpt>
      <trkpt lat="44.15464" lon="3.54852">
        <ele>1304.17</ele>
        <time>2021-08-08T12:42:11Z</time>
      </trkpt>
      <trkpt lat="44.15509" lon="3.54801">
        <ele>1298.88</ele>
        <time>2021-08-08T12:42:18Z</time>
      </trkpt>
      <trkpt lat="44.15518" lon="3.54797">
        <ele>1298.88</ele>
        <time>2021-08-08T12:42:19Z</time>
      </trkpt>
      <trkpt lat="44.15559" lon="3.5478">
        <ele>1295.51</ele>
        <time>2021-08-08T12:42:24Z</time>
      </trkpt>
      <trkpt lat="44.15609" lon="3.54724">
        <ele>1291.67</ele>
        <time>2021-08-08T12:42:32Z</time>
      </trkpt>
      <trkpt lat="44.15613" lon="3.54715">
        <ele>1291.67</ele>
        <time>2021-08-08T12:42:33Z</time>
      </trkpt>
      <trkpt lat="44.15635" lon="3.54655">
        <ele>1287.82</ele>
        <time>2021-08-08T12:42:39Z</time>
      </trkpt>
      <trkpt lat="44.15649" lon="3.54624">
        <ele>1286.38</ele>
        <time>2021-08-08T12:42:42Z</time>
      </trkpt>
      <trkpt lat="44.1568" lon="3.54578">
        <ele>1283.5</ele>
        <time>2021-08-08T12:42:47Z</time>
      </trkpt>
      <trkpt lat="44.157" lon="3.54556">
        <ele>1281.57</ele>
        <time>2021-08-08T12:42:50Z</time>
      </trkpt>
      <trkpt lat="44.15743" lon="3.54532">
        <ele>1277.73</ele>
        <time>2021-08-08T12:42:56Z</time>
      </trkpt>
      <trkpt lat="44.15751" lon="3.54529">
        <ele>1277.25</ele>
        <time>2021-08-08T12:42:57Z</time>
      </trkpt>
      <trkpt lat="44.15772" lon="3.54519">
        <ele>1275.81</ele>
        <time>2021-08-08T12:43:00Z</time>
      </trkpt>
      <trkpt lat="44.15832" lon="3.54496">
        <ele>1272.44</ele>
        <time>2021-08-08T12:43:08Z</time>
      </trkpt>
      <trkpt lat="44.15885" lon="3.5449">
        <ele>1268.6</ele>
        <time>2021-08-08T12:43:15Z</time>
      </trkpt>
      <trkpt lat="44.15929" lon="3.54499">
        <ele>1265.23</ele>
        <time>2021-08-08T12:43:21Z</time>
      </trkpt>
      <trkpt lat="44.15992" lon="3.54489">
        <ele>1260.43</ele>
        <time>2021-08-08T12:43:29Z</time>
      </trkpt>
      <trkpt lat="44.16" lon="3.54487">
        <ele>1260.43</ele>
        <time>2021-08-08T12:43:30Z</time>
      </trkpt>
      <trkpt lat="44.16016" lon="3.54485">
        <ele>1258.98</ele>
        <time>2021-08-08T12:43:32Z</time>
      </trkpt>
      <trkpt lat="44.16024" lon="3.54484">
        <ele>1258.02</ele>
        <time>2021-08-08T12:43:33Z</time>
      </trkpt>
      <trkpt lat="44.16057" lon="3.54493">
        <ele>1256.58</ele>
        <time>2021-08-08T12:43:37Z</time>
      </trkpt>
      <trkpt lat="44.16097" lon="3.54541">
        <ele>1252.74</ele>
        <time>2021-08-08T12:43:43Z</time>
      </trkpt>
      <trkpt lat="44.16102" lon="3.5459">
        <ele>1250.33</ele>
        <time>2021-08-08T12:43:47Z</time>
      </trkpt>
      <trkpt lat="44.16094" lon="3.5464">
        <ele>1247.93</ele>
        <time>2021-08-08T12:43:51Z</time>
      </trkpt>
      <trkpt lat="44.16085" lon="3.54698">
        <ele>1245.04</ele>
        <time>2021-08-08T12:43:56Z</time>
      </trkpt>
      <trkpt lat="44.16078" lon="3.54769">
        <ele>1241.68</ele>
        <time>2021-08-08T12:44:02Z</time>
      </trkpt>
      <trkpt lat="44.16078" lon="3.54804">
        <ele>1238.8</ele>
        <time>2021-08-08T12:44:05Z</time>
      </trkpt>
      <trkpt lat="44.16082" lon="3.54862">
        <ele>1236.39</ele>
        <time>2021-08-08T12:44:10Z</time>
      </trkpt>
      <trkpt lat="44.16116" lon="3.54932">
        <ele>1233.51</ele>
        <time>2021-08-08T12:44:18Z</time>
      </trkpt>
      <trkpt lat="44.16137" lon="3.54931">
        <ele>1232.07</ele>
        <time>2021-08-08T12:44:21Z</time>
      </trkpt>
      <trkpt lat="44.16173" lon="3.54921">
        <ele>1229.66</ele>
        <time>2021-08-08T12:44:26Z</time>
      </trkpt>
      <trkpt lat="44.1622" lon="3.5489">
        <ele>1226.3</ele>
        <time>2021-08-08T12:44:33Z</time>
      </trkpt>
      <trkpt lat="44.16254" lon="3.54867">
        <ele>1223.42</ele>
        <time>2021-08-08T12:44:38Z</time>
      </trkpt>
      <trkpt lat="44.16284" lon="3.54866">
        <ele>1221.01</ele>
        <time>2021-08-08T12:44:42Z</time>
      </trkpt>
      <trkpt lat="44.16298" lon="3.54871">
        <ele>1219.57</ele>
        <time>2021-08-08T12:44:44Z</time>
      </trkpt>
      <trkpt lat="44.16336" lon="3.54868">
        <ele>1217.17</ele>
        <time>2021-08-08T12:44:49Z</time>
      </trkpt>
      <trkpt lat="44.16357" lon="3.54859">
        <ele>1214.76</ele>
        <time>2021-08-08T12:44:52Z</time>
      </trkpt>
      <trkpt lat="44.16406" lon="3.54881">
        <ele>1211.4</ele>
        <time>2021-08-08T12:44:59Z</time>
      </trkpt>
      <trkpt lat="44.1641" lon="3.54891">
        <ele>1210.44</ele>
        <time>2021-08-08T12:45:00Z</time>
      </trkpt>
      <trkpt lat="44.16418" lon="3.54908">
        <ele>1209</ele>
        <time>2021-08-08T12:45:02Z</time>
      </trkpt>
      <trkpt lat="44.16436" lon="3.54955">
        <ele>1205.63</ele>
        <time>2021-08-08T12:45:10Z</time>
      </trkpt>
      <trkpt lat="44.16445" lon="3.54969">
        <ele>1205.63</ele>
        <time>2021-08-08T12:45:14Z</time>
      </trkpt>
      <trkpt lat="44.16452" lon="3.54962">
        <ele>1205.15</ele>
        <time>2021-08-08T12:45:19Z</time>
      </trkpt>
      <trkpt lat="44.16453" lon="3.5495">
        <ele>1204.67</ele>
        <time>2021-08-08T12:45:24Z</time>
      </trkpt>
      <trkpt lat="44.16451" lon="3.5494">
        <ele>1204.19</ele>
        <time>2021-08-08T12:45:35Z</time>
      </trkpt>
      <trkpt lat="44.16452" lon="3.54944">
        <ele>1203.71</ele>
        <time>2021-08-08T12:45:49Z</time>
      </trkpt>
      <trkpt lat="44.1645" lon="3.54942">
        <ele>1204.19</ele>
        <time>2021-08-08T12:46:01Z</time>
      </trkpt>
      <trkpt lat="44.16451" lon="3.54941">
        <ele>1204.67</ele>
        <time>2021-08-08T12:46:17Z</time>
      </trkpt>
      <trkpt lat="44.16439" lon="3.549">
        <ele>1201.3</ele>
        <time>2021-08-08T12:46:28Z</time>
      </trkpt>
      <trkpt lat="44.16437" lon="3.54895">
        <ele>1201.3</ele>
        <time>2021-08-08T12:46:29Z</time>
      </trkpt>
      <trkpt lat="44.16426" lon="3.54859">
        <ele>1197.94</ele>
        <time>2021-08-08T12:46:37Z</time>
      </trkpt>
      <trkpt lat="44.16425" lon="3.54854">
        <ele>1197.94</ele>
        <time>2021-08-08T12:46:38Z</time>
      </trkpt>
      <trkpt lat="44.16419" lon="3.54839">
        <ele>1196.98</ele>
        <time>2021-08-08T12:46:41Z</time>
      </trkpt>
      <trkpt lat="44.16397" lon="3.54793">
        <ele>1193.61</ele>
        <time>2021-08-08T12:46:52Z</time>
      </trkpt>
      <trkpt lat="44.16363" lon="3.54769">
        <ele>1191.21</ele>
        <time>2021-08-08T12:47:04Z</time>
      </trkpt>
      <trkpt lat="44.16327" lon="3.54778">
        <ele>1191.69</ele>
        <time>2021-08-08T12:47:18Z</time>
      </trkpt>
      <trkpt lat="44.16292" lon="3.54776">
        <ele>1189.77</ele>
        <time>2021-08-08T12:47:29Z</time>
      </trkpt>
      <trkpt lat="44.16249" lon="3.54769">
        <ele>1186.88</ele>
        <time>2021-08-08T12:47:42Z</time>
      </trkpt>
      <trkpt lat="44.16223" lon="3.54777">
        <ele>1184</ele>
        <time>2021-08-08T12:47:51Z</time>
      </trkpt>
      <trkpt lat="44.16218" lon="3.54778">
        <ele>1183.04</ele>
        <time>2021-08-08T12:47:53Z</time>
      </trkpt>
      <trkpt lat="44.16213" lon="3.54776">
        <ele>1182.56</ele>
        <time>2021-08-08T12:47:57Z</time>
      </trkpt>
      <trkpt lat="44.16197" lon="3.54764">
        <ele>1181.6</ele>
        <time>2021-08-08T12:48:06Z</time>
      </trkpt>
      <trkpt lat="44.16188" lon="3.5475">
        <ele>1180.64</ele>
        <time>2021-08-08T12:48:14Z</time>
      </trkpt>
      <trkpt lat="44.16185" lon="3.54743">
        <ele>1180.16</ele>
        <time>2021-08-08T12:48:20Z</time>
      </trkpt>
      <trkpt lat="44.16187" lon="3.54728">
        <ele>1180.16</ele>
        <time>2021-08-08T12:48:25Z</time>
      </trkpt>
      <trkpt lat="44.16198" lon="3.54712">
        <ele>1180.16</ele>
        <time>2021-08-08T12:48:28Z</time>
      </trkpt>
      <trkpt lat="44.16227" lon="3.54654">
        <ele>1179.67</ele>
        <time>2021-08-08T12:48:42Z</time>
      </trkpt>
      <trkpt lat="44.16233" lon="3.54647">
        <ele>1179.67</ele>
        <time>2021-08-08T12:48:45Z</time>
      </trkpt>
      <trkpt lat="44.16237" lon="3.54639">
        <ele>1179.19</ele>
        <time>2021-08-08T12:48:48Z</time>
      </trkpt>
      <trkpt lat="44.16245" lon="3.54623">
        <ele>1179.19</ele>
        <time>2021-08-08T12:48:53Z</time>
      </trkpt>
      <trkpt lat="44.16251" lon="3.546">
        <ele>1178.23</ele>
        <time>2021-08-08T12:49:03Z</time>
      </trkpt>
      <trkpt lat="44.16252" lon="3.54587">
        <ele>1178.23</ele>
        <time>2021-08-08T12:49:09Z</time>
      </trkpt>
      <trkpt lat="44.16247" lon="3.54543">
        <ele>1177.27</ele>
        <time>2021-08-08T12:49:21Z</time>
      </trkpt>
      <trkpt lat="44.16234" lon="3.54514">
        <ele>1176.79</ele>
        <time>2021-08-08T12:49:31Z</time>
      </trkpt>
      <trkpt lat="44.16213" lon="3.54459">
        <ele>1176.31</ele>
        <time>2021-08-08T12:49:44Z</time>
      </trkpt>
      <trkpt lat="44.162" lon="3.54434">
        <ele>1176.31</ele>
        <time>2021-08-08T12:49:55Z</time>
      </trkpt>
      <trkpt lat="44.1619" lon="3.54416">
        <ele>1177.75</ele>
        <time>2021-08-08T12:50:04Z</time>
      </trkpt>
      <trkpt lat="44.16164" lon="3.54363">
        <ele>1178.23</ele>
        <time>2021-08-08T12:50:16Z</time>
      </trkpt>
      <trkpt lat="44.16144" lon="3.54319">
        <ele>1175.83</ele>
        <time>2021-08-08T12:50:28Z</time>
      </trkpt>
      <trkpt lat="44.16136" lon="3.54288">
        <ele>1175.83</ele>
        <time>2021-08-08T12:50:35Z</time>
      </trkpt>
      <trkpt lat="44.16137" lon="3.54275">
        <ele>1176.31</ele>
        <time>2021-08-08T12:50:40Z</time>
      </trkpt>
      <trkpt lat="44.16139" lon="3.54273">
        <ele>1176.31</ele>
        <time>2021-08-08T12:50:41Z</time>
      </trkpt>
      <trkpt lat="44.16153" lon="3.54272">
        <ele>1177.75</ele>
        <time>2021-08-08T12:50:50Z</time>
      </trkpt>
      <trkpt lat="44.16164" lon="3.54266">
        <ele>1178.23</ele>
        <time>2021-08-08T12:50:56Z</time>
      </trkpt>
      <trkpt lat="44.16181" lon="3.54256">
        <ele>1179.19</ele>
        <time>2021-08-08T12:51:06Z</time>
      </trkpt>
      <trkpt lat="44.16198" lon="3.54247">
        <ele>1183.04</ele>
        <time>2021-08-08T12:51:18Z</time>
      </trkpt>
      <trkpt lat="44.16206" lon="3.54246">
        <ele>1183.52</ele>
        <time>2021-08-08T12:51:24Z</time>
      </trkpt>
      <trkpt lat="44.16213" lon="3.54249">
        <ele>1183.52</ele>
        <time>2021-08-08T12:51:29Z</time>
      </trkpt>
      <trkpt lat="44.16223" lon="3.54254">
        <ele>1184.96</ele>
        <time>2021-08-08T12:51:36Z</time>
      </trkpt>
      <trkpt lat="44.1624" lon="3.54269">
        <ele>1186.88</ele>
        <time>2021-08-08T12:51:50Z</time>
      </trkpt>
      <trkpt lat="44.16244" lon="3.54272">
        <ele>1187.85</ele>
        <time>2021-08-08T12:51:53Z</time>
      </trkpt>
      <trkpt lat="44.16249" lon="3.54276">
        <ele>1188.33</ele>
        <time>2021-08-08T12:51:57Z</time>
      </trkpt>
      <trkpt lat="44.16256" lon="3.5428">
        <ele>1189.29</ele>
        <time>2021-08-08T12:52:02Z</time>
      </trkpt>
      <trkpt lat="44.1627" lon="3.54292">
        <ele>1190.73</ele>
        <time>2021-08-08T12:52:12Z</time>
      </trkpt>
      <trkpt lat="44.16292" lon="3.54307">
        <ele>1192.17</ele>
        <time>2021-08-08T12:52:26Z</time>
      </trkpt>
      <trkpt lat="44.16319" lon="3.54323">
        <ele>1193.61</ele>
        <time>2021-08-08T12:52:41Z</time>
      </trkpt>
      <trkpt lat="44.16349" lon="3.54316">
        <ele>1194.58</ele>
        <time>2021-08-08T12:52:55Z</time>
      </trkpt>
      <trkpt lat="44.16357" lon="3.54304">
        <ele>1195.54</ele>
        <time>2021-08-08T12:53:05Z</time>
      </trkpt>
      <trkpt lat="44.16361" lon="3.54296">
        <ele>1196.5</ele>
        <time>2021-08-08T12:53:09Z</time>
      </trkpt>
      <trkpt lat="44.16367" lon="3.54278">
        <ele>1198.9</ele>
        <time>2021-08-08T12:53:22Z</time>
      </trkpt>
      <trkpt lat="44.16376" lon="3.54254">
        <ele>1200.82</ele>
        <time>2021-08-08T12:53:33Z</time>
      </trkpt>
      <trkpt lat="44.16377" lon="3.54241">
        <ele>1201.79</ele>
        <time>2021-08-08T12:53:41Z</time>
      </trkpt>
      <trkpt lat="44.16382" lon="3.54237">
        <ele>1202.27</ele>
        <time>2021-08-08T12:53:56Z</time>
      </trkpt>
      <trkpt lat="44.16381" lon="3.54232">
        <ele>1201.79</ele>
        <time>2021-08-08T12:54:19Z</time>
      </trkpt>
      <trkpt lat="44.16382" lon="3.54226">
        <ele>1201.3</ele>
        <time>2021-08-08T12:54:47Z</time>
      </trkpt>
      <trkpt lat="44.16383" lon="3.54221">
        <ele>1201.79</ele>
        <time>2021-08-08T12:55:04Z</time>
      </trkpt>
      <trkpt lat="44.16382" lon="3.54221">
        <ele>1202.27</ele>
        <time>2021-08-08T12:55:23Z</time>
      </trkpt>
      <trkpt lat="44.16382" lon="3.54219">
        <ele>1202.27</ele>
        <time>2021-08-08T12:55:28Z</time>
      </trkpt>
      <trkpt lat="44.16378" lon="3.54214">
        <ele>1203.23</ele>
        <time>2021-08-08T12:55:32Z</time>
      </trkpt>
      <trkpt lat="44.16372" lon="3.54193">
        <ele>1204.67</ele>
        <time>2021-08-08T12:55:46Z</time>
      </trkpt>
      <trkpt lat="44.16371" lon="3.54183">
        <ele>1206.11</ele>
        <time>2021-08-08T12:55:54Z</time>
      </trkpt>
      <trkpt lat="44.16371" lon="3.54175">
        <ele>1206.59</ele>
        <time>2021-08-08T12:55:59Z</time>
      </trkpt>
      <trkpt lat="44.16382" lon="3.54156">
        <ele>1208.51</ele>
        <time>2021-08-08T12:56:11Z</time>
      </trkpt>
      <trkpt lat="44.16384" lon="3.54154">
        <ele>1209</ele>
        <time>2021-08-08T12:56:12Z</time>
      </trkpt>
      <trkpt lat="44.164" lon="3.54128">
        <ele>1210.44</ele>
        <time>2021-08-08T12:56:24Z</time>
      </trkpt>
      <trkpt lat="44.1641" lon="3.54111">
        <ele>1211.88</ele>
        <time>2021-08-08T12:56:37Z</time>
      </trkpt>
      <trkpt lat="44.16417" lon="3.54089">
        <ele>1212.84</ele>
        <time>2021-08-08T12:56:47Z</time>
      </trkpt>
      <trkpt lat="44.16425" lon="3.54067">
        <ele>1214.28</ele>
        <time>2021-08-08T12:56:57Z</time>
      </trkpt>
      <trkpt lat="44.16438" lon="3.54052">
        <ele>1215.72</ele>
        <time>2021-08-08T12:57:05Z</time>
      </trkpt>
      <trkpt lat="44.16449" lon="3.54034">
        <ele>1216.69</ele>
        <time>2021-08-08T12:57:11Z</time>
      </trkpt>
      <trkpt lat="44.16462" lon="3.54019">
        <ele>1217.65</ele>
        <time>2021-08-08T12:57:17Z</time>
      </trkpt>
      <trkpt lat="44.16491" lon="3.5399">
        <ele>1220.05</ele>
        <time>2021-08-08T12:57:31Z</time>
      </trkpt>
      <trkpt lat="44.16513" lon="3.53969">
        <ele>1221.49</ele>
        <time>2021-08-08T12:57:44Z</time>
      </trkpt>
      <trkpt lat="44.16525" lon="3.53949">
        <ele>1222.93</ele>
        <time>2021-08-08T12:57:56Z</time>
      </trkpt>
      <trkpt lat="44.16529" lon="3.5394">
        <ele>1223.42</ele>
        <time>2021-08-08T12:58:01Z</time>
      </trkpt>
      <trkpt lat="44.16529" lon="3.53904">
        <ele>1223.9</ele>
        <time>2021-08-08T12:58:13Z</time>
      </trkpt>
      <trkpt lat="44.16531" lon="3.53899">
        <ele>1224.38</ele>
        <time>2021-08-08T12:58:17Z</time>
      </trkpt>
      <trkpt lat="44.16528" lon="3.53896">
        <ele>1224.86</ele>
        <time>2021-08-08T12:58:19Z</time>
      </trkpt>
      <trkpt lat="44.16527" lon="3.53893">
        <ele>1224.86</ele>
        <time>2021-08-08T12:58:21Z</time>
      </trkpt>
      <trkpt lat="44.16522" lon="3.53878">
        <ele>1225.82</ele>
        <time>2021-08-08T12:58:27Z</time>
      </trkpt>
      <trkpt lat="44.16516" lon="3.53862">
        <ele>1225.82</ele>
        <time>2021-08-08T12:58:32Z</time>
      </trkpt>
      <trkpt lat="44.16509" lon="3.53845">
        <ele>1226.3</ele>
        <time>2021-08-08T12:58:38Z</time>
      </trkpt>
      <trkpt lat="44.16497" lon="3.53828">
        <ele>1227.26</ele>
        <time>2021-08-08T12:58:46Z</time>
      </trkpt>
      <trkpt lat="44.16478" lon="3.53799">
        <ele>1228.7</ele>
        <time>2021-08-08T12:58:56Z</time>
      </trkpt>
      <trkpt lat="44.16455" lon="3.53765">
        <ele>1229.18</ele>
        <time>2021-08-08T12:59:09Z</time>
      </trkpt>
      <trkpt lat="44.16442" lon="3.53743">
        <ele>1228.7</ele>
        <time>2021-08-08T12:59:15Z</time>
      </trkpt>
      <trkpt lat="44.16409" lon="3.53708">
        <ele>1228.7</ele>
        <time>2021-08-08T12:59:26Z</time>
      </trkpt>
      <trkpt lat="44.16395" lon="3.53688">
        <ele>1230.14</ele>
        <time>2021-08-08T12:59:35Z</time>
      </trkpt>
      <trkpt lat="44.1638" lon="3.53656">
        <ele>1233.03</ele>
        <time>2021-08-08T12:59:49Z</time>
      </trkpt>
      <trkpt lat="44.16375" lon="3.53652">
        <ele>1233.99</ele>
        <time>2021-08-08T12:59:52Z</time>
      </trkpt>
      <trkpt lat="44.16383" lon="3.53643">
        <ele>1233.99</ele>
        <time>2021-08-08T13:00:01Z</time>
      </trkpt>
      <trkpt lat="44.16384" lon="3.53618">
        <ele>1235.91</ele>
        <time>2021-08-08T13:00:15Z</time>
      </trkpt>
      <trkpt lat="44.16383" lon="3.53612">
        <ele>1236.39</ele>
        <time>2021-08-08T13:00:21Z</time>
      </trkpt>
      <trkpt lat="44.16379" lon="3.53598">
        <ele>1237.83</ele>
        <time>2021-08-08T13:00:35Z</time>
      </trkpt>
      <trkpt lat="44.16377" lon="3.53587">
        <ele>1238.32</ele>
        <time>2021-08-08T13:00:44Z</time>
      </trkpt>
      <trkpt lat="44.16379" lon="3.53572">
        <ele>1239.28</ele>
        <time>2021-08-08T13:00:55Z</time>
      </trkpt>
      <trkpt lat="44.16371" lon="3.53559">
        <ele>1240.72</ele>
        <time>2021-08-08T13:01:07Z</time>
      </trkpt>
      <trkpt lat="44.16371" lon="3.53555">
        <ele>1240.72</ele>
        <time>2021-08-08T13:01:13Z</time>
      </trkpt>
      <trkpt lat="44.1638" lon="3.5354">
        <ele>1241.68</ele>
        <time>2021-08-08T13:01:23Z</time>
      </trkpt>
      <trkpt lat="44.16385" lon="3.53529">
        <ele>1243.12</ele>
        <time>2021-08-08T13:01:36Z</time>
      </trkpt>
      <trkpt lat="44.16397" lon="3.53522">
        <ele>1244.08</ele>
        <time>2021-08-08T13:01:42Z</time>
      </trkpt>
      <trkpt lat="44.16401" lon="3.53517">
        <ele>1244.56</ele>
        <time>2021-08-08T13:01:45Z</time>
      </trkpt>
      <trkpt lat="44.16416" lon="3.53509">
        <ele>1245.53</ele>
        <time>2021-08-08T13:01:59Z</time>
      </trkpt>
      <trkpt lat="44.16433" lon="3.53498">
        <ele>1247.45</ele>
        <time>2021-08-08T13:02:14Z</time>
      </trkpt>
      <trkpt lat="44.16441" lon="3.53491">
        <ele>1248.89</ele>
        <time>2021-08-08T13:02:28Z</time>
      </trkpt>
      <trkpt lat="44.16444" lon="3.53486">
        <ele>1249.37</ele>
        <time>2021-08-08T13:02:33Z</time>
      </trkpt>
      <trkpt lat="44.1645" lon="3.53479">
        <ele>1249.85</ele>
        <time>2021-08-08T13:02:40Z</time>
      </trkpt>
      <trkpt lat="44.16463" lon="3.53472">
        <ele>1250.33</ele>
        <time>2021-08-08T13:02:46Z</time>
      </trkpt>
      <trkpt lat="44.16473" lon="3.53456">
        <ele>1250.81</ele>
        <time>2021-08-08T13:02:53Z</time>
      </trkpt>
      <trkpt lat="44.16485" lon="3.53439">
        <ele>1251.29</ele>
        <time>2021-08-08T13:03:02Z</time>
      </trkpt>
      <trkpt lat="44.16487" lon="3.53437">
        <ele>1251.29</ele>
        <time>2021-08-08T13:03:04Z</time>
      </trkpt>
      <trkpt lat="44.16497" lon="3.53413">
        <ele>1251.29</ele>
        <time>2021-08-08T13:03:13Z</time>
      </trkpt>
      <trkpt lat="44.16509" lon="3.53365">
        <ele>1250.33</ele>
        <time>2021-08-08T13:03:24Z</time>
      </trkpt>
      <trkpt lat="44.16508" lon="3.53326">
        <ele>1248.41</ele>
        <time>2021-08-08T13:03:32Z</time>
      </trkpt>
      <trkpt lat="44.16498" lon="3.53303">
        <ele>1246.49</ele>
        <time>2021-08-08T13:03:38Z</time>
      </trkpt>
      <trkpt lat="44.16499" lon="3.53286">
        <ele>1246.97</ele>
        <time>2021-08-08T13:03:45Z</time>
      </trkpt>
      <trkpt lat="44.16503" lon="3.53282">
        <ele>1246.97</ele>
        <time>2021-08-08T13:03:47Z</time>
      </trkpt>
      <trkpt lat="44.16509" lon="3.53269">
        <ele>1246.49</ele>
        <time>2021-08-08T13:03:52Z</time>
      </trkpt>
      <trkpt lat="44.16519" lon="3.53255">
        <ele>1246.01</ele>
        <time>2021-08-08T13:03:56Z</time>
      </trkpt>
      <trkpt lat="44.16544" lon="3.53202">
        <ele>1244.56</ele>
        <time>2021-08-08T13:04:07Z</time>
      </trkpt>
      <trkpt lat="44.16544" lon="3.53196">
        <ele>1244.56</ele>
        <time>2021-08-08T13:04:08Z</time>
      </trkpt>
      <trkpt lat="44.16536" lon="3.53138">
        <ele>1241.68</ele>
        <time>2021-08-08T13:04:18Z</time>
      </trkpt>
      <trkpt lat="44.16533" lon="3.53107">
        <ele>1240.24</ele>
        <time>2021-08-08T13:04:24Z</time>
      </trkpt>
      <trkpt lat="44.1654" lon="3.53049">
        <ele>1236.39</ele>
        <time>2021-08-08T13:04:33Z</time>
      </trkpt>
      <trkpt lat="44.1655" lon="3.53003">
        <ele>1234.47</ele>
        <time>2021-08-08T13:04:40Z</time>
      </trkpt>
      <trkpt lat="44.16569" lon="3.52942">
        <ele>1233.99</ele>
        <time>2021-08-08T13:04:49Z</time>
      </trkpt>
      <trkpt lat="44.1658" lon="3.52932">
        <ele>1234.47</ele>
        <time>2021-08-08T13:04:53Z</time>
      </trkpt>
      <trkpt lat="44.16593" lon="3.52916">
        <ele>1234.95</ele>
        <time>2021-08-08T13:05:00Z</time>
      </trkpt>
      <trkpt lat="44.16615" lon="3.52893">
        <ele>1235.91</ele>
        <time>2021-08-08T13:05:12Z</time>
      </trkpt>
      <trkpt lat="44.16623" lon="3.52888">
        <ele>1235.91</ele>
        <time>2021-08-08T13:05:15Z</time>
      </trkpt>
      <trkpt lat="44.1665" lon="3.52841">
        <ele>1235.43</ele>
        <time>2021-08-08T13:05:27Z</time>
      </trkpt>
      <trkpt lat="44.16659" lon="3.52814">
        <ele>1234.95</ele>
        <time>2021-08-08T13:05:31Z</time>
      </trkpt>
      <trkpt lat="44.16662" lon="3.52775">
        <ele>1233.99</ele>
        <time>2021-08-08T13:05:37Z</time>
      </trkpt>
      <trkpt lat="44.16659" lon="3.52761">
        <ele>1232.55</ele>
        <time>2021-08-08T13:05:40Z</time>
      </trkpt>
      <trkpt lat="44.16658" lon="3.52756">
        <ele>1232.07</ele>
        <time>2021-08-08T13:05:41Z</time>
      </trkpt>
      <trkpt lat="44.16645" lon="3.52716">
        <ele>1228.7</ele>
        <time>2021-08-08T13:05:51Z</time>
      </trkpt>
      <trkpt lat="44.16637" lon="3.52707">
        <ele>1227.74</ele>
        <time>2021-08-08T13:05:56Z</time>
      </trkpt>
      <trkpt lat="44.16624" lon="3.52693">
        <ele>1228.22</ele>
        <time>2021-08-08T13:06:07Z</time>
      </trkpt>
      <trkpt lat="44.16624" lon="3.52693">
        <ele>1228.22</ele>
        <time>2021-08-08T13:06:08Z</time>
      </trkpt>
      <trkpt lat="44.16623" lon="3.52692">
        <ele>1228.22</ele>
        <time>2021-08-08T13:06:10Z</time>
      </trkpt>
      <trkpt lat="44.16615" lon="3.52673">
        <ele>1226.3</ele>
        <time>2021-08-08T13:06:16Z</time>
      </trkpt>
      <trkpt lat="44.16612" lon="3.52658">
        <ele>1224.86</ele>
        <time>2021-08-08T13:06:20Z</time>
      </trkpt>
      <trkpt lat="44.16611" lon="3.52638">
        <ele>1224.86</ele>
        <time>2021-08-08T13:06:28Z</time>
      </trkpt>
      <trkpt lat="44.16614" lon="3.52632">
        <ele>1224.38</ele>
        <time>2021-08-08T13:06:31Z</time>
      </trkpt>
      <trkpt lat="44.16625" lon="3.52627">
        <ele>1224.86</ele>
        <time>2021-08-08T13:06:43Z</time>
      </trkpt>
      <trkpt lat="44.16629" lon="3.5262">
        <ele>1224.38</ele>
        <time>2021-08-08T13:06:54Z</time>
      </trkpt>
      <trkpt lat="44.16631" lon="3.52617">
        <ele>1224.38</ele>
        <time>2021-08-08T13:06:56Z</time>
      </trkpt>
      <trkpt lat="44.16635" lon="3.52607">
        <ele>1224.86</ele>
        <time>2021-08-08T13:07:00Z</time>
      </trkpt>
      <trkpt lat="44.16646" lon="3.52588">
        <ele>1226.78</ele>
        <time>2021-08-08T13:07:09Z</time>
      </trkpt>
      <trkpt lat="44.16652" lon="3.52579">
        <ele>1227.26</ele>
        <time>2021-08-08T13:07:13Z</time>
      </trkpt>
      <trkpt lat="44.16666" lon="3.52552">
        <ele>1229.18</ele>
        <time>2021-08-08T13:07:25Z</time>
      </trkpt>
      <trkpt lat="44.16668" lon="3.52544">
        <ele>1229.66</ele>
        <time>2021-08-08T13:07:28Z</time>
      </trkpt>
      <trkpt lat="44.16673" lon="3.52518">
        <ele>1231.11</ele>
        <time>2021-08-08T13:07:38Z</time>
      </trkpt>
      <trkpt lat="44.16679" lon="3.52487">
        <ele>1232.07</ele>
        <time>2021-08-08T13:07:52Z</time>
      </trkpt>
      <trkpt lat="44.16682" lon="3.52472">
        <ele>1232.55</ele>
        <time>2021-08-08T13:08:00Z</time>
      </trkpt>
      <trkpt lat="44.16686" lon="3.52462">
        <ele>1232.55</ele>
        <time>2021-08-08T13:08:05Z</time>
      </trkpt>
      <trkpt lat="44.16686" lon="3.52457">
        <ele>1232.55</ele>
        <time>2021-08-08T13:08:07Z</time>
      </trkpt>
      <trkpt lat="44.16691" lon="3.52442">
        <ele>1233.51</ele>
        <time>2021-08-08T13:08:14Z</time>
      </trkpt>
      <trkpt lat="44.16693" lon="3.52437">
        <ele>1233.51</ele>
        <time>2021-08-08T13:08:16Z</time>
      </trkpt>
      <trkpt lat="44.16699" lon="3.52426">
        <ele>1234.95</ele>
        <time>2021-08-08T13:08:21Z</time>
      </trkpt>
      <trkpt lat="44.16704" lon="3.52386">
        <ele>1236.87</ele>
        <time>2021-08-08T13:08:35Z</time>
      </trkpt>
      <trkpt lat="44.16707" lon="3.5235">
        <ele>1239.28</ele>
        <time>2021-08-08T13:08:48Z</time>
      </trkpt>
      <trkpt lat="44.16715" lon="3.52288">
        <ele>1238.8</ele>
        <time>2021-08-08T13:09:06Z</time>
      </trkpt>
      <trkpt lat="44.16716" lon="3.52237">
        <ele>1238.32</ele>
        <time>2021-08-08T13:09:20Z</time>
      </trkpt>
      <trkpt lat="44.1672" lon="3.52204">
        <ele>1237.35</ele>
        <time>2021-08-08T13:09:29Z</time>
      </trkpt>
      <trkpt lat="44.16726" lon="3.5219">
        <ele>1236.87</ele>
        <time>2021-08-08T13:09:39Z</time>
      </trkpt>
      <trkpt lat="44.16726" lon="3.52187">
        <ele>1235.91</ele>
        <time>2021-08-08T13:09:58Z</time>
      </trkpt>
      <trkpt lat="44.16726" lon="3.52186">
        <ele>1236.39</ele>
        <time>2021-08-08T13:10:34Z</time>
      </trkpt>
      <trkpt lat="44.16726" lon="3.52187">
        <ele>1235.91</ele>
        <time>2021-08-08T13:11:01Z</time>
      </trkpt>
      <trkpt lat="44.16727" lon="3.52189">
        <ele>1236.87</ele>
        <time>2021-08-08T13:11:26Z</time>
      </trkpt>
      <trkpt lat="44.16725" lon="3.52191">
        <ele>1236.87</ele>
        <time>2021-08-08T13:11:40Z</time>
      </trkpt>
      <trkpt lat="44.16728" lon="3.52192">
        <ele>1236.87</ele>
        <time>2021-08-08T13:11:51Z</time>
      </trkpt>
      <trkpt lat="44.16729" lon="3.52191">
        <ele>1236.87</ele>
        <time>2021-08-08T13:12:08Z</time>
      </trkpt>
      <trkpt lat="44.16729" lon="3.52191">
        <ele>1236.87</ele>
        <time>2021-08-08T13:12:12Z</time>
      </trkpt>
      <trkpt lat="44.16734" lon="3.52184">
        <ele>1236.87</ele>
        <time>2021-08-08T13:12:17Z</time>
      </trkpt>
      <trkpt lat="44.16744" lon="3.52117">
        <ele>1235.43</ele>
        <time>2021-08-08T13:12:33Z</time>
      </trkpt>
      <trkpt lat="44.16749" lon="3.52057">
        <ele>1233.03</ele>
        <time>2021-08-08T13:12:46Z</time>
      </trkpt>
      <trkpt lat="44.16763" lon="3.51993">
        <ele>1230.62</ele>
        <time>2021-08-08T13:13:00Z</time>
      </trkpt>
      <trkpt lat="44.16775" lon="3.51914">
        <ele>1227.26</ele>
        <time>2021-08-08T13:13:12Z</time>
      </trkpt>
      <trkpt lat="44.16791" lon="3.51848">
        <ele>1223.9</ele>
        <time>2021-08-08T13:13:22Z</time>
      </trkpt>
      <trkpt lat="44.16797" lon="3.5183">
        <ele>1222.93</ele>
        <time>2021-08-08T13:13:25Z</time>
      </trkpt>
      <trkpt lat="44.16806" lon="3.51784">
        <ele>1219.09</ele>
        <time>2021-08-08T13:13:33Z</time>
      </trkpt>
      <trkpt lat="44.16814" lon="3.51743">
        <ele>1217.17</ele>
        <time>2021-08-08T13:13:44Z</time>
      </trkpt>
      <trkpt lat="44.16817" lon="3.51733">
        <ele>1216.69</ele>
        <time>2021-08-08T13:13:46Z</time>
      </trkpt>
      <trkpt lat="44.16834" lon="3.51699">
        <ele>1214.28</ele>
        <time>2021-08-08T13:13:54Z</time>
      </trkpt>
      <trkpt lat="44.16846" lon="3.51643">
        <ele>1212.84</ele>
        <time>2021-08-08T13:14:04Z</time>
      </trkpt>
      <trkpt lat="44.16849" lon="3.51631">
        <ele>1211.88</ele>
        <time>2021-08-08T13:14:06Z</time>
      </trkpt>
      <trkpt lat="44.16872" lon="3.51562">
        <ele>1209</ele>
        <time>2021-08-08T13:14:17Z</time>
      </trkpt>
      <trkpt lat="44.16879" lon="3.51532">
        <ele>1207.55</ele>
        <time>2021-08-08T13:14:21Z</time>
      </trkpt>
      <trkpt lat="44.16887" lon="3.51489">
        <ele>1205.63</ele>
        <time>2021-08-08T13:14:31Z</time>
      </trkpt>
      <trkpt lat="44.16889" lon="3.51463">
        <ele>1204.67</ele>
        <time>2021-08-08T13:14:45Z</time>
      </trkpt>
      <trkpt lat="44.16893" lon="3.51428">
        <ele>1205.15</ele>
        <time>2021-08-08T13:14:57Z</time>
      </trkpt>
      <trkpt lat="44.16889" lon="3.51377">
        <ele>1206.11</ele>
        <time>2021-08-08T13:15:11Z</time>
      </trkpt>
      <trkpt lat="44.16881" lon="3.51333">
        <ele>1205.63</ele>
        <time>2021-08-08T13:15:25Z</time>
      </trkpt>
      <trkpt lat="44.16881" lon="3.51282">
        <ele>1202.75</ele>
        <time>2021-08-08T13:15:39Z</time>
      </trkpt>
      <trkpt lat="44.16888" lon="3.51253">
        <ele>1201.3</ele>
        <time>2021-08-08T13:15:51Z</time>
      </trkpt>
      <trkpt lat="44.16888" lon="3.51252">
        <ele>1200.82</ele>
        <time>2021-08-08T13:15:59Z</time>
      </trkpt>
      <trkpt lat="44.16889" lon="3.51247">
        <ele>1200.82</ele>
        <time>2021-08-08T13:16:02Z</time>
      </trkpt>
      <trkpt lat="44.16899" lon="3.51204">
        <ele>1198.42</ele>
        <time>2021-08-08T13:16:11Z</time>
      </trkpt>
      <trkpt lat="44.1691" lon="3.51167">
        <ele>1194.58</ele>
        <time>2021-08-08T13:16:19Z</time>
      </trkpt>
      <trkpt lat="44.16916" lon="3.51141">
        <ele>1192.65</ele>
        <time>2021-08-08T13:16:25Z</time>
      </trkpt>
      <trkpt lat="44.16924" lon="3.51099">
        <ele>1189.77</ele>
        <time>2021-08-08T13:16:32Z</time>
      </trkpt>
      <trkpt lat="44.16929" lon="3.51084">
        <ele>1189.29</ele>
        <time>2021-08-08T13:16:35Z</time>
      </trkpt>
      <trkpt lat="44.16947" lon="3.51041">
        <ele>1185.44</ele>
        <time>2021-08-08T13:16:44Z</time>
      </trkpt>
      <trkpt lat="44.16953" lon="3.51025">
        <ele>1184</ele>
        <time>2021-08-08T13:16:47Z</time>
      </trkpt>
      <trkpt lat="44.16967" lon="3.50973">
        <ele>1181.12</ele>
        <time>2021-08-08T13:16:57Z</time>
      </trkpt>
      <trkpt lat="44.16982" lon="3.50914">
        <ele>1179.67</ele>
        <time>2021-08-08T13:17:11Z</time>
      </trkpt>
      <trkpt lat="44.16992" lon="3.50834">
        <ele>1176.31</ele>
        <time>2021-08-08T13:17:25Z</time>
      </trkpt>
      <trkpt lat="44.17001" lon="3.5078">
        <ele>1172.95</ele>
        <time>2021-08-08T13:17:36Z</time>
      </trkpt>
      <trkpt lat="44.17008" lon="3.50739">
        <ele>1169.58</ele>
        <time>2021-08-08T13:17:44Z</time>
      </trkpt>
      <trkpt lat="44.17016" lon="3.50719">
        <ele>1167.18</ele>
        <time>2021-08-08T13:17:48Z</time>
      </trkpt>
      <trkpt lat="44.17026" lon="3.50692">
        <ele>1165.26</ele>
        <time>2021-08-08T13:17:53Z</time>
      </trkpt>
      <trkpt lat="44.17046" lon="3.50644">
        <ele>1161.89</ele>
        <time>2021-08-08T13:18:03Z</time>
      </trkpt>
      <trkpt lat="44.17055" lon="3.50623">
        <ele>1160.45</ele>
        <time>2021-08-08T13:18:07Z</time>
      </trkpt>
      <trkpt lat="44.17059" lon="3.50612">
        <ele>1159.49</ele>
        <time>2021-08-08T13:18:09Z</time>
      </trkpt>
      <trkpt lat="44.17063" lon="3.50597">
        <ele>1158.53</ele>
        <time>2021-08-08T13:18:12Z</time>
      </trkpt>
      <trkpt lat="44.17064" lon="3.50592">
        <ele>1158.05</ele>
        <time>2021-08-08T13:18:13Z</time>
      </trkpt>
      <trkpt lat="44.17088" lon="3.50549">
        <ele>1153.72</ele>
        <time>2021-08-08T13:18:23Z</time>
      </trkpt>
      <trkpt lat="44.17101" lon="3.5053">
        <ele>1151.8</ele>
        <time>2021-08-08T13:18:27Z</time>
      </trkpt>
      <trkpt lat="44.17112" lon="3.50517">
        <ele>1150.84</ele>
        <time>2021-08-08T13:18:30Z</time>
      </trkpt>
      <trkpt lat="44.17135" lon="3.50484">
        <ele>1147.47</ele>
        <time>2021-08-08T13:18:37Z</time>
      </trkpt>
      <trkpt lat="44.1715" lon="3.50464">
        <ele>1145.55</ele>
        <time>2021-08-08T13:18:42Z</time>
      </trkpt>
      <trkpt lat="44.17168" lon="3.50438">
        <ele>1143.14</ele>
        <time>2021-08-08T13:18:48Z</time>
      </trkpt>
      <trkpt lat="44.17189" lon="3.50418">
        <ele>1139.78</ele>
        <time>2021-08-08T13:18:54Z</time>
      </trkpt>
      <trkpt lat="44.17208" lon="3.50402">
        <ele>1138.34</ele>
        <time>2021-08-08T13:18:59Z</time>
      </trkpt>
      <trkpt lat="44.17224" lon="3.5039">
        <ele>1136.42</ele>
        <time>2021-08-08T13:19:03Z</time>
      </trkpt>
      <trkpt lat="44.17253" lon="3.50372">
        <ele>1133.05</ele>
        <time>2021-08-08T13:19:12Z</time>
      </trkpt>
      <trkpt lat="44.17262" lon="3.50363">
        <ele>1131.61</ele>
        <time>2021-08-08T13:19:15Z</time>
      </trkpt>
      <trkpt lat="44.17299" lon="3.50325">
        <ele>1128.73</ele>
        <time>2021-08-08T13:19:26Z</time>
      </trkpt>
      <trkpt lat="44.1732" lon="3.50308">
        <ele>1127.28</ele>
        <time>2021-08-08T13:19:31Z</time>
      </trkpt>
      <trkpt lat="44.17334" lon="3.50295">
        <ele>1126.32</ele>
        <time>2021-08-08T13:19:35Z</time>
      </trkpt>
      <trkpt lat="44.17338" lon="3.50292">
        <ele>1126.32</ele>
        <time>2021-08-08T13:19:38Z</time>
      </trkpt>
      <trkpt lat="44.17344" lon="3.50291">
        <ele>1125.84</ele>
        <time>2021-08-08T13:19:41Z</time>
      </trkpt>
      <trkpt lat="44.17352" lon="3.50281">
        <ele>1126.32</ele>
        <time>2021-08-08T13:19:47Z</time>
      </trkpt>
      <trkpt lat="44.17361" lon="3.50274">
        <ele>1125.84</ele>
        <time>2021-08-08T13:19:57Z</time>
      </trkpt>
      <trkpt lat="44.17362" lon="3.50274">
        <ele>1125.84</ele>
        <time>2021-08-08T13:20:08Z</time>
      </trkpt>
      <trkpt lat="44.17365" lon="3.50271">
        <ele>1125.84</ele>
        <time>2021-08-08T13:20:14Z</time>
      </trkpt>
      <trkpt lat="44.17372" lon="3.50262">
        <ele>1126.32</ele>
        <time>2021-08-08T13:20:20Z</time>
      </trkpt>
      <trkpt lat="44.17394" lon="3.50238">
        <ele>1127.28</ele>
        <time>2021-08-08T13:20:34Z</time>
      </trkpt>
      <trkpt lat="44.1741" lon="3.50223">
        <ele>1128.73</ele>
        <time>2021-08-08T13:20:44Z</time>
      </trkpt>
      <trkpt lat="44.17418" lon="3.50213">
        <ele>1129.21</ele>
        <time>2021-08-08T13:20:50Z</time>
      </trkpt>
      <trkpt lat="44.17433" lon="3.5018">
        <ele>1129.21</ele>
        <time>2021-08-08T13:21:05Z</time>
      </trkpt>
      <trkpt lat="44.17452" lon="3.50154">
        <ele>1128.73</ele>
        <time>2021-08-08T13:21:18Z</time>
      </trkpt>
      <trkpt lat="44.17474" lon="3.50127">
        <ele>1127.28</ele>
        <time>2021-08-08T13:21:28Z</time>
      </trkpt>
      <trkpt lat="44.17494" lon="3.50096">
        <ele>1124.88</ele>
        <time>2021-08-08T13:21:38Z</time>
      </trkpt>
      <trkpt lat="44.17515" lon="3.50061">
        <ele>1121.52</ele>
        <time>2021-08-08T13:21:49Z</time>
      </trkpt>
      <trkpt lat="44.17536" lon="3.50033">
        <ele>1120.07</ele>
        <time>2021-08-08T13:22:00Z</time>
      </trkpt>
      <trkpt lat="44.17553" lon="3.50013">
        <ele>1116.71</ele>
        <time>2021-08-08T13:22:09Z</time>
      </trkpt>
      <trkpt lat="44.1756" lon="3.49993">
        <ele>1113.82</ele>
        <time>2021-08-08T13:22:14Z</time>
      </trkpt>
      <trkpt lat="44.17563" lon="3.49973">
        <ele>1113.34</ele>
        <time>2021-08-08T13:22:17Z</time>
      </trkpt>
      <trkpt lat="44.17569" lon="3.49905">
        <ele>1112.38</ele>
        <time>2021-08-08T13:22:29Z</time>
      </trkpt>
      <trkpt lat="44.17585" lon="3.49853">
        <ele>1111.42</ele>
        <time>2021-08-08T13:22:41Z</time>
      </trkpt>
      <trkpt lat="44.17592" lon="3.49803">
        <ele>1110.94</ele>
        <time>2021-08-08T13:22:52Z</time>
      </trkpt>
      <trkpt lat="44.17622" lon="3.49732">
        <ele>1110.94</ele>
        <time>2021-08-08T13:23:07Z</time>
      </trkpt>
      <trkpt lat="44.17653" lon="3.49672">
        <ele>1112.86</ele>
        <time>2021-08-08T13:23:22Z</time>
      </trkpt>
      <trkpt lat="44.17669" lon="3.49627">
        <ele>1112.86</ele>
        <time>2021-08-08T13:23:35Z</time>
      </trkpt>
      <trkpt lat="44.17688" lon="3.49571">
        <ele>1113.82</ele>
        <time>2021-08-08T13:23:51Z</time>
      </trkpt>
      <trkpt lat="44.17694" lon="3.4952">
        <ele>1114.31</ele>
        <time>2021-08-08T13:24:04Z</time>
      </trkpt>
      <trkpt lat="44.17699" lon="3.49477">
        <ele>1114.79</ele>
        <time>2021-08-08T13:24:15Z</time>
      </trkpt>
      <trkpt lat="44.17706" lon="3.49418">
        <ele>1114.79</ele>
        <time>2021-08-08T13:24:29Z</time>
      </trkpt>
      <trkpt lat="44.17714" lon="3.49348">
        <ele>1112.38</ele>
        <time>2021-08-08T13:24:43Z</time>
      </trkpt>
      <trkpt lat="44.17717" lon="3.4929">
        <ele>1110.46</ele>
        <time>2021-08-08T13:24:55Z</time>
      </trkpt>
      <trkpt lat="44.17719" lon="3.49246">
        <ele>1112.86</ele>
        <time>2021-08-08T13:25:08Z</time>
      </trkpt>
      <trkpt lat="44.17715" lon="3.49198">
        <ele>1112.86</ele>
        <time>2021-08-08T13:25:21Z</time>
      </trkpt>
      <trkpt lat="44.17715" lon="3.49193">
        <ele>1113.34</ele>
        <time>2021-08-08T13:25:22Z</time>
      </trkpt>
      <trkpt lat="44.1771" lon="3.49161">
        <ele>1111.9</ele>
        <time>2021-08-08T13:25:28Z</time>
      </trkpt>
      <trkpt lat="44.17696" lon="3.49128">
        <ele>1110.46</ele>
        <time>2021-08-08T13:25:38Z</time>
      </trkpt>
      <trkpt lat="44.1768" lon="3.49087">
        <ele>1110.94</ele>
        <time>2021-08-08T13:25:52Z</time>
      </trkpt>
      <trkpt lat="44.17659" lon="3.49045">
        <ele>1110.94</ele>
        <time>2021-08-08T13:26:05Z</time>
      </trkpt>
      <trkpt lat="44.17655" lon="3.4904">
        <ele>1110.94</ele>
        <time>2021-08-08T13:26:07Z</time>
      </trkpt>
      <trkpt lat="44.17652" lon="3.49034">
        <ele>1110.94</ele>
        <time>2021-08-08T13:26:12Z</time>
      </trkpt>
      <trkpt lat="44.17637" lon="3.49028">
        <ele>1109.5</ele>
        <time>2021-08-08T13:26:24Z</time>
      </trkpt>
      <trkpt lat="44.17624" lon="3.49028">
        <ele>1109.98</ele>
        <time>2021-08-08T13:26:36Z</time>
      </trkpt>
      <trkpt lat="44.17624" lon="3.49033">
        <ele>1109.98</ele>
        <time>2021-08-08T13:26:52Z</time>
      </trkpt>
      <trkpt lat="44.17622" lon="3.49037">
        <ele>1109.98</ele>
        <time>2021-08-08T13:27:11Z</time>
      </trkpt>
      <trkpt lat="44.17623" lon="3.4904">
        <ele>1109.5</ele>
        <time>2021-08-08T13:27:29Z</time>
      </trkpt>
      <trkpt lat="44.17625" lon="3.49041">
        <ele>1109.98</ele>
        <time>2021-08-08T13:27:39Z</time>
      </trkpt>
      <trkpt lat="44.17633" lon="3.49042">
        <ele>1109.98</ele>
        <time>2021-08-08T13:27:44Z</time>
      </trkpt>
      <trkpt lat="44.17663" lon="3.49046">
        <ele>1112.38</ele>
        <time>2021-08-08T13:28:00Z</time>
      </trkpt>
      <trkpt lat="44.17657" lon="3.49027">
        <ele>1112.86</ele>
        <time>2021-08-08T13:28:10Z</time>
      </trkpt>
      <trkpt lat="44.17644" lon="3.48996">
        <ele>1114.31</ele>
        <time>2021-08-08T13:28:27Z</time>
      </trkpt>
      <trkpt lat="44.17643" lon="3.48967">
        <ele>1116.23</ele>
        <time>2021-08-08T13:28:40Z</time>
      </trkpt>
      <trkpt lat="44.17644" lon="3.48955">
        <ele>1116.71</ele>
        <time>2021-08-08T13:28:46Z</time>
      </trkpt>
      <trkpt lat="44.17647" lon="3.48933">
        <ele>1117.19</ele>
        <time>2021-08-08T13:28:55Z</time>
      </trkpt>
      <trkpt lat="44.17648" lon="3.48891">
        <ele>1117.67</ele>
        <time>2021-08-08T13:29:11Z</time>
      </trkpt>
      <trkpt lat="44.17642" lon="3.48826">
        <ele>1117.67</ele>
        <time>2021-08-08T13:29:30Z</time>
      </trkpt>
      <trkpt lat="44.17642" lon="3.48814">
        <ele>1117.67</ele>
        <time>2021-08-08T13:29:33Z</time>
      </trkpt>
      <trkpt lat="44.17667" lon="3.48775">
        <ele>1118.15</ele>
        <time>2021-08-08T13:29:46Z</time>
      </trkpt>
      <trkpt lat="44.17696" lon="3.48749">
        <ele>1119.11</ele>
        <time>2021-08-08T13:30:00Z</time>
      </trkpt>
      <trkpt lat="44.17734" lon="3.48733">
        <ele>1120.07</ele>
        <time>2021-08-08T13:30:15Z</time>
      </trkpt>
      <trkpt lat="44.17777" lon="3.48721">
        <ele>1120.55</ele>
        <time>2021-08-08T13:30:30Z</time>
      </trkpt>
      <trkpt lat="44.17815" lon="3.48708">
        <ele>1119.59</ele>
        <time>2021-08-08T13:30:43Z</time>
      </trkpt>
      <trkpt lat="44.17871" lon="3.4869">
        <ele>1119.11</ele>
        <time>2021-08-08T13:31:00Z</time>
      </trkpt>
      <trkpt lat="44.17927" lon="3.48659">
        <ele>1117.67</ele>
        <time>2021-08-08T13:31:17Z</time>
      </trkpt>
      <trkpt lat="44.17975" lon="3.48637">
        <ele>1117.19</ele>
        <time>2021-08-08T13:31:32Z</time>
      </trkpt>
      <trkpt lat="44.18021" lon="3.48603">
        <ele>1116.23</ele>
        <time>2021-08-08T13:31:47Z</time>
      </trkpt>
      <trkpt lat="44.18049" lon="3.48579">
        <ele>1116.23</ele>
        <time>2021-08-08T13:31:57Z</time>
      </trkpt>
      <trkpt lat="44.18063" lon="3.48567">
        <ele>1116.71</ele>
        <time>2021-08-08T13:32:02Z</time>
      </trkpt>
      <trkpt lat="44.1809" lon="3.48537">
        <ele>1114.79</ele>
        <time>2021-08-08T13:32:11Z</time>
      </trkpt>
      <trkpt lat="44.18139" lon="3.48488">
        <ele>1111.9</ele>
        <time>2021-08-08T13:32:25Z</time>
      </trkpt>
      <trkpt lat="44.18179" lon="3.48451">
        <ele>1109.98</ele>
        <time>2021-08-08T13:32:35Z</time>
      </trkpt>
      <trkpt lat="44.18207" lon="3.48423">
        <ele>1107.1</ele>
        <time>2021-08-08T13:32:43Z</time>
      </trkpt>
      <trkpt lat="44.18209" lon="3.48419">
        <ele>1106.61</ele>
        <time>2021-08-08T13:32:44Z</time>
      </trkpt>
      <trkpt lat="44.18215" lon="3.48411">
        <ele>1106.13</ele>
        <time>2021-08-08T13:32:46Z</time>
      </trkpt>
      <trkpt lat="44.18234" lon="3.48396">
        <ele>1103.73</ele>
        <time>2021-08-08T13:32:50Z</time>
      </trkpt>
      <trkpt lat="44.18245" lon="3.4839">
        <ele>1102.77</ele>
        <time>2021-08-08T13:32:52Z</time>
      </trkpt>
      <trkpt lat="44.18302" lon="3.48354">
        <ele>1099.89</ele>
        <time>2021-08-08T13:33:03Z</time>
      </trkpt>
      <trkpt lat="44.18312" lon="3.48347">
        <ele>1099.4</ele>
        <time>2021-08-08T13:33:05Z</time>
      </trkpt>
      <trkpt lat="44.18359" lon="3.48292">
        <ele>1097</ele>
        <time>2021-08-08T13:33:18Z</time>
      </trkpt>
      <trkpt lat="44.1837" lon="3.48241">
        <ele>1097.48</ele>
        <time>2021-08-08T13:33:32Z</time>
      </trkpt>
      <trkpt lat="44.18364" lon="3.48174">
        <ele>1097.48</ele>
        <time>2021-08-08T13:33:48Z</time>
      </trkpt>
      <trkpt lat="44.18355" lon="3.48094">
        <ele>1096.04</ele>
        <time>2021-08-08T13:34:05Z</time>
      </trkpt>
      <trkpt lat="44.18356" lon="3.4805">
        <ele>1094.12</ele>
        <time>2021-08-08T13:34:11Z</time>
      </trkpt>
      <trkpt lat="44.18342" lon="3.47972">
        <ele>1093.64</ele>
        <time>2021-08-08T13:34:25Z</time>
      </trkpt>
      <trkpt lat="44.18331" lon="3.4792">
        <ele>1094.6</ele>
        <time>2021-08-08T13:34:39Z</time>
      </trkpt>
      <trkpt lat="44.1832" lon="3.47867">
        <ele>1096.52</ele>
        <time>2021-08-08T13:34:54Z</time>
      </trkpt>
      <trkpt lat="44.18307" lon="3.47814">
        <ele>1096.04</ele>
        <time>2021-08-08T13:35:08Z</time>
      </trkpt>
      <trkpt lat="44.18304" lon="3.4778">
        <ele>1096.52</ele>
        <time>2021-08-08T13:35:21Z</time>
      </trkpt>
      <trkpt lat="44.18304" lon="3.47781">
        <ele>1096.04</ele>
        <time>2021-08-08T13:35:47Z</time>
      </trkpt>
      <trkpt lat="44.18304" lon="3.47779">
        <ele>1096.52</ele>
        <time>2021-08-08T13:35:49Z</time>
      </trkpt>
      <trkpt lat="44.18314" lon="3.47728">
        <ele>1097.96</ele>
        <time>2021-08-08T13:36:05Z</time>
      </trkpt>
      <trkpt lat="44.18331" lon="3.47685">
        <ele>1099.4</ele>
        <time>2021-08-08T13:36:19Z</time>
      </trkpt>
      <trkpt lat="44.18349" lon="3.47618">
        <ele>1098.92</ele>
        <time>2021-08-08T13:36:37Z</time>
      </trkpt>
      <trkpt lat="44.18368" lon="3.47563">
        <ele>1095.56</ele>
        <time>2021-08-08T13:36:49Z</time>
      </trkpt>
      <trkpt lat="44.18398" lon="3.47529">
        <ele>1092.68</ele>
        <time>2021-08-08T13:37:01Z</time>
      </trkpt>
      <trkpt lat="44.18412" lon="3.47517">
        <ele>1090.27</ele>
        <time>2021-08-08T13:37:06Z</time>
      </trkpt>
      <trkpt lat="44.18437" lon="3.47474">
        <ele>1087.39</ele>
        <time>2021-08-08T13:37:18Z</time>
      </trkpt>
      <trkpt lat="44.18457" lon="3.47444">
        <ele>1084.02</ele>
        <time>2021-08-08T13:37:28Z</time>
      </trkpt>
      <trkpt lat="44.18468" lon="3.47417">
        <ele>1081.62</ele>
        <time>2021-08-08T13:37:40Z</time>
      </trkpt>
      <trkpt lat="44.18469" lon="3.47413">
        <ele>1081.14</ele>
        <time>2021-08-08T13:37:53Z</time>
      </trkpt>
      <trkpt lat="44.18467" lon="3.47413">
        <ele>1080.66</ele>
        <time>2021-08-08T13:38:03Z</time>
      </trkpt>
      <trkpt lat="44.18469" lon="3.47412">
        <ele>1081.14</ele>
        <time>2021-08-08T13:38:17Z</time>
      </trkpt>
      <trkpt lat="44.1847" lon="3.47411">
        <ele>1080.18</ele>
        <time>2021-08-08T13:38:41Z</time>
      </trkpt>
      <trkpt lat="44.1847" lon="3.47411">
        <ele>1080.18</ele>
        <time>2021-08-08T13:38:55Z</time>
      </trkpt>
      <trkpt lat="44.1847" lon="3.47411">
        <ele>1080.18</ele>
        <time>2021-08-08T13:38:58Z</time>
      </trkpt>
      <trkpt lat="44.18471" lon="3.47405">
        <ele>1080.18</ele>
        <time>2021-08-08T13:39:01Z</time>
      </trkpt>
      <trkpt lat="44.18472" lon="3.4739">
        <ele>1079.7</ele>
        <time>2021-08-08T13:39:05Z</time>
      </trkpt>
      <trkpt lat="44.18472" lon="3.47326">
        <ele>1077.29</ele>
        <time>2021-08-08T13:39:21Z</time>
      </trkpt>
      <trkpt lat="44.18471" lon="3.4731">
        <ele>1075.85</ele>
        <time>2021-08-08T13:39:25Z</time>
      </trkpt>
      <trkpt lat="44.18468" lon="3.47298">
        <ele>1075.37</ele>
        <time>2021-08-08T13:39:27Z</time>
      </trkpt>
      <trkpt lat="44.18458" lon="3.47257">
        <ele>1072.97</ele>
        <time>2021-08-08T13:39:34Z</time>
      </trkpt>
      <trkpt lat="44.18449" lon="3.4721">
        <ele>1071.53</ele>
        <time>2021-08-08T13:39:43Z</time>
      </trkpt>
      <trkpt lat="44.18449" lon="3.4717">
        <ele>1068.64</ele>
        <time>2021-08-08T13:39:50Z</time>
      </trkpt>
      <trkpt lat="44.1845" lon="3.47111">
        <ele>1065.76</ele>
        <time>2021-08-08T13:40:03Z</time>
      </trkpt>
      <trkpt lat="44.18459" lon="3.47058">
        <ele>1062.39</ele>
        <time>2021-08-08T13:40:16Z</time>
      </trkpt>
      <trkpt lat="44.18469" lon="3.4702">
        <ele>1059.51</ele>
        <time>2021-08-08T13:40:25Z</time>
      </trkpt>
      <trkpt lat="44.18474" lon="3.46994">
        <ele>1057.11</ele>
        <time>2021-08-08T13:40:31Z</time>
      </trkpt>
      <trkpt lat="44.18476" lon="3.46971">
        <ele>1053.74</ele>
        <time>2021-08-08T13:40:37Z</time>
      </trkpt>
      <trkpt lat="44.18477" lon="3.46964">
        <ele>1052.78</ele>
        <time>2021-08-08T13:40:39Z</time>
      </trkpt>
      <trkpt lat="44.18479" lon="3.46943">
        <ele>1050.86</ele>
        <time>2021-08-08T13:40:43Z</time>
      </trkpt>
      <trkpt lat="44.18484" lon="3.46918">
        <ele>1048.45</ele>
        <time>2021-08-08T13:40:48Z</time>
      </trkpt>
      <trkpt lat="44.18497" lon="3.46846">
        <ele>1046.05</ele>
        <time>2021-08-08T13:41:00Z</time>
      </trkpt>
      <trkpt lat="44.18502" lon="3.46822">
        <ele>1045.09</ele>
        <time>2021-08-08T13:41:04Z</time>
      </trkpt>
      <trkpt lat="44.18503" lon="3.46761">
        <ele>1044.13</ele>
        <time>2021-08-08T13:41:16Z</time>
      </trkpt>
      <trkpt lat="44.18505" lon="3.46685">
        <ele>1041.73</ele>
        <time>2021-08-08T13:41:28Z</time>
      </trkpt>
      <trkpt lat="44.18506" lon="3.46656">
        <ele>1041.25</ele>
        <time>2021-08-08T13:41:32Z</time>
      </trkpt>
      <trkpt lat="44.18507" lon="3.46643">
        <ele>1041.25</ele>
        <time>2021-08-08T13:41:34Z</time>
      </trkpt>
      <trkpt lat="44.18507" lon="3.4663">
        <ele>1041.25</ele>
        <time>2021-08-08T13:41:36Z</time>
      </trkpt>
      <trkpt lat="44.18524" lon="3.46577">
        <ele>1041.73</ele>
        <time>2021-08-08T13:41:48Z</time>
      </trkpt>
      <trkpt lat="44.1855" lon="3.46531">
        <ele>1042.21</ele>
        <time>2021-08-08T13:42:01Z</time>
      </trkpt>
      <trkpt lat="44.18574" lon="3.46492">
        <ele>1041.73</ele>
        <time>2021-08-08T13:42:12Z</time>
      </trkpt>
      <trkpt lat="44.18597" lon="3.46463">
        <ele>1042.69</ele>
        <time>2021-08-08T13:42:23Z</time>
      </trkpt>
      <trkpt lat="44.18623" lon="3.46438">
        <ele>1040.28</ele>
        <time>2021-08-08T13:42:34Z</time>
      </trkpt>
      <trkpt lat="44.18645" lon="3.4642">
        <ele>1037.4</ele>
        <time>2021-08-08T13:42:42Z</time>
      </trkpt>
      <trkpt lat="44.18673" lon="3.46397">
        <ele>1034.52</ele>
        <time>2021-08-08T13:42:52Z</time>
      </trkpt>
      <trkpt lat="44.18691" lon="3.4637">
        <ele>1031.15</ele>
        <time>2021-08-08T13:43:00Z</time>
      </trkpt>
      <trkpt lat="44.18711" lon="3.46335">
        <ele>1028.27</ele>
        <time>2021-08-08T13:43:08Z</time>
      </trkpt>
      <trkpt lat="44.18734" lon="3.46301">
        <ele>1024.9</ele>
        <time>2021-08-08T13:43:19Z</time>
      </trkpt>
      <trkpt lat="44.18753" lon="3.46275">
        <ele>1022.02</ele>
        <time>2021-08-08T13:43:30Z</time>
      </trkpt>
      <trkpt lat="44.18769" lon="3.46258">
        <ele>1018.65</ele>
        <time>2021-08-08T13:43:37Z</time>
      </trkpt>
      <trkpt lat="44.18782" lon="3.46242">
        <ele>1016.25</ele>
        <time>2021-08-08T13:43:43Z</time>
      </trkpt>
      <trkpt lat="44.18799" lon="3.46224">
        <ele>1013.37</ele>
        <time>2021-08-08T13:43:51Z</time>
      </trkpt>
      <trkpt lat="44.18814" lon="3.46214">
        <ele>1010.48</ele>
        <time>2021-08-08T13:43:57Z</time>
      </trkpt>
      <trkpt lat="44.18835" lon="3.46216">
        <ele>1007.12</ele>
        <time>2021-08-08T13:44:04Z</time>
      </trkpt>
      <trkpt lat="44.18861" lon="3.46187">
        <ele>1003.75</ele>
        <time>2021-08-08T13:44:13Z</time>
      </trkpt>
      <trkpt lat="44.18862" lon="3.46185">
        <ele>1003.27</ele>
        <time>2021-08-08T13:44:14Z</time>
      </trkpt>
      <trkpt lat="44.18872" lon="3.46169">
        <ele>1002.31</ele>
        <time>2021-08-08T13:44:19Z</time>
      </trkpt>
      <trkpt lat="44.18887" lon="3.46143">
        <ele>1000.39</ele>
        <time>2021-08-08T13:44:25Z</time>
      </trkpt>
      <trkpt lat="44.18905" lon="3.46087">
        <ele>997.02</ele>
        <time>2021-08-08T13:44:39Z</time>
      </trkpt>
      <trkpt lat="44.18903" lon="3.4605">
        <ele>993.66</ele>
        <time>2021-08-08T13:44:48Z</time>
      </trkpt>
      <trkpt lat="44.18894" lon="3.46032">
        <ele>990.78</ele>
        <time>2021-08-08T13:44:54Z</time>
      </trkpt>
      <trkpt lat="44.1888" lon="3.46006">
        <ele>987.41</ele>
        <time>2021-08-08T13:45:02Z</time>
      </trkpt>
      <trkpt lat="44.18869" lon="3.45983">
        <ele>984.53</ele>
        <time>2021-08-08T13:45:08Z</time>
      </trkpt>
      <trkpt lat="44.18858" lon="3.45961">
        <ele>981.64</ele>
        <time>2021-08-08T13:45:13Z</time>
      </trkpt>
      <trkpt lat="44.18854" lon="3.45953">
        <ele>980.68</ele>
        <time>2021-08-08T13:45:15Z</time>
      </trkpt>
      <trkpt lat="44.18846" lon="3.45934">
        <ele>978.76</ele>
        <time>2021-08-08T13:45:19Z</time>
      </trkpt>
      <trkpt lat="44.1884" lon="3.45902">
        <ele>976.84</ele>
        <time>2021-08-08T13:45:24Z</time>
      </trkpt>
      <trkpt lat="44.18839" lon="3.4587">
        <ele>973.47</ele>
        <time>2021-08-08T13:45:29Z</time>
      </trkpt>
      <trkpt lat="44.18841" lon="3.45851">
        <ele>972.51</ele>
        <time>2021-08-08T13:45:32Z</time>
      </trkpt>
      <trkpt lat="44.18848" lon="3.45796">
        <ele>972.51</ele>
        <time>2021-08-08T13:45:44Z</time>
      </trkpt>
      <trkpt lat="44.18856" lon="3.45764">
        <ele>974.43</ele>
        <time>2021-08-08T13:45:56Z</time>
      </trkpt>
      <trkpt lat="44.18857" lon="3.45762">
        <ele>974.43</ele>
        <time>2021-08-08T13:45:57Z</time>
      </trkpt>
      <trkpt lat="44.18862" lon="3.45748">
        <ele>975.88</ele>
        <time>2021-08-08T13:46:04Z</time>
      </trkpt>
      <trkpt lat="44.18867" lon="3.45736">
        <ele>977.32</ele>
        <time>2021-08-08T13:46:11Z</time>
      </trkpt>
      <trkpt lat="44.1887" lon="3.4573">
        <ele>978.28</ele>
        <time>2021-08-08T13:46:16Z</time>
      </trkpt>
      <trkpt lat="44.18877" lon="3.45717">
        <ele>978.76</ele>
        <time>2021-08-08T13:46:23Z</time>
      </trkpt>
      <trkpt lat="44.18879" lon="3.45706">
        <ele>979.72</ele>
        <time>2021-08-08T13:46:28Z</time>
      </trkpt>
      <trkpt lat="44.18883" lon="3.45699">
        <ele>980.2</ele>
        <time>2021-08-08T13:46:32Z</time>
      </trkpt>
      <trkpt lat="44.18897" lon="3.45675">
        <ele>981.64</ele>
        <time>2021-08-08T13:46:45Z</time>
      </trkpt>
      <trkpt lat="44.18921" lon="3.45655">
        <ele>980.2</ele>
        <time>2021-08-08T13:46:59Z</time>
      </trkpt>
      <trkpt lat="44.18943" lon="3.45644">
        <ele>977.32</ele>
        <time>2021-08-08T13:47:08Z</time>
      </trkpt>
      <trkpt lat="44.18968" lon="3.45635">
        <ele>974.43</ele>
        <time>2021-08-08T13:47:17Z</time>
      </trkpt>
      <trkpt lat="44.18971" lon="3.45634">
        <ele>973.95</ele>
        <time>2021-08-08T13:47:18Z</time>
      </trkpt>
      <trkpt lat="44.18983" lon="3.45632">
        <ele>972.51</ele>
        <time>2021-08-08T13:47:22Z</time>
      </trkpt>
      <trkpt lat="44.18996" lon="3.45631">
        <ele>970.11</ele>
        <time>2021-08-08T13:47:28Z</time>
      </trkpt>
      <trkpt lat="44.19022" lon="3.45594">
        <ele>966.74</ele>
        <time>2021-08-08T13:47:40Z</time>
      </trkpt>
      <trkpt lat="44.19033" lon="3.45578">
        <ele>964.82</ele>
        <time>2021-08-08T13:47:46Z</time>
      </trkpt>
      <trkpt lat="44.19042" lon="3.45558">
        <ele>962.9</ele>
        <time>2021-08-08T13:47:51Z</time>
      </trkpt>
      <trkpt lat="44.19047" lon="3.45536">
        <ele>960.98</ele>
        <time>2021-08-08T13:47:58Z</time>
      </trkpt>
      <trkpt lat="44.19047" lon="3.45503">
        <ele>957.13</ele>
        <time>2021-08-08T13:48:09Z</time>
      </trkpt>
      <trkpt lat="44.19047" lon="3.45499">
        <ele>957.13</ele>
        <time>2021-08-08T13:48:10Z</time>
      </trkpt>
      <trkpt lat="44.19037" lon="3.45471">
        <ele>953.77</ele>
        <time>2021-08-08T13:48:19Z</time>
      </trkpt>
      <trkpt lat="44.19034" lon="3.45467">
        <ele>953.28</ele>
        <time>2021-08-08T13:48:21Z</time>
      </trkpt>
      <trkpt lat="44.19023" lon="3.45454">
        <ele>950.88</ele>
        <time>2021-08-08T13:48:30Z</time>
      </trkpt>
      <trkpt lat="44.19014" lon="3.45449">
        <ele>952.32</ele>
        <time>2021-08-08T13:48:40Z</time>
      </trkpt>
      <trkpt lat="44.19009" lon="3.45446">
        <ele>953.28</ele>
        <time>2021-08-08T13:48:45Z</time>
      </trkpt>
      <trkpt lat="44.19005" lon="3.45444">
        <ele>954.25</ele>
        <time>2021-08-08T13:48:49Z</time>
      </trkpt>
      <trkpt lat="44.19001" lon="3.45442">
        <ele>955.21</ele>
        <time>2021-08-08T13:48:54Z</time>
      </trkpt>
      <trkpt lat="44.18978" lon="3.45428">
        <ele>957.13</ele>
        <time>2021-08-08T13:49:08Z</time>
      </trkpt>
      <trkpt lat="44.18964" lon="3.4542">
        <ele>958.09</ele>
        <time>2021-08-08T13:49:18Z</time>
      </trkpt>
      <trkpt lat="44.18959" lon="3.45417">
        <ele>958.57</ele>
        <time>2021-08-08T13:49:22Z</time>
      </trkpt>
      <trkpt lat="44.18953" lon="3.45416">
        <ele>959.53</ele>
        <time>2021-08-08T13:49:26Z</time>
      </trkpt>
      <trkpt lat="44.18949" lon="3.45414">
        <ele>960.98</ele>
        <time>2021-08-08T13:49:29Z</time>
      </trkpt>
      <trkpt lat="44.1894" lon="3.45415">
        <ele>962.9</ele>
        <time>2021-08-08T13:49:43Z</time>
      </trkpt>
      <trkpt lat="44.18938" lon="3.45416">
        <ele>962.9</ele>
        <time>2021-08-08T13:49:45Z</time>
      </trkpt>
      <trkpt lat="44.18924" lon="3.4542">
        <ele>964.82</ele>
        <time>2021-08-08T13:49:55Z</time>
      </trkpt>
      <trkpt lat="44.18912" lon="3.45421">
        <ele>966.26</ele>
        <time>2021-08-08T13:50:04Z</time>
      </trkpt>
      <trkpt lat="44.18907" lon="3.45422">
        <ele>966.74</ele>
        <time>2021-08-08T13:50:07Z</time>
      </trkpt>
      <trkpt lat="44.18886" lon="3.4543">
        <ele>969.15</ele>
        <time>2021-08-08T13:50:19Z</time>
      </trkpt>
      <trkpt lat="44.18877" lon="3.45434">
        <ele>970.11</ele>
        <time>2021-08-08T13:50:23Z</time>
      </trkpt>
      <trkpt lat="44.18853" lon="3.45437">
        <ele>971.55</ele>
        <time>2021-08-08T13:50:32Z</time>
      </trkpt>
      <trkpt lat="44.18842" lon="3.45442">
        <ele>972.51</ele>
        <time>2021-08-08T13:50:45Z</time>
      </trkpt>
      <trkpt lat="44.1884" lon="3.45453">
        <ele>973.95</ele>
        <time>2021-08-08T13:50:57Z</time>
      </trkpt>
      <trkpt lat="44.18844" lon="3.45464">
        <ele>974.43</ele>
        <time>2021-08-08T13:51:09Z</time>
      </trkpt>
      <trkpt lat="44.18844" lon="3.45466">
        <ele>974.91</ele>
        <time>2021-08-08T13:51:23Z</time>
      </trkpt>
      <trkpt lat="44.18844" lon="3.45466">
        <ele>973.95</ele>
        <time>2021-08-08T13:51:43Z</time>
      </trkpt>
      <trkpt lat="44.18844" lon="3.45465">
        <ele>974.43</ele>
        <time>2021-08-08T13:52:10Z</time>
      </trkpt>
      <trkpt lat="44.18845" lon="3.45464">
        <ele>974.91</ele>
        <time>2021-08-08T13:52:37Z</time>
      </trkpt>
      <trkpt lat="44.18846" lon="3.45464">
        <ele>974.91</ele>
        <time>2021-08-08T13:53:11Z</time>
      </trkpt>
      <trkpt lat="44.18846" lon="3.45465">
        <ele>975.39</ele>
        <time>2021-08-08T13:53:39Z</time>
      </trkpt>
      <trkpt lat="44.18846" lon="3.45464">
        <ele>975.88</ele>
        <time>2021-08-08T13:54:02Z</time>
      </trkpt>
      <trkpt lat="44.18847" lon="3.45463">
        <ele>975.39</ele>
        <time>2021-08-08T13:54:31Z</time>
      </trkpt>
      <trkpt lat="44.18846" lon="3.45464">
        <ele>976.36</ele>
        <time>2021-08-08T13:54:43Z</time>
      </trkpt>
      <trkpt lat="44.18846" lon="3.45465">
        <ele>976.36</ele>
        <time>2021-08-08T13:55:01Z</time>
      </trkpt>
      <trkpt lat="44.18849" lon="3.45466">
        <ele>976.36</ele>
        <time>2021-08-08T13:55:09Z</time>
      </trkpt>
      <trkpt lat="44.18855" lon="3.45468">
        <ele>976.84</ele>
        <time>2021-08-08T13:55:13Z</time>
      </trkpt>
      <trkpt lat="44.18859" lon="3.45471">
        <ele>976.84</ele>
        <time>2021-08-08T13:55:16Z</time>
      </trkpt>
      <trkpt lat="44.18871" lon="3.45492">
        <ele>978.76</ele>
        <time>2021-08-08T13:55:28Z</time>
      </trkpt>
      <trkpt lat="44.18884" lon="3.45519">
        <ele>980.2</ele>
        <time>2021-08-08T13:55:41Z</time>
      </trkpt>
      <trkpt lat="44.18895" lon="3.45542">
        <ele>981.64</ele>
        <time>2021-08-08T13:55:52Z</time>
      </trkpt>
      <trkpt lat="44.18898" lon="3.45562">
        <ele>983.09</ele>
        <time>2021-08-08T13:56:00Z</time>
      </trkpt>
      <trkpt lat="44.18905" lon="3.45593">
        <ele>984.53</ele>
        <time>2021-08-08T13:56:13Z</time>
      </trkpt>
      <trkpt lat="44.18903" lon="3.45641">
        <ele>985.49</ele>
        <time>2021-08-08T13:56:31Z</time>
      </trkpt>
      <trkpt lat="44.189" lon="3.45664">
        <ele>984.53</ele>
        <time>2021-08-08T13:56:44Z</time>
      </trkpt>
      <trkpt lat="44.189" lon="3.45663">
        <ele>984.53</ele>
        <time>2021-08-08T13:56:53Z</time>
      </trkpt>
      <trkpt lat="44.18899" lon="3.45663">
        <ele>984.05</ele>
        <time>2021-08-08T13:57:05Z</time>
      </trkpt>
      <trkpt lat="44.18898" lon="3.45663">
        <ele>984.53</ele>
        <time>2021-08-08T13:57:20Z</time>
      </trkpt>
      <trkpt lat="44.18898" lon="3.45663">
        <ele>984.53</ele>
        <time>2021-08-08T13:57:55Z</time>
      </trkpt>
      <trkpt lat="44.18898" lon="3.45663">
        <ele>984.53</ele>
        <time>2021-08-08T13:58:23Z</time>
      </trkpt>
      <trkpt lat="44.18898" lon="3.45664">
        <ele>984.53</ele>
        <time>2021-08-08T13:58:49Z</time>
      </trkpt>
      <trkpt lat="44.18898" lon="3.45663">
        <ele>984.53</ele>
        <time>2021-08-08T13:58:59Z</time>
      </trkpt>
      <trkpt lat="44.18898" lon="3.45662">
        <ele>984.53</ele>
        <time>2021-08-08T13:59:08Z</time>
      </trkpt>
      <trkpt lat="44.189" lon="3.45664">
        <ele>984.05</ele>
        <time>2021-08-08T13:59:14Z</time>
      </trkpt>
      <trkpt lat="44.18902" lon="3.45664">
        <ele>984.53</ele>
        <time>2021-08-08T13:59:16Z</time>
      </trkpt>
      <trkpt lat="44.18931" lon="3.45645">
        <ele>982.12</ele>
        <time>2021-08-08T13:59:29Z</time>
      </trkpt>
      <trkpt lat="44.18957" lon="3.45635">
        <ele>979.24</ele>
        <time>2021-08-08T13:59:37Z</time>
      </trkpt>
      <trkpt lat="44.18984" lon="3.4563">
        <ele>976.36</ele>
        <time>2021-08-08T13:59:45Z</time>
      </trkpt>
      <trkpt lat="44.19009" lon="3.45625">
        <ele>972.51</ele>
        <time>2021-08-08T13:59:53Z</time>
      </trkpt>
      <trkpt lat="44.19026" lon="3.45603">
        <ele>969.63</ele>
        <time>2021-08-08T14:00:01Z</time>
      </trkpt>
      <trkpt lat="44.19043" lon="3.45571">
        <ele>966.26</ele>
        <time>2021-08-08T14:00:10Z</time>
      </trkpt>
      <trkpt lat="44.19048" lon="3.45562">
        <ele>964.82</ele>
        <time>2021-08-08T14:00:13Z</time>
      </trkpt>
      <trkpt lat="44.19053" lon="3.45532">
        <ele>961.94</ele>
        <time>2021-08-08T14:00:21Z</time>
      </trkpt>
      <trkpt lat="44.19052" lon="3.45503">
        <ele>958.57</ele>
        <time>2021-08-08T14:00:29Z</time>
      </trkpt>
      <trkpt lat="44.19036" lon="3.45476">
        <ele>955.69</ele>
        <time>2021-08-08T14:00:38Z</time>
      </trkpt>
      <trkpt lat="44.19025" lon="3.45463">
        <ele>952.32</ele>
        <time>2021-08-08T14:00:43Z</time>
      </trkpt>
      <trkpt lat="44.19025" lon="3.45461">
        <ele>952.32</ele>
        <time>2021-08-08T14:00:44Z</time>
      </trkpt>
      <trkpt lat="44.19023" lon="3.45455">
        <ele>951.36</ele>
        <time>2021-08-08T14:00:54Z</time>
      </trkpt>
      <trkpt lat="44.19023" lon="3.45453">
        <ele>950.4</ele>
        <time>2021-08-08T14:01:09Z</time>
      </trkpt>
      <trkpt lat="44.19023" lon="3.45453">
        <ele>949.92</ele>
        <time>2021-08-08T14:01:39Z</time>
      </trkpt>
      <trkpt lat="44.19023" lon="3.45451">
        <ele>949.44</ele>
        <time>2021-08-08T14:02:09Z</time>
      </trkpt>
      <trkpt lat="44.19023" lon="3.45451">
        <ele>949.44</ele>
        <time>2021-08-08T14:02:25Z</time>
      </trkpt>
      <trkpt lat="44.19024" lon="3.45454">
        <ele>949.92</ele>
        <time>2021-08-08T14:02:41Z</time>
      </trkpt>
      <trkpt lat="44.19023" lon="3.45454">
        <ele>950.4</ele>
        <time>2021-08-08T14:02:44Z</time>
      </trkpt>
      <trkpt lat="44.1902" lon="3.45441">
        <ele>949.44</ele>
        <time>2021-08-08T14:02:49Z</time>
      </trkpt>
      <trkpt lat="44.19012" lon="3.45393">
        <ele>946.56</ele>
        <time>2021-08-08T14:03:00Z</time>
      </trkpt>
      <trkpt lat="44.19015" lon="3.45343">
        <ele>944.15</ele>
        <time>2021-08-08T14:03:11Z</time>
      </trkpt>
      <trkpt lat="44.19027" lon="3.45277">
        <ele>940.79</ele>
        <time>2021-08-08T14:03:24Z</time>
      </trkpt>
      <trkpt lat="44.19034" lon="3.45242">
        <ele>939.35</ele>
        <time>2021-08-08T14:03:38Z</time>
      </trkpt>
      <trkpt lat="44.19032" lon="3.45197">
        <ele>939.83</ele>
        <time>2021-08-08T14:03:52Z</time>
      </trkpt>
      <trkpt lat="44.19023" lon="3.45148">
        <ele>940.31</ele>
        <time>2021-08-08T14:04:06Z</time>
      </trkpt>
      <trkpt lat="44.19005" lon="3.45103">
        <ele>941.27</ele>
        <time>2021-08-08T14:04:22Z</time>
      </trkpt>
      <trkpt lat="44.18977" lon="3.45066">
        <ele>942.23</ele>
        <time>2021-08-08T14:04:37Z</time>
      </trkpt>
      <trkpt lat="44.18952" lon="3.45039">
        <ele>943.19</ele>
        <time>2021-08-08T14:04:50Z</time>
      </trkpt>
      <trkpt lat="44.18929" lon="3.45007">
        <ele>944.63</ele>
        <time>2021-08-08T14:05:03Z</time>
      </trkpt>
      <trkpt lat="44.18895" lon="3.44974">
        <ele>944.63</ele>
        <time>2021-08-08T14:05:19Z</time>
      </trkpt>
      <trkpt lat="44.18844" lon="3.44954">
        <ele>941.75</ele>
        <time>2021-08-08T14:05:34Z</time>
      </trkpt>
      <trkpt lat="44.18813" lon="3.44933">
        <ele>938.38</ele>
        <time>2021-08-08T14:05:43Z</time>
      </trkpt>
      <trkpt lat="44.18786" lon="3.44914">
        <ele>935.02</ele>
        <time>2021-08-08T14:05:50Z</time>
      </trkpt>
      <trkpt lat="44.1876" lon="3.44897">
        <ele>932.14</ele>
        <time>2021-08-08T14:05:58Z</time>
      </trkpt>
      <trkpt lat="44.1873" lon="3.44871">
        <ele>928.77</ele>
        <time>2021-08-08T14:06:06Z</time>
      </trkpt>
      <trkpt lat="44.187" lon="3.44846">
        <ele>925.41</ele>
        <time>2021-08-08T14:06:12Z</time>
      </trkpt>
      <trkpt lat="44.18695" lon="3.44842">
        <ele>924.93</ele>
        <time>2021-08-08T14:06:13Z</time>
      </trkpt>
      <trkpt lat="44.18691" lon="3.44837">
        <ele>924.93</ele>
        <time>2021-08-08T14:06:14Z</time>
      </trkpt>
      <trkpt lat="44.18651" lon="3.44802">
        <ele>920.6</ele>
        <time>2021-08-08T14:06:22Z</time>
      </trkpt>
      <trkpt lat="44.18629" lon="3.44782">
        <ele>918.2</ele>
        <time>2021-08-08T14:06:27Z</time>
      </trkpt>
      <trkpt lat="44.18609" lon="3.44765">
        <ele>916.27</ele>
        <time>2021-08-08T14:06:31Z</time>
      </trkpt>
      <trkpt lat="44.18583" lon="3.44732">
        <ele>912.91</ele>
        <time>2021-08-08T14:06:41Z</time>
      </trkpt>
      <trkpt lat="44.18569" lon="3.44705">
        <ele>911.95</ele>
        <time>2021-08-08T14:06:48Z</time>
      </trkpt>
      <trkpt lat="44.18556" lon="3.44681">
        <ele>910.51</ele>
        <time>2021-08-08T14:07:00Z</time>
      </trkpt>
      <trkpt lat="44.18537" lon="3.44659">
        <ele>908.1</ele>
        <time>2021-08-08T14:07:12Z</time>
      </trkpt>
      <trkpt lat="44.18512" lon="3.44637">
        <ele>905.22</ele>
        <time>2021-08-08T14:07:22Z</time>
      </trkpt>
      <trkpt lat="44.18483" lon="3.44626">
        <ele>902.33</ele>
        <time>2021-08-08T14:07:30Z</time>
      </trkpt>
      <trkpt lat="44.18458" lon="3.44618">
        <ele>899.93</ele>
        <time>2021-08-08T14:07:35Z</time>
      </trkpt>
      <trkpt lat="44.18447" lon="3.44616">
        <ele>898.97</ele>
        <time>2021-08-08T14:07:37Z</time>
      </trkpt>
      <trkpt lat="44.18426" lon="3.4461">
        <ele>897.53</ele>
        <time>2021-08-08T14:07:41Z</time>
      </trkpt>
      <trkpt lat="44.18417" lon="3.44608">
        <ele>897.05</ele>
        <time>2021-08-08T14:07:43Z</time>
      </trkpt>
      <trkpt lat="44.18389" lon="3.44602">
        <ele>893.68</ele>
        <time>2021-08-08T14:07:50Z</time>
      </trkpt>
      <trkpt lat="44.18362" lon="3.44597">
        <ele>891.28</ele>
        <time>2021-08-08T14:07:56Z</time>
      </trkpt>
      <trkpt lat="44.18329" lon="3.44601">
        <ele>886.95</ele>
        <time>2021-08-08T14:08:03Z</time>
      </trkpt>
      <trkpt lat="44.18308" lon="3.44602">
        <ele>883.59</ele>
        <time>2021-08-08T14:08:08Z</time>
      </trkpt>
      <trkpt lat="44.18284" lon="3.44604">
        <ele>881.19</ele>
        <time>2021-08-08T14:08:15Z</time>
      </trkpt>
      <trkpt lat="44.18279" lon="3.44609">
        <ele>880.71</ele>
        <time>2021-08-08T14:08:17Z</time>
      </trkpt>
      <trkpt lat="44.18278" lon="3.44622">
        <ele>879.74</ele>
        <time>2021-08-08T14:08:20Z</time>
      </trkpt>
      <trkpt lat="44.18281" lon="3.4466">
        <ele>878.3</ele>
        <time>2021-08-08T14:08:28Z</time>
      </trkpt>
      <trkpt lat="44.1828" lon="3.44669">
        <ele>877.34</ele>
        <time>2021-08-08T14:08:42Z</time>
      </trkpt>
      <trkpt lat="44.1828" lon="3.44669">
        <ele>876.38</ele>
        <time>2021-08-08T14:08:56Z</time>
      </trkpt>
      <trkpt lat="44.18276" lon="3.44668">
        <ele>876.38</ele>
        <time>2021-08-08T14:09:31Z</time>
      </trkpt>
      <trkpt lat="44.18274" lon="3.44668">
        <ele>877.34</ele>
        <time>2021-08-08T14:09:42Z</time>
      </trkpt>
      <trkpt lat="44.18275" lon="3.44668">
        <ele>877.34</ele>
        <time>2021-08-08T14:10:03Z</time>
      </trkpt>
      <trkpt lat="44.18276" lon="3.44668">
        <ele>877.34</ele>
        <time>2021-08-08T14:10:17Z</time>
      </trkpt>
      <trkpt lat="44.18277" lon="3.44677">
        <ele>877.82</ele>
        <time>2021-08-08T14:10:21Z</time>
      </trkpt>
      <trkpt lat="44.18277" lon="3.44719">
        <ele>875.42</ele>
        <time>2021-08-08T14:10:30Z</time>
      </trkpt>
      <trkpt lat="44.18284" lon="3.44775">
        <ele>872.05</ele>
        <time>2021-08-08T14:10:40Z</time>
      </trkpt>
      <trkpt lat="44.18288" lon="3.44785">
        <ele>871.09</ele>
        <time>2021-08-08T14:10:42Z</time>
      </trkpt>
      <trkpt lat="44.18302" lon="3.44799">
        <ele>870.13</ele>
        <time>2021-08-08T14:10:47Z</time>
      </trkpt>
      <trkpt lat="44.18293" lon="3.44817">
        <ele>868.69</ele>
        <time>2021-08-08T14:10:56Z</time>
      </trkpt>
      <trkpt lat="44.18285" lon="3.44809">
        <ele>867.73</ele>
        <time>2021-08-08T14:10:59Z</time>
      </trkpt>
      <trkpt lat="44.18276" lon="3.44795">
        <ele>866.29</ele>
        <time>2021-08-08T14:11:02Z</time>
      </trkpt>
      <trkpt lat="44.18265" lon="3.44776">
        <ele>864.84</ele>
        <time>2021-08-08T14:11:07Z</time>
      </trkpt>
      <trkpt lat="44.18257" lon="3.44753">
        <ele>862.92</ele>
        <time>2021-08-08T14:11:11Z</time>
      </trkpt>
      <trkpt lat="44.18247" lon="3.44719">
        <ele>860.52</ele>
        <time>2021-08-08T14:11:16Z</time>
      </trkpt>
      <trkpt lat="44.18243" lon="3.44708">
        <ele>859.08</ele>
        <time>2021-08-08T14:11:18Z</time>
      </trkpt>
      <trkpt lat="44.18234" lon="3.44667">
        <ele>855.71</ele>
        <time>2021-08-08T14:11:26Z</time>
      </trkpt>
      <trkpt lat="44.18226" lon="3.44644">
        <ele>853.79</ele>
        <time>2021-08-08T14:11:31Z</time>
      </trkpt>
      <trkpt lat="44.18219" lon="3.44617">
        <ele>852.35</ele>
        <time>2021-08-08T14:11:36Z</time>
      </trkpt>
      <trkpt lat="44.18216" lon="3.44607">
        <ele>851.87</ele>
        <time>2021-08-08T14:11:38Z</time>
      </trkpt>
      <trkpt lat="44.18209" lon="3.44587">
        <ele>850.42</ele>
        <time>2021-08-08T14:11:42Z</time>
      </trkpt>
      <trkpt lat="44.182" lon="3.44544">
        <ele>847.06</ele>
        <time>2021-08-08T14:11:51Z</time>
      </trkpt>
      <trkpt lat="44.18192" lon="3.44498">
        <ele>844.18</ele>
        <time>2021-08-08T14:12:01Z</time>
      </trkpt>
      <trkpt lat="44.18185" lon="3.44476">
        <ele>841.77</ele>
        <time>2021-08-08T14:12:05Z</time>
      </trkpt>
      <trkpt lat="44.18174" lon="3.44448">
        <ele>838.41</ele>
        <time>2021-08-08T14:12:12Z</time>
      </trkpt>
      <trkpt lat="44.18143" lon="3.44422">
        <ele>836</ele>
        <time>2021-08-08T14:12:22Z</time>
      </trkpt>
      <trkpt lat="44.18104" lon="3.4438">
        <ele>832.64</ele>
        <time>2021-08-08T14:12:33Z</time>
      </trkpt>
      <trkpt lat="44.18067" lon="3.44347">
        <ele>830.72</ele>
        <time>2021-08-08T14:12:46Z</time>
      </trkpt>
      <trkpt lat="44.18042" lon="3.44322">
        <ele>828.31</ele>
        <time>2021-08-08T14:12:54Z</time>
      </trkpt>
      <trkpt lat="44.18014" lon="3.44289">
        <ele>824.95</ele>
        <time>2021-08-08T14:13:02Z</time>
      </trkpt>
      <trkpt lat="44.1801" lon="3.44285">
        <ele>824.95</ele>
        <time>2021-08-08T14:13:03Z</time>
      </trkpt>
      <trkpt lat="44.18007" lon="3.44281">
        <ele>823.99</ele>
        <time>2021-08-08T14:13:04Z</time>
      </trkpt>
      <trkpt lat="44.17985" lon="3.44261">
        <ele>820.14</ele>
        <time>2021-08-08T14:13:10Z</time>
      </trkpt>
      <trkpt lat="44.17994" lon="3.44238">
        <ele>817.26</ele>
        <time>2021-08-08T14:13:16Z</time>
      </trkpt>
      <trkpt lat="44.18006" lon="3.44233">
        <ele>816.3</ele>
        <time>2021-08-08T14:13:18Z</time>
      </trkpt>
      <trkpt lat="44.18038" lon="3.44218">
        <ele>812.93</ele>
        <time>2021-08-08T14:13:23Z</time>
      </trkpt>
      <trkpt lat="44.18045" lon="3.44214">
        <ele>812.93</ele>
        <time>2021-08-08T14:13:24Z</time>
      </trkpt>
      <trkpt lat="44.18082" lon="3.44196">
        <ele>809.57</ele>
        <time>2021-08-08T14:13:30Z</time>
      </trkpt>
      <trkpt lat="44.18089" lon="3.44194">
        <ele>809.09</ele>
        <time>2021-08-08T14:13:31Z</time>
      </trkpt>
      <trkpt lat="44.18114" lon="3.44184">
        <ele>805.72</ele>
        <time>2021-08-08T14:13:36Z</time>
      </trkpt>
      <trkpt lat="44.1814" lon="3.44183">
        <ele>804.28</ele>
        <time>2021-08-08T14:13:41Z</time>
      </trkpt>
      <trkpt lat="44.18153" lon="3.44185">
        <ele>802.84</ele>
        <time>2021-08-08T14:13:44Z</time>
      </trkpt>
      <trkpt lat="44.18142" lon="3.44154">
        <ele>798.99</ele>
        <time>2021-08-08T14:13:52Z</time>
      </trkpt>
      <trkpt lat="44.18136" lon="3.44149">
        <ele>798.03</ele>
        <time>2021-08-08T14:13:53Z</time>
      </trkpt>
      <trkpt lat="44.18115" lon="3.44135">
        <ele>795.15</ele>
        <time>2021-08-08T14:13:57Z</time>
      </trkpt>
      <trkpt lat="44.18093" lon="3.44129">
        <ele>794.19</ele>
        <time>2021-08-08T14:14:01Z</time>
      </trkpt>
      <trkpt lat="44.18062" lon="3.4413">
        <ele>791.3</ele>
        <time>2021-08-08T14:14:07Z</time>
      </trkpt>
      <trkpt lat="44.1803" lon="3.4411">
        <ele>787.46</ele>
        <time>2021-08-08T14:14:14Z</time>
      </trkpt>
      <trkpt lat="44.17998" lon="3.44095">
        <ele>784.57</ele>
        <time>2021-08-08T14:14:21Z</time>
      </trkpt>
      <trkpt lat="44.17979" lon="3.44084">
        <ele>782.65</ele>
        <time>2021-08-08T14:14:25Z</time>
      </trkpt>
      <trkpt lat="44.17957" lon="3.44073">
        <ele>779.77</ele>
        <time>2021-08-08T14:14:31Z</time>
      </trkpt>
      <trkpt lat="44.1792" lon="3.4406">
        <ele>776.4</ele>
        <time>2021-08-08T14:14:39Z</time>
      </trkpt>
      <trkpt lat="44.17902" lon="3.44043">
        <ele>773.52</ele>
        <time>2021-08-08T14:14:47Z</time>
      </trkpt>
      <trkpt lat="44.17905" lon="3.4404">
        <ele>773.52</ele>
        <time>2021-08-08T14:14:48Z</time>
      </trkpt>
      <trkpt lat="44.1793" lon="3.44024">
        <ele>771.6</ele>
        <time>2021-08-08T14:14:53Z</time>
      </trkpt>
      <trkpt lat="44.17967" lon="3.43994">
        <ele>767.27</ele>
        <time>2021-08-08T14:14:59Z</time>
      </trkpt>
      <trkpt lat="44.17989" lon="3.43973">
        <ele>763.9</ele>
        <time>2021-08-08T14:15:03Z</time>
      </trkpt>
      <trkpt lat="44.17995" lon="3.43969">
        <ele>763.9</ele>
        <time>2021-08-08T14:15:04Z</time>
      </trkpt>
      <trkpt lat="44.1802" lon="3.43947">
        <ele>761.02</ele>
        <time>2021-08-08T14:15:09Z</time>
      </trkpt>
      <trkpt lat="44.18026" lon="3.43909">
        <ele>757.18</ele>
        <time>2021-08-08T14:15:16Z</time>
      </trkpt>
      <trkpt lat="44.18023" lon="3.439">
        <ele>756.69</ele>
        <time>2021-08-08T14:15:17Z</time>
      </trkpt>
      <trkpt lat="44.1801" lon="3.43863">
        <ele>751.89</ele>
        <time>2021-08-08T14:15:22Z</time>
      </trkpt>
      <trkpt lat="44.18001" lon="3.43845">
        <ele>749.97</ele>
        <time>2021-08-08T14:15:26Z</time>
      </trkpt>
      <trkpt lat="44.17997" lon="3.43836">
        <ele>748.52</ele>
        <time>2021-08-08T14:15:28Z</time>
      </trkpt>
      <trkpt lat="44.17989" lon="3.43819">
        <ele>747.08</ele>
        <time>2021-08-08T14:15:31Z</time>
      </trkpt>
      <trkpt lat="44.17982" lon="3.43782">
        <ele>744.2</ele>
        <time>2021-08-08T14:15:36Z</time>
      </trkpt>
      <trkpt lat="44.17986" lon="3.43768">
        <ele>743.24</ele>
        <time>2021-08-08T14:15:38Z</time>
      </trkpt>
      <trkpt lat="44.18032" lon="3.43689">
        <ele>739.87</ele>
        <time>2021-08-08T14:15:49Z</time>
      </trkpt>
      <trkpt lat="44.18036" lon="3.43683">
        <ele>738.43</ele>
        <time>2021-08-08T14:15:50Z</time>
      </trkpt>
      <trkpt lat="44.1806" lon="3.43661">
        <ele>734.58</ele>
        <time>2021-08-08T14:15:57Z</time>
      </trkpt>
      <trkpt lat="44.18073" lon="3.43647">
        <ele>733.14</ele>
        <time>2021-08-08T14:16:01Z</time>
      </trkpt>
      <trkpt lat="44.18082" lon="3.4362">
        <ele>731.22</ele>
        <time>2021-08-08T14:16:06Z</time>
      </trkpt>
      <trkpt lat="44.18083" lon="3.43573">
        <ele>727.37</ele>
        <time>2021-08-08T14:16:13Z</time>
      </trkpt>
      <trkpt lat="44.18078" lon="3.43533">
        <ele>724.01</ele>
        <time>2021-08-08T14:16:22Z</time>
      </trkpt>
      <trkpt lat="44.18064" lon="3.43542">
        <ele>724.01</ele>
        <time>2021-08-08T14:16:29Z</time>
      </trkpt>
      <trkpt lat="44.1803" lon="3.43591">
        <ele>724.97</ele>
        <time>2021-08-08T14:16:43Z</time>
      </trkpt>
      <trkpt lat="44.17989" lon="3.43647">
        <ele>725.45</ele>
        <time>2021-08-08T14:16:59Z</time>
      </trkpt>
      <trkpt lat="44.1797" lon="3.43667">
        <ele>725.93</ele>
        <time>2021-08-08T14:17:09Z</time>
      </trkpt>
      <trkpt lat="44.17964" lon="3.43663">
        <ele>725.45</ele>
        <time>2021-08-08T14:17:21Z</time>
      </trkpt>
      <trkpt lat="44.17963" lon="3.43663">
        <ele>725.45</ele>
        <time>2021-08-08T14:17:37Z</time>
      </trkpt>
      <trkpt lat="44.17964" lon="3.43662">
        <ele>725.45</ele>
        <time>2021-08-08T14:18:03Z</time>
      </trkpt>
      <trkpt lat="44.17964" lon="3.43663">
        <ele>725.45</ele>
        <time>2021-08-08T14:18:22Z</time>
      </trkpt>
      <trkpt lat="44.17964" lon="3.43663">
        <ele>724.97</ele>
        <time>2021-08-08T14:18:38Z</time>
      </trkpt>
      <trkpt lat="44.17964" lon="3.43663">
        <ele>724.97</ele>
        <time>2021-08-08T14:18:57Z</time>
      </trkpt>
      <trkpt lat="44.17964" lon="3.43663">
        <ele>724.49</ele>
        <time>2021-08-08T14:19:32Z</time>
      </trkpt>
      <trkpt lat="44.17964" lon="3.43664">
        <ele>724.01</ele>
        <time>2021-08-08T14:20:03Z</time>
      </trkpt>
      <trkpt lat="44.17964" lon="3.43664">
        <ele>724.01</ele>
        <time>2021-08-08T14:20:34Z</time>
      </trkpt>
      <trkpt lat="44.17965" lon="3.43663">
        <ele>724.01</ele>
        <time>2021-08-08T14:21:06Z</time>
      </trkpt>
      <trkpt lat="44.17964" lon="3.43663">
        <ele>724.01</ele>
        <time>2021-08-08T14:21:43Z</time>
      </trkpt>
      <trkpt lat="44.17962" lon="3.43663">
        <ele>723.53</ele>
        <time>2021-08-08T14:22:14Z</time>
      </trkpt>
      <trkpt lat="44.17962" lon="3.43662">
        <ele>723.53</ele>
        <time>2021-08-08T14:22:49Z</time>
      </trkpt>
      <trkpt lat="44.17961" lon="3.43661">
        <ele>723.53</ele>
        <time>2021-08-08T14:23:17Z</time>
      </trkpt>
      <trkpt lat="44.17961" lon="3.43661">
        <ele>723.05</ele>
        <time>2021-08-08T14:23:43Z</time>
      </trkpt>
      <trkpt lat="44.17961" lon="3.43661">
        <ele>723.05</ele>
        <time>2021-08-08T14:24:03Z</time>
      </trkpt>
      <trkpt lat="44.17961" lon="3.43662">
        <ele>723.53</ele>
        <time>2021-08-08T14:24:24Z</time>
      </trkpt>
      <trkpt lat="44.17961" lon="3.43662">
        <ele>723.53</ele>
        <time>2021-08-08T14:24:55Z</time>
      </trkpt>
    </trkseg>
  </trk>
</gpx>